     2              OBSERVATION DATA    GPS                 RINEX VERSION / TYPE
teqc 2000Jul20 Karen Wendt 20030417 19:57:23UTC             PGM / RUN BY / DATE
                                                            COMMENT
L2: 1 -> 1; 150 -> 5; 250 -> 9                              COMMENT
L2: 1 -> 1; 150 -> 5; 250 -> 9                              COMMENT
L2: 1 -> 1; 150 -> 5; 250 -> 9                              COMMENT
L2: 1 -> 1; 150 -> 5; 250 -> 9                              COMMENT
L2: 1 -> 1; 150 -> 5; 250 -> 9                              COMMENT
L2: 1 -> 1; 150 -> 5; 250 -> 9                              COMMENT
L2: 1 -> 1; 150 -> 5; 250 -> 9                              COMMENT
L2: 1 -> 1; 150 -> 5; 250 -> 9                              COMMENT
L2: 1 -> 1; 150 -> 5; 250 -> 9                              COMMENT
L2: 1 -> 1; 150 -> 5; 250 -> 9                              COMMENT
L2: 1 -> 1; 150 -> 5; 250 -> 9                              COMMENT
L2: 1 -> 1; 150 -> 5; 250 -> 9                              COMMENT
L2: 1 -> 1; 150 -> 5; 250 -> 9                              COMMENT
L2: 1 -> 1; 150 -> 5; 250 -> 9                              COMMENT
Original Marker Name: pyra Pyrmid_1932_USC&GS               COMMENT
Campaign Name: USGS 2003                                    COMMENT
4-Character Station Name: PYRA                              COMMENT
6-Character Antenna Code: DMRCHT                            COMMENT
Vertical Measurement Point: BCR                             COMMENT
Vertical Offset to Rinex Ref. Point: 0.0348                 COMMENT
Radial Measurement Point: ECF                               COMMENT
Radial Offset to Rinex Ref. Point: 0.1897                   COMMENT
Antenna Height from Field Measurement: 1.3570 m             COMMENT
Additional Antenna Identification Info.:                    COMMENT
Turborogue and Ashtech Choke Ring                           COMMENT
Original XYZ: -2593955.7082 -4478732.6615 3715359.2647      COMMENT
New XYZ position is based on association with SCEC monument COMMENT
E1F1F8Y4+0011. Position of that monument is believed to be  COMMENT
valid to within 1 m horizontally; vertical accuracy         COMMENT
should be no worse than 3-times this value.                 COMMENT
                                                            COMMENT
Revised Rinex header created by UCSD GPS archive for        COMMENT
GSAC on 17-Jul-2003 (2003:198) 20:59:46 GMT                 COMMENT
For assistance contact dagnew@ucsd.edu                      COMMENT
or anderson@python.ucsd.edu                                 COMMENT
                                                            COMMENT
PYRAMID 1932                                                MARKER NAME
JMS US GEOLOGICAL SURVEY                                    OBSERVER / AGENCY
LP00108.707 ASHTECH Z-XII3 CD00                             REC # / TYPE / VERS
CR519993706 DORNE-MARGOL. TYPE T                            ANT # / TYPE
 -2593974.3962 -4478709.4634  3715343.6679                  APPROX POSITION XYZ
        1.3089        0.0000        0.0000                  ANTENNA: DELTA H/E/N
     1     1     0                                          WAVELENGTH FACT L1/2
     5    C1    L1    L2    P1    P2                        # / TYPES OF OBSERV
    30                                                      INTERVAL
  2003     4     9    17    59    0.000000                  TIME OF FIRST OBS
  2003     4     9    23    59   30.000000                  TIME OF LAST OBS
                                                            END OF HEADER
 03  4  9 17 59  0.0000000  0  7G24G 5G 4G30G 9G10G 6
  21843586.720      269201.86949    194367.15647  21843586.310
  21843593.969      126167.70249     90740.20843
  24543711.036      368853.40949    269062.33145  24543711.082    24543718.658
  20865514.825      -93582.75549    -67892.84047  20865514.735    20865520.883
  24922350.557      372477.96949    274596.25245  24922350.156    24922363.482
  21876253.938     -146666.71349   -107142.52147  21876253.305    21876262.040
  23047139.714     -147044.71249   -107205.48146  23047139.048    23047146.685
 03  4  9 17 59 30.0000000  0  7G24G 5G 4G30G 9G10G 6
  21659332.681     -699063.30549   -560125.20447  21659331.607    21659339.280
                   -887791.54049   -796653.52347                  20342127.270
  24365714.902     -566526.43049   -459805.09545  24365713.887    24365721.723
  20659073.356    -1178439.35449   -913235.62747  20659073.371    20659079.549
  24743245.713     -568731.14249   -458813.49145  24743244.788    24743256.864
  21666477.111    -1249051.70949   -966143.73647  21666476.451    21666485.173
  22837205.559    -1250250.76149   -966846.51546  22837205.961    22837213.635
 03  4  9 18  0  0.0000000  0  7G24G 5G 4G30G 9G10G 6
  21672512.067     -629803.92649   -506156.87147  21672511.263    21672518.952
  20346660.428     -863937.35749   -778065.87448  20346659.741    20346666.614
  24385107.423     -464616.10749   -380394.48845  24385107.012    24385114.656
  20650111.446    -1225534.57449   -949933.18947  20650111.455    20650117.630
  24761512.027     -472741.75249   -384016.61045  24761511.802    24761522.811
  21654178.677    -1313681.14349  -1016504.26847  21654177.855    21654186.601
  22824672.870    -1316112.71249  -1018167.47546  22824672.878    22824680.527
 03  4  9 18  0 30.0000000  0  7G24G 5G 4G30G 9G10G 6
  21685737.352     -560303.88549   -452001.00847  21685736.697    21685744.376
  20351300.676     -839552.88949   -759065.01448  20351299.998    20351306.837
  24404501.451     -362698.63149   -300978.30545  24404501.215    24404508.853
  20641240.670    -1272150.73049   -986257.45647  20641240.686    20641246.838
  24779761.958     -376837.71649   -309286.26045  24779761.688    24779772.862
  21641970.275    -1377837.08349  -1066495.82947  21641969.356    21641978.096
  22812151.277    -1381915.07749  -1069441.99846  22812151.087    22812158.771
 03  4  9 18  1  0.0000000  0  7G24G 5G 4G30G 9G10G 6
  21699008.260     -490564.70449   -397658.80447  21699007.650    21699015.336
  20356041.985     -814637.40449   -739650.37748  20356041.296    20356048.117
  24423896.751     -260775.14449   -221557.43045  24423896.638    24423904.290
  20632461.608    -1318285.10649  -1022206.30847  20632461.614    20632467.797
  24797995.385     -281020.71449   -234623.70945  24797995.154    24798006.332
  21629852.634    -1441515.83549  -1116115.54447  21629851.675    21629860.390
  22799641.123    -1447656.75149  -1120669.23646  22799640.887    22799648.548
 03  4  9 18  1 30.0000000  0  7G24G 5G 4G30G 9G10G 6
  21712324.177     -420589.10349   -343132.37047  21712323.621    21712331.290
  20360884.179     -789191.85749   -719822.70248  20360883.474    20360890.276
  24443292.808     -158847.45749   -142133.29145  24443292.770    24443300.516
  20623774.490    -1363936.14749  -1057778.53947  20623774.498    20623780.683
  24816211.704     -185293.88349   -160031.41145  24816211.474    24816222.481
  21617826.210    -1504715.21949  -1165361.72447  21617825.201    21617833.906
  22787142.444    -1513337.85849  -1171849.27346  22787142.170    22787149.810
 03  4  9 18  2  0.0000000  0  7G24G 5G 4G30G 9G10G 6
  21725684.868     -350378.31949   -288422.67847  21725684.331    21725692.011
  20365827.324     -763215.64449   -699581.52248  20365826.592    20365833.381
  24462689.443      -56916.89749    -62706.91945  24462689.383    24462697.304
  20615179.896    -1409101.12849  -1092972.02647  20615179.918    20615186.076
  24834410.510      -89658.87749    -85510.67745  24834410.177    24834421.242
  21605891.609    -1567431.78249  -1214231.68447  21605890.583    21605899.248
  22774655.531    -1578957.14449  -1222981.13746  22774655.224    22774662.854
 03  4  9 18  2 30.0000000  0  7G24G 5G 4G30G 9G10G 6
  21739089.743     -279935.24049   -233531.96747  21739089.222    21739096.904
  20370871.338     -736709.50749   -678927.41448  20370870.590    20370877.384
  24482086.332       45014.55749     16720.16945  24482086.215    24482094.289
  20606678.116    -1453778.33449  -1127785.42547  20606678.133    20606684.277
  24852591.232        5881.13649    -11063.97945  24852590.949    24852602.036
  21594049.338    -1629663.30949  -1262723.69047  21594048.282    21594056.931
  22762180.353    -1644514.72649  -1274064.91846  22762179.991    22762187.627
 03  4  9 18  3  0.0000000  0  7G24G 5G 4G30G 9G10G 6
  21752538.518     -209261.67749   -178461.66547  21752538.011    21752545.688
  20376016.078     -709673.82149   -657860.67648  20376015.338    20376022.122
  24501483.017      146944.89349     96146.36645  24501482.866    24501490.903
  20598269.498    -1497966.07249  -1162217.42348  20598269.515    20598275.638
  24870753.374      101323.66449     63306.75445  24870753.025    24870764.187
  21582299.885    -1691406.99349  -1310835.56647  21582298.815    21582307.445
  22749716.962    -1710010.34249  -1325100.41146  22749716.569    22749724.215
 03  4  9 18  3 30.0000000  0  7G24G 5G 4G30G 9G10G 6
  21766030.687     -138359.93349   -123213.56447  21766030.191    21766037.869
  20381261.625     -682108.53049   -636381.25748  20381260.867    20381267.674
  24520879.304      248872.97849    175570.81845  24520879.089    24520887.401
  20589954.498    -1541661.86149  -1196266.08048  20589954.511    20589960.601
  24888896.615      196666.66149    137599.97645  24888896.265    24888907.436
  21570643.808    -1752660.00149  -1358565.08947  21570642.735    21570651.317
  22737265.492    -1775443.15749  -1376086.97046  22737265.089    22737272.726
 03  4  9 18  4  0.0000000  0  7G24G 5G 4G30G 9G10G 6
  21779565.978      -67231.65449    -67788.93747  21779565.490    21779573.166
  20386607.903     -654013.77349   -614489.26748  20386607.135    20386613.976
  24540274.857      350796.96349    254992.06345  24540274.662    24540282.845
  20581733.514    -1584863.79749  -1229929.91548  20581733.512    20581739.564
  24907020.377      291907.42649    211813.52045  24907020.049    24907031.005
  21559081.611    -1813419.68849  -1405910.21247  21559080.519    21559089.056
  22724826.060    -1840812.88049  -1427024.36646  22724825.621    22724833.258
 03  4  9 18  4 30.0000000  0  7G24G 5G 4G30G 9G10G 6
  21793143.892        4120.51049    -12189.84747  21793143.391    21793151.065
  20392054.891     -625390.01349   -592185.06748  20392054.125    20392060.976
  24559669.295      452715.17749    334408.82245  24559669.085    24559677.270
  20573606.794    -1627570.23749  -1263207.64848  20573606.788    20573612.827
  24925124.137      387043.23849    285945.25745  24925123.637    24925134.940
  21547613.741    -1873683.53349  -1452868.95647  21547612.648    21547621.141
  22712398.657    -1906119.27349  -1477912.40546  22712398.224    22712405.877
 03  4  9 18  5  0.0000000  0  7G24G 5G 4G30G 9G10G 6
  21806764.156       75695.31449     43582.72647  21806763.652    21806771.312
  20397602.549     -596237.12049   -569468.55748  20397601.764    20397608.630
  24579062.453      554626.41449    413820.13245  24579062.139    24579070.369
  20565574.876    -1669778.43449  -1296097.14248  20565574.859    20565580.889
  24943207.636      482072.33049    359993.83345  24943207.166    24943218.603
  21536240.859    -1933448.33449  -1499438.84147  21536239.751    21536248.232
  22699983.515    -1971361.09649  -1528750.13446  22699983.079    22699990.748
 03  4  9 18  5 30.0000000  0  7G24G 5G 4G30G 9G10G 6
  21820426.218      147489.80149     99526.47047  21820425.724    21820433.376
  20403250.733     -566555.91849   -546340.38048  20403249.944    20403256.816
  24598453.899      656528.61349    493224.42245  24598453.545    24598461.754
  20557638.001    -1711487.06049  -1328597.36548  20557637.973    20557644.024
  24961270.227      576991.79949    433957.00245  24961269.842    24961281.170
  21524963.371    -1992711.74049  -1545618.03847  21524962.249    21524970.708
  22687580.672    -2036538.45849  -1579537.63946  22687580.215    22687587.896
 03  4  9 18  6  0.0000000  0  7G24G 5G 4G30G 9G10G 6
  21834129.607      219501.56749    155639.52247  21834129.107    21834136.750
  20408999.323     -536347.10049   -522801.07048  20408998.524    20409005.392
  24617843.221      758419.85049    572620.14645  24617842.852    24617850.923
  20549796.476    -1752694.45349  -1360707.01348  20549796.452    20549802.529
  24979311.456      671798.82849    507832.54545  24979311.022    24979322.408
  21513781.681    -2051471.63249  -1591404.88447  21513780.550    21513788.989
  22675190.093    -2101651.33449  -1630274.88846  22675189.633    22675197.289
 03  4  9 18  6 30.0000000  0  7G24G 5G 4G30G 9G10G 6
  21847874.029      291728.77049    211920.44647  21847873.542    21847881.159
  20414848.298     -505610.76149   -498850.70248  20414847.515    20414854.356
  24637230.221      860298.76749    652006.28045  24637229.820    24637238.033
  20542050.785    -1793398.42949  -1392424.38948  20542050.754    20542056.857
  24997330.885      766491.19449    581618.73345  24997330.447    24997341.876
  21502696.341    -2109725.26549  -1636797.24747  21502695.204    21502703.638
  22662811.935    -2166698.87949  -1680961.24046  22662811.442    22662819.107
 03  4  9 18  7  0.0000000  0  7G24G 5G 4G30G 9G10G 6
  21861659.053      364169.39949    268367.68247  21861658.549    21861666.163
  20420797.508     -474347.70749   -474489.90948  20420796.716    20420803.547
  24656614.557      962163.69449    731381.52845  24656614.260    24656622.215
  20534401.204    -1833597.22049  -1423748.11048  20534401.190    20534407.278
  25015328.015      861066.39849    655313.65645  25015327.648    25015338.776
  21491707.847    -2167470.04449  -1681793.09647  21491706.721    21491715.095
  22650446.252    -2231680.80249  -1731596.45446  22650445.783    22650453.429
 03  4  9 18  7 30.0000000  0  7G24G 5G 4G30G 9G10G 6
  21875484.270      436821.13549    324979.42047  21875483.768    21875491.388
  20426846.869     -442558.47149   -449719.10248  20426846.069    20426852.890
  24675995.889     1064012.90849    810744.52645  24675995.614    24676003.489
  20526848.091    -1873289.23449  -1454676.93648  20526848.059    20526854.143
  25033302.399      955521.90449    728915.27445  25033301.836    25033313.042
  21480816.637    -2224703.66649  -1726390.65247  21480815.491    21480823.841
  22638093.131    -2296596.88549  -1782180.36646  22638092.685    22638100.312
 03  4  9 18  8  0.0000000  0  7G24G 5G 4G30G 9G10G 6
  21889349.132      509681.35249    381753.60547  21889348.609    21889356.212
  20432996.191     -410243.93149   -424538.96848  20432995.381    20433002.190
  24695373.835     1165844.36449    890093.68945  24695373.629    24695381.347
  20519391.704    -1912473.01149  -1485209.73148  20519391.681    20519397.718
  25051253.386     1049854.59749    802421.20845  25051252.809    25051264.229
  21470023.092    -2281423.90049  -1770588.16547  21470021.943    21470030.253
  22625752.531    -2361447.11949  -1832712.95846  22625752.068    22625759.705
 03  4  9 18  8 30.0000000  0  7G24G 5G 4G30G 9G10G 6
  21903253.423      582748.67049    438689.16447  21903252.903    21903260.488
  20439245.493     -377403.95149   -398949.40248  20439244.665    20439251.490
  24714748.157     1267656.68249    969427.94345  24714747.816    24714755.591
  20512032.489    -1951146.19349  -1515344.66348  20512032.465    20512038.454
  25069180.654     1144062.58449    875829.95845  25069180.247    25069191.441
  21459327.775    -2337627.96349  -1814383.47847  21459326.627    21459334.894
  22613424.634    -2426230.64849  -1883193.57846  22613424.152    22613431.807
 03  4  9 18 10  0.0000000  0  6G24G 5G 4G30G10G 6
  21945168.137      803011.56149    610322.54247  21945167.626    21945175.134
  20458561.826     -275896.34749   -319852.65348  20458561.003    20458567.844
  24772816.139     1572805.74849   1207206.38745  24772815.698    24772823.426
  20490510.877    -2064243.23149  -1603472.17348  20490510.824    20490516.787
  21427805.677    -2503277.27549  -1943460.69047  21427804.540    21427812.804
  22576487.978    -2620333.96049  -2034442.74646  22576487.493    22576495.218
 03  4  9 18 10 30.0000000  0  5G24G 5G30G10G 6
  21959243.293      876976.62449    667957.64547  21959242.763    21959250.264
  20465227.308     -240869.19349   -292558.79348  20465226.488    20465233.344
  20483561.055    -2100764.87949  -1631930.58048  20483561.006    20483566.983
  21417525.417    -2557300.45949  -1985556.62547  21417524.266    21417532.517
  22564229.254    -2684753.84049  -2084639.98646  22564228.749    22564236.499
 03  4  9 18 11  0.0000000  0  6G24G17G 5G30G10G 6
  21973350.369      951109.53249    725723.53747  21973349.836    21973357.312
                  -1588687.95349  -1225636.03143
  20471986.830     -205347.99449   -264879.96048  20471986.009    20471992.868
  20476704.658    -2136795.58049  -1660006.42848  20476704.612    20476710.604
  21407340.240    -2610823.65449  -2027262.96447  21407339.098    21407347.333
  22551978.320    -2749132.99049  -2134805.49446  22551977.791    22551985.556
 03  4  9 18 11 30.0000000  0  6G24G17G 5G30G10G 6
  21987489.200     1025409.43949    783619.55647  21987488.658    21987496.099
                  -1679579.88649  -1296460.77844                  24701746.994
  20478840.412     -169332.49849   -236815.96648  20478839.584    20478846.444
  20469942.193    -2172332.64049  -1687697.62648  20469942.134    20469948.144
  21397250.867    -2663843.51149  -2068577.10347  21397249.742    21397257.935
  22539735.383    -2813469.86249  -2184938.05946  22539734.866    22539742.599
 03  4  9 18 12  0.0000000  0  6G24G17G 5G30G10G 6
  22001659.450     1099874.37349    841644.16447  22001658.908    22001666.324
  24684462.309    -1770358.52149  -1367197.28345  24684460.164    24684473.135
  20485787.994     -132822.86449   -208366.92648  20485787.165    20485794.006
  20463274.056    -2207373.97249  -1715002.53948  20463274.000    20463280.015
  21387257.825    -2716357.31449  -2109496.90047  21387256.690    21387264.875
  22527500.693    -2877763.52149  -2235036.94546  22527500.196    22527507.925
 03  4  9 18 12 30.0000000  0  6G24G17G 5G30G10G 6
  22015863.189     1174515.34149    899805.94147  22015862.665    22015870.027
  24667211.700    -1861009.65349  -1437834.42645  24667210.216    24667222.355
  20492832.009      -95806.64049   -179523.14248  20492831.168    20492838.002
  20456703.075    -2241904.72049  -1741909.59348  20456703.019    20456709.023
  21377363.975    -2768349.61549  -2150010.33347  21377362.840    21377371.013
  22515276.822    -2942000.30749  -2285091.51646  22515276.319    22515284.005
 03  4  9 18 13  0.0000000  0  6G24G17G 5G30G10G 6
  22030102.409     1249342.73949    958112.98547  22030101.878    22030109.214
  24649987.988    -1951520.13949  -1508361.97145  24649986.999    24649998.510
  20499974.591      -58272.50149   -150275.78548  20499973.753    20499980.572
  20450231.845    -2275911.26749  -1768408.17648  20450231.769    20450237.789
  21367572.136    -2819806.11349  -2190106.27047  21367570.999    21367579.144
  22503066.110    -3006167.95349  -2335092.22646  22503065.602    22503073.284
 03  4  9 18 13 30.0000000  0  6G24G17G 5G30G10G 6
  22044377.264     1324357.27649   1016565.86047  22044376.725    22044384.052
  24632791.903    -2041885.87749  -1578776.70745  24632790.843    24632802.612
  20507216.125      -20218.21249   -120623.11448  20507215.290    20507222.113
  20443861.230    -2309389.01049  -1794494.70648  20443861.159    20443867.151
  21357883.203    -2870721.59149  -2229780.63647  21357882.066    21357890.212
  22490869.218    -3070262.80049  -2385036.19946  22490868.745    22490876.381
 03  4  9 18 14  0.0000000  0  6G24G17G 5G30G10G 6
  22058687.585     1399558.31749   1075164.06247  22058687.049    22058694.352
  24615623.851    -2132104.30149  -1649076.65645  24615622.789    24615634.577
  20514556.794       18357.06449    -90564.48248  20514555.948    20514562.780
  20437591.862    -2342334.56049  -1820166.54148  20437591.800    20437597.766
  21348297.989    -2921091.98149  -2269030.25847  21348296.852    21348304.995
  22478686.636    -3134282.67649  -2434921.76746  22478686.140    22478693.742
 03  4  9 18 14 30.0000000  0  6G24G17G 5G30G10G 6
  22073032.875     1474942.96249   1133905.32547  22073032.318    22073039.587
  24598483.870    -2222175.06549  -1719261.55845  24598482.935    24598494.586
  20521996.300       57451.84849    -60101.03548  20521995.458    20522002.299
  20431423.973    -2374747.03849  -1845422.99848  20431423.910    20431429.851
  21338816.802    -2970915.91449  -2307854.06947  21338815.665    21338823.795
  22466518.260    -3198227.81249  -2484749.09446  22466517.783    22466525.308
 03  4  9 18 15  0.0000000  0  6G24G17G 5G30G10G 6
  22087412.438     1550507.95149   1192787.11347  22087411.893    22087419.162
  24581371.942    -2312098.19949  -1789331.39645  24581371.031    24581382.817
  20529534.212       97063.70149    -29234.68048  20529533.360    20529540.217
  20425357.557    -2406626.37749  -1870264.01848  20425357.509    20425363.430
  21329439.729    -3020192.73249  -2346251.55847  21329438.577    21329446.721
  22454363.934    -3262099.17949  -2534518.93846  22454363.478    22454370.955
 03  4  9 18 15 30.0000000  0  6G24G17G 5G30G10G 6
  22101825.918     1626251.06749   1251807.70147  22101825.375    22101832.627
  24564288.251    -2401873.33549  -1859285.94445  24564287.317    24564299.148
  20537170.386      137191.80349      2033.94648  20537169.533    20537176.392
  20419392.812    -2437971.30949  -1894688.61648  20419392.749    20419398.636
  21320167.173    -3068920.30349  -2384221.06647  21320166.016    21320174.133
  22442223.701    -3325896.44849  -2584231.04646  22442223.212    22442230.660
 03  4  9 18 16 30.0000000  0  6G24G17G 5G30G10G 6
  22130741.288     1778202.20749   1370211.14747  22130740.747    22130747.979
  24530194.648    -2581036.08949  -1998893.04045  24530193.770    24530205.626
  20552725.162      218932.62349     65728.04648  20552724.315    20552731.174
  20407758.114    -2499112.09649  -1942330.74448  20407758.033    20407763.937
  21301925.618    -3164780.50649  -2458917.26547  21301924.455    21301932.540
  22417974.384    -3453327.21649  -2683527.64046  22417973.900    22417981.327
 03  4  9 18 17  0.0000000  0  6G24G17G 5G30G10G 6
  22145258.805     1854492.11649   1429657.81047  22145258.257    22145265.501
  24513201.473    -2670335.31649  -2068476.75545  24513200.634    24513212.496
  20560659.791      260629.10749     98218.79048  20560658.942    20560665.828
  20402105.001    -2528819.37849  -1965479.25548  20402104.927    20402110.841
  21292973.658    -3211823.29749  -2495573.95447  21292972.512    21292980.540
  22405881.785    -3516873.92149  -2733044.49146  22405881.292    22405888.703
 03  4  9 18 17 30.0000000  0  6G24G17G 5G30G10G 6
  22159806.237     1930939.14049   1489226.90447  22159805.686    22159812.915
  24496234.853    -2759495.42849  -2137952.06445  24496234.080    24496245.757
  20568689.532      302825.54849    131099.10948  20568688.673    20568695.571
  20396552.330    -2557998.74749  -1988216.40348  20396552.261    20396558.166
  21284125.377    -3258321.21349  -2531806.06847  21284124.237    21284132.247
  22393801.306    -3580356.98749  -2782511.76446  22393800.825    22393808.199
 03  4  9 18 18  0.0000000  0  6G24G17G 5G30G10G 6
  22174384.384     2007547.62049   1548921.78047  22174383.824    22174391.078
  24479296.055    -2848508.76549  -2207313.01445  24479295.307    24479307.040
  20576815.432      345527.22849    164373.12948  20576814.578    20576821.486
  20391101.602    -2586642.54849  -2010536.24248  20391101.534    20391107.429
  21275382.400    -3304265.89949  -2567607.10447  21275381.260    21275389.253
  22381734.189    -3643769.82049  -2831924.32046  22381733.699    22381741.076
 03  4  9 18 18 30.0000000  0  6G24G17G 5G30G10G 6
  22188993.253     2084317.59349   1608742.54147  22188992.710    22188999.939
  24462385.932    -2937371.96549  -2276556.95845  24462385.183    24462396.890
  20585037.734      388735.59049    198041.95448  20585036.885    20585043.792
  20385753.474    -2614747.21949  -2032435.93348  20385753.396    20385759.282
  21266745.538    -3349652.75449  -2602973.43747  21266744.409    21266752.383
  22369680.994    -3707109.48249  -2881279.83146  22369680.482    22369687.874
 03  4  9 18 19  0.0000000  0  6G24G17G 5G30G10G 6
  22203632.694     2161248.39949   1668688.60947  22203632.155    22203639.387
  24445504.816    -3026082.53049  -2345682.00845  24445504.020    24445515.812
  20593356.499      432450.84449    232105.77348  20593355.646    20593362.564
  20380508.485    -2642309.75449  -2053913.22848  20380508.398    20380514.304
  21258215.422    -3394478.76949  -2637902.76647  21258214.275    21258222.249
  22357642.070    -3770373.95149  -2930576.76646  22357641.577    22357648.975
 03  4  9 18 19 30.0000000  0  6G24G17G 5G30G10G 6
  22218302.671     2238339.35549   1728759.46047  22218302.090    22218309.344
  24428653.028    -3114638.76249  -2414686.76345  24428652.215    24428663.924
  20601771.818      476673.54849    266564.99048  20601770.961    20601777.884
  20375367.175    -2669327.46149  -2074965.95548  20375367.097    20375373.004
  21249792.667    -3438740.70349  -2672392.53547  21249791.496    21249799.498
  22345617.888    -3833561.38049  -2979813.66646  22345617.371    22345624.752
 03  4  9 18 20  0.0000000  0  6G24G17G 5G30G10G 6
  22233002.845     2315589.11349   1788954.06346  22233002.283    22233009.514
  24411830.971    -3203038.86949  -2483569.86845  24411830.292    24411841.591
  20610283.623      521403.14549    301419.21348  20610282.768    20610289.689
  20370329.932    -2695798.33349  -2095592.59048  20370329.844    20370335.759
  21241477.692    -3482436.00049  -2706440.77847  21241476.522    21241484.509
  22333608.462    -3896670.75749  -3028989.73346  22333607.965    22333615.329
 03  4  9 18 20 30.0000000  0  6G24G17G 5G30G10G 6
  22247732.992     2392996.56249   1849271.54347  22247732.435    22247739.670
  24395038.976    -3291280.58749  -2552329.52745  24395038.207    24395049.603
  20618891.879      566639.69849    336668.45348  20618891.019    20618897.958
  20365397.175    -2721720.13049  -2115791.37948  20365397.099    20365403.014
  21233271.110    -3525561.65049  -2740045.13447  21233269.953    21233277.964
  22321614.262    -3959700.41449  -3078103.69646  22321613.759    22321621.171
 03  4  9 18 21  0.0000000  0  6G24G17G 5G30G10G 6
  22262492.659     2470558.83249   1909709.65346  22262492.087    22262499.326
  24378277.253    -3379363.69549  -2620965.62545  24378276.441    24378287.840
  20627596.249      612381.28249    372311.22248  20627595.383    20627602.314
  20360569.039    -2747092.29349  -2135561.87848  20360568.951    20360574.858
  21225173.194    -3568116.49149  -2773204.71647  21225172.039    21225180.013
  22309635.195    -4022650.54749  -3127155.68846  22309634.692    22309642.099
 03  4  9 18 21 30.0000000  0  6G24G17G 5G30G10G 6
  22277281.308     2548273.57249   1970266.58646  22277280.759    22277287.981
  24361545.695    -3467287.99549  -2689477.96645  24361544.834    24361556.353
  20636396.392      658626.21449    408346.20448  20636395.521    20636402.442
  20355845.634    -2771913.91949  -2154903.39048  20355845.561    20355851.444
  21217184.126    -3610099.18349  -2805918.46347  21217182.960    21217190.913
  22297671.298    -4085520.98649  -3176145.58546  22297670.794    22297678.204
 03  4  9 18 22  0.0000000  0  6G24G17G 5G30G10G 6
  22292098.679     2626139.27349   2030941.14546  22292098.141    22292105.356
  24344844.673    -3555052.03449  -2757865.42245  24344843.826    24344855.303
  20645292.301      705374.23349    444773.20048  20645291.432    20645298.340
  20351227.340    -2796183.24749  -2173814.53848  20351227.268    20351233.126
  21209304.444    -3651507.21749  -2838184.41647  21209303.285    21209311.195
  22285722.770    -4148310.63749  -3225072.51946  22285722.295    22285729.690
 03  4  9 18 22 30.0000000  0  6G24G17G 5G30G10G 6
  22306944.464     2704154.18549   2091731.97746  22306943.914    22306951.137
  24328174.492    -3642654.01749  -2826126.59945  24328173.666    24328185.101
  20654283.786      752624.56149    481591.61048  20654282.917    20654289.790
  20346714.495    -2819898.35849  -2192293.82648  20346714.423    20346720.275
  21201534.573    -3692338.15749  -2870000.69047  21201533.424    21201541.301
  22273789.848    -4211018.51049  -3273935.73546  22273789.347    22273796.726
 03  4  9 18 23  0.0000000  0  6G24G17G 5G30G10G 6
  22321818.258     2782316.40549   2152637.59746  22321817.687    22321824.950
  24311535.171    -3730093.69949  -2894261.30145  24311534.325    24311545.827
  20663370.588      800375.81449    518800.35348  20663369.727    20663376.579
  20342307.266    -2843058.43949  -2210340.62548  20342307.194    20342313.044
  21193874.730    -3732590.81249  -2901366.34747  21193873.607    21193881.447
  22261872.550    -4273644.18149  -3322734.89546  22261872.047    22261879.445
 03  4  9 18 23 30.0000000  0  6G24G17G 5G30G10G 6
  22336719.821     2860624.54049   2213656.90546  22336719.271    22336726.491
  24294927.066    -3817369.70449  -2962268.45345  24294926.163    24294937.696
  20672552.548      848627.26649    556398.86348  20672551.700    20672558.552
  20338005.996    -2865661.73249  -2227953.56348  20338005.932    20338011.754
  21186325.365    -3772262.99049  -2932279.69847  21186324.233    21186332.055
  22249971.056    -4336186.56349  -3371469.16046  22249970.586    22249977.948
 03  4  9 18 24  0.0000000  0  6G24G17G 5G30G10G 6
  22351648.487     2939075.19649   2274787.26846  22351647.946    22351655.159
  24278350.072    -3904482.30849  -3030148.27345  24278349.098    24278360.775
  20681829.332      897376.81349    594385.49548  20681828.488    20681835.329
  20333810.713    -2887708.06249  -2245132.50748  20333810.666    20333816.457
  21178886.630    -3811353.85049  -2962740.07647  21178885.483    21178893.271
  22238085.384    -4398646.04749  -3420138.83446  22238084.924    22238092.281
 03  4  9 18 24 30.0000000  0  6G24G17G 5G30G10G 6
  22366604.213     3017667.92549   2336028.35346  22366603.682    22366610.895
  24261804.625    -3991428.97449  -3097898.79945  24261803.763    24261815.200
  20691200.854      946624.26149    632760.10248  20691200.010    20691206.858
  20329721.905    -2909195.00449  -2261875.55948  20329721.846    20329727.627
  21171559.089    -3849860.45449  -2992745.17847  21171557.925    21171565.704
  22226215.842    -4461020.94449  -3468742.58946  22226215.371    22226222.694
 03  4  9 18 25  0.0000000  0  6G24G17G 5G30G10G 6
  22381586.483     3096400.18349   2397378.16746  22381585.931    22381593.188
  24245290.829    -4078209.41849  -3165519.79445  24245289.996    24245301.336
  20700666.777      996367.91849    671521.36648  20700665.937    20700672.788
  20325739.696    -2930121.87649  -2278182.19848  20325739.643    20325745.396
  21164342.939    -3887781.49449  -3022294.01147  21164341.791    21164349.543
  22214362.424    -4523311.00549  -3517280.24047  22214361.947    22214369.270
 03  4  9 18 25 30.0000000  0  6G24G17G 5G30G10G 6
  22396594.940     3175270.14049   2458835.26046  22396594.400    22396601.685
  24228808.784    -4164822.96749  -3233010.74445  24228807.945    24228819.244
  20710226.925     1046606.54549    710668.31948  20710226.089    20710232.936
  20321864.282    -2950487.44749  -2294051.45848  20321864.226    20321869.940
  21157238.530    -3925115.23749  -3051385.19247  21157237.379    21157245.138
  22202525.280    -4585515.56649  -3565751.27447  22202524.812    22202532.101
 03  4  9 18 26  0.0000000  0  6G24G17G 5G30G10G 6
  22411629.005     3254274.81849   2520397.33446  22411628.482    22411635.803
  24212358.563    -4251269.42549  -3300371.48545  24212357.683    24212368.973
  20719880.873     1097338.19149    750199.44748  20719880.026    20719886.901
  20318095.701    -2970291.49149  -2309483.16248  20318095.625    20318101.363
  21150246.027    -3961860.83349  -3080018.07247  21150244.870    21150252.664
  22190704.362    -4647634.77649  -3614155.79747  22190703.885    22190711.169
 03  4  9 18 26 30.0000000  0  6G24G17G 5G30G10G 6
  22426688.741     3333414.41549   2582064.55546  22426688.187    22426695.594
  24195940.659    -4337545.85549  -3367599.74245  24195939.760    24195950.973
  20729628.785     1148563.77349    790115.46648  20729627.947    20729634.845
  20314434.604    -2989530.58549  -2324474.64248  20314434.530    20314440.312
  21143366.203    -3998014.48949  -3108189.71147  21143365.043    21143372.855
  22178900.207    -4709665.83949  -3662491.63247  22178899.707    22178907.011
 03  4  9 18 27  0.0000000  0  6G24G17G 5G30G10G 6
  22441773.607     3412685.85049   2643834.50046  22441773.044    22441780.494
  24179555.046    -4423652.44249  -3434695.63845  24179554.203    24179565.303
  20739470.167     1200280.53649    830414.22048  20739469.314    20739476.255
  20310880.884    -3008205.34049  -2339026.38248  20310880.820    20310886.630
  21136598.950    -4033576.31449  -3135900.16347  21136597.788    21136605.626
  22167112.726    -4771609.47449  -3710759.33747  22167112.237    22167119.498
 03  4  9 18 27 30.0000000  0  6G24G17G 5G30G10G 6
  22456883.101     3492086.81249   2705705.37846  22456882.554    22456890.012
  24163201.829    -4509588.69349  -3501658.81745  24163200.934    24163212.091
  20749404.734     1252487.01349    871094.56648  20749403.877    20749410.859
  20307434.746    -3026314.64749  -2353137.51348  20307434.686    20307440.524
  21129944.615    -4068544.70849  -3163148.21347  21129943.465    21129951.290
  22155341.936    -4833465.19949  -3758958.54947  22155341.446    22155348.687
 03  4  9 18 28  0.0000000  0  6G24G17G 5G30G10G 6
  22472016.965     3571615.84449   2767676.04546  22472016.427    22472023.892
  24146881.228    -4595353.44549  -3568488.36245  24146880.392    24146891.539
  20759432.331     1305182.30149    912155.80648  20759431.485    20759438.480
  20304096.572    -3043856.92549  -2366806.80848  20304096.497    20304102.353
  21123403.649    -4102917.66849  -3189932.29847  21123402.493    21123410.282
  22143588.081    -4895231.95449  -3807088.43347  22143587.593    22143594.786
 03  4  9 18 28 30.0000000  0  6G24G17G 5G30G10G 6
  22487174.905     3651271.35049   2829745.26646  22487174.343    22487181.825
  24130593.472    -4680945.47349  -3635183.32245  24130592.668    24130603.865
  20769552.770     1358365.49349    953597.22448  20769551.938    20769558.943
  20300866.513    -3060830.96349  -2380033.31748  20300866.463    20300872.288
  21116976.296    -4136693.44949  -3216251.04047  21116975.142    21116982.913
  22131851.370    -4956908.76549  -3855148.23747  22131850.878    22131858.071
 03  4  9 18 29  0.0000000  0  6G24G17G 5G30G10G 6
  22502356.530     3731051.26049   2891911.41846  22502355.993    22502363.460
  24114338.720    -4766364.14949  -3701743.19445  24114337.902    24114349.053
  20779765.756     1412034.91549    995417.52948  20779764.918    20779771.926
  20297744.733    -3077236.00349  -2392816.45048  20297744.674    20297750.496
  21110662.840    -4169870.70149  -3242103.38347  21110661.713    21110669.483
  22120131.832    -5018495.13249  -3903137.55647  22120131.332    22120138.540
 03  4  9 18 29 30.0000000  0  6G24G17G 5G30G10G 6
  22517561.474     3810953.70149   2954173.04846  22517560.907    22517568.414
  24098117.062    -4851608.68749  -3768167.38545  24098116.221    24098127.371
  20790071.017     1466189.25349   1037615.69148  20790070.184    20790077.179
  20294731.454    -3093070.91049  -2405155.32248  20294731.410    20294737.197
  21104463.572    -4202447.79649  -3267488.08047  21104462.425    21104470.201
  22108429.686    -5079990.32649  -3951055.83647  22108429.173    22108436.376
 03  4  9 18 30  0.0000000  0  6G24G17G 5G30G10G 6
  22532789.425     3890977.01749   3016528.87646  22532788.855    22532796.373
  24081928.812    -4936677.71149  -3834454.81445  24081927.949    24081939.137
  20800468.331     1520827.26149   1080190.74048  20800467.486    20800474.467
  20291826.873    -3108334.54949  -2417049.05148  20291826.831    20291832.604
  21098378.843    -4234423.21849  -3292403.94647  21098377.687    21098385.464
  22096745.009    -5141393.50349  -3998902.41647  22096744.502    22096751.691
 03  4  9 18 30 30.0000000  0  6G24G17G 5G30G10G 6
  22548039.949     3971118.91849   3078977.09346  22548039.397    22548046.916
  24065773.967    -5021571.31349  -3900605.55245  24065773.052    24065784.291
  20810957.345     1575947.11949   1123141.25948  20810956.495    20810963.466
  20289031.104    -3123026.44449  -2428497.26748  20289031.046    20289036.823
  21092408.778    -4265795.91949  -3316850.15047  21092407.640    21092415.394
  22085077.947    -5202704.20249  -4046676.93947  22085077.439    22085084.618
 03  4  9 18 31  0.0000000  0  6G24G17G 5G30G10G 6
  22563312.658     4051377.48149   3141516.21646  22563312.124    22563319.640
  24049652.694    -5106288.33649  -3966618.69445  24049651.813    24049663.036
  20821537.779     1631547.47549   1166466.19248  20821536.930    20821543.904
  20286344.298    -3137145.57749  -2439499.17248  20286344.246    20286350.007
  21086553.701    -4296564.58049  -3340825.67747  21086552.534    21086560.273
  22073428.614    -5263921.75949  -4094378.88947  22073428.094    22073435.266
 03  4  9 18 31 30.0000000  0  6G24G17G 5G30G10G 6
  22578607.369     4131751.58449   3204145.37946  22578606.826    22578614.354
  24033565.284    -5190827.45149  -4032493.19945  24033564.480    24033575.671
  20832209.384     1687627.22449   1210164.67147  20832208.532    20832215.510
  20283766.733    -3150690.77649  -2450053.86048  20283766.690    20283772.433
  21080813.891    -4326727.33549  -3364329.07847  21080812.737    21080820.442
  22061797.194    -5325044.91949  -4142007.26747  22061796.706    22061803.847
 03  4  9 18 32  0.0000000  0  6G24G17G 5G30G10G 6
  22593923.565     4212238.65449   3266862.55546  22593923.042    22593930.568
  24017511.817    -5275188.52049  -4098228.96945  24017510.983    24017522.135
  20842971.870     1744184.39849   1254235.17247  20842971.021    20842978.050
  20281298.453    -3163661.70649  -2460161.06748  20281298.409    20281304.155
  21075189.499    -4356283.54549  -3387359.83647  21075188.351    21075196.004
  22050183.809    -5386073.57449  -4189562.00747  22050183.346    22050190.461
 03  4  9 18 32 30.0000000  0  6G24G17G 5G30G10G 6
  22609260.865     4292836.81649   3329666.30446  22609260.365    22609267.912
  24001492.342    -5359371.02549  -4163825.59145  24001491.573    24001502.607
  20853824.856     1801217.44249   1298676.48647  20853824.028    20853831.096
  20278939.606    -3176057.41149  -2469820.04648  20278939.562    20278945.323
  21069680.850    -4385231.54649  -3409916.67147  21069679.714    21069687.345
  22038588.544    -5447007.02449  -4237042.55947  22038588.063    22038595.135
 03  4  9 18 33  0.0000000  0  6G24G17G 5G30G10G 6
  22624618.991     4373544.21449   3392555.17446  22624618.472    22624626.079
  23985507.131    -5443373.74949  -4229282.14045  23985506.350    23985517.363
  20864768.190     1858724.99349   1343487.54547  20864767.352    20864774.449
  20276690.378    -3187877.18049  -2479030.24348  20276690.329    20276696.115
  21064288.158    -4413570.13649  -3431998.64347  21064287.018    21064294.634
  22027011.522    -5507844.45649  -4284448.29347  22027011.047    22027018.089
 03  4  9 18 33 30.0000000  0  6G24G17G 5G30G10G 6
  22639997.600     4454359.29449   3455527.94746  22639997.076    22640004.672
  23969556.192    -5527196.05049  -4294598.08845  23969555.363    23969566.370
  20875801.624     1916705.78549   1388667.36647  20875800.764    20875807.890
  20274550.986    -3199119.67849  -2487790.62248  20274550.940    20274556.712
  21059011.721    -4441297.75549  -3453604.54147  21059010.580    21059018.183
  22015453.022    -5568584.68749  -4331778.29147  22015452.519    22015459.553
 03  4  9 18 34  0.0000000  0  6G24G17G 5G30G10G 6
  22655396.434     4535280.58449   3518583.47946  22655395.926    22655403.518
  23953639.889    -5610836.85849  -4359772.61545  23953639.061    23953649.927
  20886924.850     1975158.67749   1434215.05047  20886924.013    20886931.136
  20272521.662    -3209783.78749  -2496100.30648  20272521.625    20272527.383
  21053851.893    -4468412.80849  -3474733.10747  21053850.742    21053858.349
  22003913.207    -5629226.67049  -4379031.73647  22003912.708    22003919.732
 03  4  9 18 34 30.0000000  0  6G24G17G 5G30G10G 6
  22670815.062     4616306.11649   3581720.24146  22670814.562    22670822.166
  23937758.150    -5694295.46049  -4424805.16245  23937757.356    23937768.143
  20898137.603     2034082.01949   1480129.32447  20898136.751    20898143.879
  20270602.512    -3219869.01149  -2503958.91148  20270602.464    20270608.222
  21048808.745    -4494914.39549  -3495383.63947  21048807.614    21048815.218
  21992392.138    -5689769.91649  -4426208.23747  21992391.654    21992398.683
 03  4  9 18 35  0.0000000  0  6G24G17G 5G30G10G 6
  22686253.280     4697434.33549   3644937.00746  22686252.774    22686260.392
  23921911.315    -5777570.60749  -4489694.74445  23921910.526    23921921.325
  20909439.568     2093474.13849   1526408.87547  20909438.727    20909445.859
  20268793.666    -3229374.50049  -2511365.77448  20268793.636    20268799.373
  21043882.603    -4520801.30949  -3515555.19847  21043881.474    21043889.067
  21980890.050    -5750213.55549  -4473307.13347  21980889.577    21980896.609
 03  4  9 18 35 30.0000000  0  6G24G17G 5G30G10G 6
  22701710.726     4778663.56949   3708232.50146  22701710.223    22701717.830
  23906099.486    -5860661.74749  -4554440.94945  23906098.633    23906109.500
  20920830.461     2153333.55949   1573052.56347  20920829.621    20920836.752
  20267095.355    -3238299.33349  -2518320.17948  20267095.332    20267101.060
  21039073.619    -4546072.48849  -3535246.98947  21039072.523    21039080.092
  21969407.123    -5810556.62549  -4520327.65647  21969406.626    21969413.665
 03  4  9 18 36  0.0000000  0  6G24G17G 5G30G10G 6
  22717186.881     4859991.31349   3771604.74046  22717186.399    22717194.002
  23890322.705    -5943568.70349  -4619043.62645  23890321.845    23890332.670
  20932309.862     2213658.10049   1620058.68147  20932309.024    20932316.161
  20265507.506    -3246643.54749  -2524822.15348  20265507.471    20265513.198
  21034382.010    -4570726.99949  -3554458.24747  21034380.871    21034388.454
  21957943.379    -5870798.88149  -4567269.62347  21957942.863    21957949.900
 03  4  9 18 36 30.0000000  0  6G24G17G 5G30G10G 6
  22732681.707     4941416.90449   3835053.22846  22732681.192    22732688.808
  23874581.319    -6026289.84849  -4683501.51145  23874580.482    23874591.243
  20943877.685     2274447.27849   1667426.85347  20943876.836    20943883.986
  20264030.496    -3254405.31049  -2530870.27248  20264030.444    20264036.172
  21029808.089    -4594762.78949  -3573187.38547  21029806.968    21029814.548
  21946499.148    -5930938.55549  -4614131.65547  21946498.645    21946505.659
 03  4  9 18 37  0.0000000  0  6G24G17G 5G30G10G 6
  22748194.532     5022937.29949   3898575.57546  22748194.023    22748201.629
  23858875.253    -6108825.24449  -4747814.64745  23858874.425    23858885.208
  20955533.377     2335698.29949   1715154.90047  20955532.537    20955539.692
  20262664.188    -3261585.22949  -2536465.00748  20262664.149    20262669.872
  21025352.014    -4618179.68749  -3591434.27447  21025350.863    21025358.427
  21935074.423    -5990975.86849  -4660913.92347  21935073.914    21935080.902
 03  4  9 18 37 30.0000000  0  6G24G17G 5G30G10G 6
  22763725.237     5104551.53049   3962171.05546  22763724.722    22763732.309
  23843204.789    -6191173.69649  -4811982.13045  23843203.954    23843214.623
  20967276.794     2397410.26349   1763242.12147  20967275.967    20967283.093
  20261408.885    -3268181.90049  -2541605.26348  20261408.838    20261414.562
  21021013.941    -4640976.18749  -3609197.74147  21021012.816    21021020.380
  21923669.392    -6050909.43149  -4707615.34847  21923668.900    21923675.890
 03  4  9 18 38  0.0000000  0  6G24G17G 5G30G10G 6
  22779273.429     5186257.83849   4025838.28246  22779272.917    22779280.508
  23827570.037    -6273334.42249  -4876003.31245  23827569.187    23827579.847
  20979107.639     2459581.59949   1811687.29947  20979106.797    20979113.933
  20260264.683    -3274194.66549  -2546290.52448  20260264.641    20260270.353
  21016794.087    -4663151.60349  -3626477.24247  21016792.937    21016800.481
  21912284.321    -6110738.31249  -4754235.19547  21912283.811    21912290.773
 03  4  9 18 38 30.0000000  0  6G24G17G 5G30G10G 6
  22794838.773     5268054.02649   4089575.54546  22794838.242    22794845.847
  23811970.918    -6355307.74449  -4939878.47545  23811970.047    23811980.683
  20991025.470     2522210.11849   1860488.72547  20991024.636    20991031.773
  20259231.619    -3279623.56149  -2550520.82348  20259231.566    20259237.284
  21012692.486    -4684705.15149  -3643272.17047  21012691.387    21012698.932
  21900919.198    -6170462.28649  -4800773.29247  21900918.690    21900925.633
 03  4  9 18 39  0.0000000  0  6G24G17G 5G30G10G 6
  22810421.055     5349939.28949   4153382.21446  22810420.494    22810428.143
  23796407.927    -6437091.38849  -5003605.83645  23796407.091    23796417.619
  21003030.188     2585295.08749   1909645.82047  21003029.345    21003036.485
  20258309.940    -3284466.94649  -2554294.88048  20258309.894    20258315.609
  21008709.735    -4705634.79149  -3659580.94547  21008708.584    21008716.103
  21889574.392    -6230079.41149  -4847228.14047  21889573.903    21889580.813
 03  4  9 18 39 30.0000000  0  6G24G17G 5G30G10G 6
  22826019.892     5431911.59649   4217256.71646  22826019.326    22826026.966
  23780880.954    -6518685.53749  -5067185.53445  23780880.149    23780890.610
  21015121.253     2648834.04249   1959156.67747  21015120.415    21015127.564
  20257499.704    -3288724.89749  -2557612.75548  20257499.665    20257505.364
  21004845.705    -4725940.13949  -3675403.26047  21004844.589    21004852.094
  21878249.973    -6289589.44049  -4893599.53447  21878249.483    21878256.384
 03  4  9 18 40  0.0000000  0  6G24G17G 5G30G10G 6
  22841635.017     5513969.43349   4281197.84446  22841634.495    22841642.098
  23765390.306    -6600088.93849  -5130616.60645  23765389.444    23765399.874
  21027298.504     2712825.74449   2009020.31747  21027297.665    21027304.820
  20256801.023    -3292396.51549  -2560473.74748  20256800.988    20256806.696
  21001100.788    -4745619.93949  -3690738.13447  21001099.631    21001107.138
  21866946.152    -6348991.16249  -4939886.53447  21866945.669    21866952.544
 03  4  9 18 40 30.0000000  0  6G24G17G 5G30G10G 6
  22857265.982     5596110.71349   4345204.00846  22857265.474    22857273.061
  23749936.013    -6681301.09749  -5193898.64945  23749935.212    23749945.628
  21039561.547     2777268.28149   2059235.25847  21039560.695    21039567.868
  20256213.945    -3295481.56249  -2562877.67148  20256213.885    20256219.588
  20997474.912    -4764673.78449  -3705585.26947  20997473.772    20997481.259
  21855663.076    -6408283.94749  -4986088.65147  21855662.590    21855669.453
 03  4  9 18 41  0.0000000  0  6G24G17G 5G30G10G 6
  22872912.439     5678333.20249   4409273.45146  22872911.913    22872919.530
  23734518.191    -6762321.99149  -5257031.67345  23734517.336    23734527.798
  21051909.881     2842159.18849   2109799.57747  21051909.027    21051916.190
  20255738.476    -3297980.15549  -2564824.61948  20255738.424    20255744.122
  20993968.233    -4783101.26649  -3719944.30447  20993967.099    20993974.589
  21844400.772    -6467467.57549  -5032205.71747  21844400.306    21844407.129
 03  4  9 18 41 30.0000000  0  6G24G17G 5G30G10G 6
  22888574.210     5760636.30449   4473405.69246  22888573.680    22888581.330
  23719136.985    -6843150.18149  -5320014.54545  23719136.084    23719146.614
  21064343.412     2907497.74949   2160712.71847  21064342.569    21064349.738
  20255374.850    -3299891.01349  -2566313.59448  20255374.806    20255380.500
  20990581.068    -4800900.83949  -3733814.06947  20990579.944    20990587.410
  21833159.598    -6526540.17949  -5078236.26347  21833159.119    21833165.949
 03  4  9 18 42  0.0000000  0  6G24G17G 5G30G10G 6
  22904250.976     5843018.06849   4537599.25946  22904250.478    22904258.119
  23703792.572    -6923785.19549  -5382846.89245  23703791.646    23703802.127
  21076861.727     2973281.83149   2211973.02147  21076860.883    21076868.061
  20255123.083    -3301213.97949  -2567344.47048  20255123.060    20255128.739
  20987313.509    -4818071.97049  -3747194.14947  20987312.396    20987319.845
  21821939.688    -6585501.07749  -5124179.77447  21821939.216    21821946.018
 03  4  9 18 42 30.0000000  0  6G24G17G 5G30G10G 6
  22919942.349     5925476.74149   4601852.74346  22919941.875    22919949.493
  23688485.054    -7004226.03549  -5445527.92945  23688484.194    23688494.571
  21089464.472     3039509.51049   2263578.97847  21089463.638    21089470.791
  20254983.268    -3301948.83549  -2567917.07948  20254983.247    20254988.931
  20984165.705    -4834613.85549  -3760083.90547  20984164.565    20984171.984
  21810741.162    -6644349.62749  -5170035.73247  21810740.679    21810747.459
 03  4  9 18 43  0.0000000  0  6G24G17G 5G30G10G 6
  22935647.963     6008010.20649   4666164.49846  22935647.472    22935655.132
  23673214.433    -7084473.12949  -5508058.00345  23673213.675    23673223.942
  21102151.245     3106178.73049   2315528.99747  21102150.405    21102157.558
  20254955.371    -3302095.36049  -2568031.24748  20254955.326    20254961.026
  20981137.650    -4850526.01049  -3772482.96747  20981136.531    20981143.951
  21799564.138    -6703085.09249  -5215803.57747  21799563.666    21799570.403
 03  4  9 18 43 30.0000000  0  6G24G17G 5G30G10G 6
  22951367.562     6090617.04749   4730533.43246  22951367.049    22951374.754
  23657980.972    -7164524.88949  -5570435.86146  23657980.201    23657990.486
  21114921.771     3173288.18249   2367822.05347  21114920.944    21114928.103
  20255039.630    -3301652.57649  -2567686.21448  20255039.608    20255045.276
  20978229.673    -4865807.46949  -3784390.58247  20978228.575    20978235.970
  21788408.922    -6761705.97549  -5261482.13447  21788408.449    21788415.198
 03  4  9 18 44  0.0000000  0  6G24G17G 5G30G10G 6
  22967100.850     6173296.09749   4794958.62646  22967100.387    22967108.078
  23642784.818    -7244380.52349  -5632660.90746  23642784.061    23642794.334
  21127775.672     3240835.82549   2420456.55847  21127774.846    21127782.003
  20255236.007    -3300620.55049  -2566882.03548  20255235.972    20255241.658
  20975441.909    -4880457.24549  -3795805.95947  20975440.775    20975448.173
  21777275.659    -6820211.53949  -5307070.83847  21777275.186    21777281.908
 03  4  9 18 44 30.0000000  0  6G24G17G 5G30G10G 6
  22982847.556     6256045.41549   4859438.58846  22982847.086    22982854.778
  23627626.004    -7324040.04449  -5694733.13546  23627625.216    23627635.439
  21140712.625     3308819.85949   2473431.10747  21140711.800    21140718.958
  20255544.658    -3298998.68649  -2565618.24048  20255544.618    20255550.313
  20972774.430    -4894475.13349  -3806728.94947  20972773.251    20972780.639
  21766164.464    -6878600.89049  -5352568.98847  21766163.998    21766170.712
 03  4  9 18 45  0.0000000  0  6G24G17G 5G30G10G 6
  22998607.380     6338863.75149   4923972.32246  22998606.936    22998614.614
  23612504.732    -7403502.51449  -5756651.81246  23612503.924    23612514.166
  21153732.237     3377238.29849   2526744.14947  21153731.406    21153738.570
  20255965.534    -3296786.96849  -2563894.82048  20255965.497    20255971.179
  20970227.304    -4907860.26849  -3817158.89547  20970226.144    20970233.512
  21755075.595    -6936873.14849  -5397975.89547  21755075.135    21755081.815
 03  4  9 18 45 30.0000000  0  6G24G17G 5G30G10G 6
  23014379.925     6421748.82349   4988558.05446  23014379.467    23014387.165
  23597421.009    -7482767.43249  -5818416.55946  23597420.176    23597430.373
  21166834.171     3446089.23349   2580394.20947  21166833.346    21166840.507
  20256498.688    -3293985.21149  -2561711.62548  20256498.658    20256504.339
  20967800.559    -4920612.33449  -3827095.54747  20967799.465    20967806.844
  21744009.147    -6995027.57549  -5443290.98647  21744008.686    21744015.368
 03  4  9 18 46  0.0000000  0  6G24G17G 5G30G10G 6
  23030164.931     6504699.39749   5053194.84746  23030164.458    23030172.176
  23582375.026    -7561834.27649  -5880026.96446  23582374.232    23582384.339
  21180018.063     3515370.86149   2634379.86947  21180017.239    21180024.399
  20257144.228    -3290592.88449  -2559068.24848  20257144.201    20257149.884
  20965494.574    -4932730.41049  -3836538.17747  20965493.471    20965500.865
  21732965.375    -7053062.86549  -5488513.25047  21732964.902    21732971.566
 03  4  9 18 46 30.0000000  0  6G24G17G 5G30G10G 6
  23045962.211     6587714.35849   5117881.78346  23045961.693    23045969.422
  23567366.928    -7640702.00649  -5941482.22946  23567366.052    23567376.167
  21193283.530     3585081.35449   2688699.70947  21193282.706    21193289.871
  20257902.178    -3286609.80849  -2555964.54948  20257902.146    20257907.815
  20963309.373    -4944213.93249  -3845486.35047  20963308.194    20963315.590
  21721944.487    -7110977.93449  -5533641.82847  21721944.001    21721950.665
 03  4  9 18 47  0.0000000  0  6G24G17G 5G30G10G 6
  23061771.286     6670791.31149   5182617.02746  23061770.758    23061778.490
  23552396.690    -7719370.74949  -6002782.42046  23552395.786    23552405.847
  21206630.315     3655218.89149   2743352.31047  21206629.476    21206636.657
  20258772.560    -3282035.88049  -2552400.44348  20258772.514    20258778.206
  20961244.970    -4955062.37449  -3853939.65047  20961243.803    20961251.174
  21710946.581    -7168772.06349  -5578676.17047  21710946.105    21710952.742
 03  4  9 18 47 30.0000000  0  6G24G17G 5G30G10G 6
  23077591.941     6753929.28849   5247399.81946  23077591.426    23077599.137
  23537464.537    -7797839.14049  -6063926.49246  23537463.623    23537473.666
  21220058.004     3725781.72249   2798336.30447  21220057.140    21220064.324
  20259755.477    -3276870.58149  -2548375.53048  20259755.443    20259761.124
  20959301.428    -4965275.26849  -3861897.71147  20959300.328    20959307.700
  21699971.954    -7226444.07649  -5623615.36047  21699971.482    21699978.098
 03  4  9 18 48  0.0000000  0  6G24G17G 5G30G10G 6
  23093423.983     6837126.99549   5312229.17646  23093423.496    23093431.185
  23522570.681    -7876106.42649  -6124913.86646  23522569.794    23522579.785
  21233566.227     3796767.74849   2853650.05847  21233565.378    21233572.560
  20260850.910    -3271114.10749  -2543889.95948  20260850.885    20260856.539
  20957478.936    -4974852.23649  -3869360.25047  20957477.880    20957485.263
  21689020.718    -7283992.98849  -5668458.61847  21689020.254    21689026.856
 03  4  9 18 48 30.0000000  0  6G24G17G 5G30G10G 6
  23109266.972     6920382.31749   5377103.41546  23109266.438    23109274.176
  23507715.101    -7954172.63649  -6185744.56146  23507714.228    23507724.126
  21247154.569     3868174.89949   2909291.95947  21247153.711    21247160.909
  20262058.887    -3264766.29549  -2538943.61148  20262058.858    20262064.522
  20955777.585    -4983792.96349  -3876327.02247  20955776.488    20955783.865
  21678093.117    -7341417.82849  -5713205.20447  21678092.629    21678099.254
 03  4  9 18 49  0.0000000  0  6G24G17G 5G30G10G 6
  23125120.718     7003693.87849   5442021.48446  23125120.183    23125127.964
  23492897.869    -8032037.26349  -6246418.17646  23492897.025    23492906.861
  21260822.676     3940001.18549   2965260.45947  21260821.819    21260829.014
  20263379.353    -3257827.21849  -2533536.53148  20263379.324    20263384.980
  20954197.412    -4992097.10649  -3882797.75647  20954196.242    20954203.607
  21667189.292    -7398717.68649  -5757854.40347  21667188.847    21667195.419
 03  4  9 18 49 30.0000000  0  6G24G17G 5G30G10G 6
  23140984.841     7087060.24649   5506982.23746  23140984.319    23140992.080
  23478119.199    -8109699.26249  -6306933.90646  23478118.377    23478128.183
  21274570.167     4012244.67949   3021554.05547  21274569.322    21274576.519
  20264812.385    -3250296.53149  -2527668.45848  20264812.342    20264818.013
  20952738.454    -4999764.23749  -3888772.11347  20952737.252    20952744.594
  21656309.474    -7455891.41149  -5802405.31647  21656309.019    21656315.593
 03  4  9 18 50  0.0000000  0  6G24G17G 5G30G10G 6
  23156859.044     7170479.59149   5571984.29046  23156858.530    23156866.286
  23463379.097    -8187158.48949  -6367291.63346  23463378.331    23463388.094
  21288396.677     4084903.22649   3078171.06447  21288395.830    21288403.053
  20266357.941    -3242174.60649  -2521339.68148  20266357.902    20266363.567
  20951400.658    -5006794.15149  -3894249.93147  20951399.478    20951406.829
  21645453.800    -7512938.29749  -5846857.39447  21645453.324    21645459.885
 03  4  9 18 50 30.0000000  0  6G24G17G 5G30G10G 6
  23172743.093     7253950.72049   5637026.67846  23172742.584    23172750.367
  23448677.671    -8264414.64749  -6427491.12746  23448676.879    23448686.627
  21302301.772     4157974.89549   3135109.98447  21302300.944    21302308.167
  20268016.055    -3233461.17349  -2514549.98748  20268016.014    20268021.673
  20950184.168    -5013186.42549  -3899230.89047  20950183.050    20950190.397
  21634622.433    -7569857.19649  -5891209.74447  21634621.963    21634628.511
 03  4  9 18 51  0.0000000  0  6G24G17G 5G30G10G 6
  23188636.793     7337472.52749   5702108.55146  23188636.331    23188644.044
  23434015.060    -8341466.76849  -6487531.63646  23434014.250    23434024.026
  21316285.204     4231458.19749   3192369.66047  21316284.363    21316291.611
  20269786.795    -3224155.88849  -2507299.11248  20269786.749    20269792.431
  20949089.207    -5018940.27949  -3903714.38447  20949088.098    20949095.442
  21623815.776    -7626646.51649  -5935461.12347  21623815.294    21623821.834
 03  4  9 18 51 30.0000000  0  6G24G17G 5G30G10G 6
  23204539.760     7421043.04849   5767228.40146  23204539.332    23204547.044
  23419391.446    -8418313.79949  -6547412.32946  23419390.633    23419400.419
  21330346.512     4305350.71949   3249948.20347  21330345.669    21330352.930
  20271670.115    -3214258.86849  -2499587.14648  20271670.075    20271675.755
  20948115.738    -5024055.67249  -3907700.37747  20948114.672    20948121.996
  21613033.898    -7683305.51049  -5979610.95347  21613033.419    21613039.944
 03  4  9 18 52  0.0000000  0  6G24G17G 5G30G10G 6
  23220451.669     7504660.32449   5832384.65646  23220451.216    23220458.914
  23404806.808    -8494956.26649  -6607133.62546  23404806.000    23404815.721
  21344485.242     4379650.05249   3307843.73947  21344484.401    21344491.659
  20273665.932    -3203770.83149  -2491414.64548  20273665.913    20273671.591
  20947263.697    -5028532.95149  -3911189.13947  20947262.662    20947269.964
  21602276.936    -7739833.60449  -6023658.78147  21602276.465    21602282.969
 03  4  9 18 52 30.0000000  0  6G24G17G 5G30G10G 6
  23236372.365     7588323.82549   5897576.94746  23236371.874    23236379.606
  23390261.338    -8571392.66549  -6666694.35846  23390260.540    23390270.213
  21358701.102     4454354.58649   3366055.02047  21358700.259    21358707.530
  20275774.316    -3192691.17749  -2482781.14348  20275774.284    20275779.962
  20946533.212    -5032371.43649  -3914180.13347  20946532.178    20946539.474
  21591545.204    -7796229.12849  -6067603.30647  21591544.725    21591551.217
 03  4  9 18 53  0.0000000  0  6G24G17G 5G30G10G 6
  23252301.464     7672031.52249   5962803.68346  23252300.958    23252308.697
  23375755.141    -8647622.90049  -6726094.44146  23375754.313    23375763.991
  21372993.572     4529461.85249   3424580.11547  21372992.725    21373000.010
  20277995.189    -3181020.50149  -2473687.10648  20277995.146    20278000.835
  20945924.297    -5035571.25449  -3916673.46947  20945923.259    20945930.535
  21580838.813    -7852491.47849  -6111444.06447  21580838.337    21580844.824
 03  4  9 18 53 30.0000000  0  6G24G17G 5G30G10G 6
  23268238.653     7755781.78349   6028063.57046  23268238.174    23268245.936
  23361288.135    -8723647.21849  -6785334.07546  23361287.317    23361296.986
  21387362.270     4604969.59649   3483417.26947  21387361.428    21387368.710
  20280328.483    -3168759.00049  -2464132.68748  20280328.441    20280334.121
  20945436.927    -5038132.50249  -3918669.21247  20945435.877    20945443.135
  21570157.931    -7908619.81649  -6155180.39247  21570157.441    21570163.924
 03  4  9 18 54  0.0000000  0  6G24G17G 5G30G10G 6
  23284183.802     7839573.84149   6093356.02346  23284183.315    23284191.052
  23346860.564    -8799464.29249  -6844412.22146  23346859.735    23346869.375
  21401806.873     4680876.27449   3542565.28147  21401806.028    21401813.330
  20282774.231    -3155906.43949  -2454117.70148  20282774.188    20282779.879
  20945071.243    -5040054.29549  -3920166.67747  20945070.140    20945077.386
  21559502.860    -7964612.38749  -6198810.93247  21559502.397    21559508.861
 03  4  9 18 54 30.0000000  0  6G24G17G 5G30G10G 6
  23300136.596     7923406.11949   6158679.81246  23300136.131    23300143.905
  23332472.542    -8875073.52049  -6903328.41746  23332471.716    23332481.291
  21416327.010     4757179.81449   3602022.53147  21416326.166    21416333.459
  20285332.461    -3142462.89849  -2443642.21548  20285332.426    20285338.122
  20944827.216    -5041336.88049  -3921166.06047  20944826.069    20944833.299
  21548873.855    -8020468.10649  -6242334.83547  21548873.365    21548879.847
 03  4  9 18 55  0.0000000  0  6G24G17G 5G30G10G 6
  23316096.680     8007276.78749   6224033.52846  23316096.203    23316104.056
  23318124.007    -8950475.19149  -6962082.85346  23318123.139    23318132.719
  21430922.148     4833877.65949   3661787.03347  21430921.312    21430928.620
  20288003.002    -3128429.01349  -2432706.72048  20288002.968    20288008.652
  20944704.707    -5041980.72449  -3921667.72247  20944703.504    20944710.729
  21538270.988    -8076186.37949  -6285751.63947  21538270.506    21538276.973
 03  4  9 18 55 30.0000000  0  6G24G17G 5G30G10G 6
  23332063.936     8091185.06849   6289416.55246  23332063.449    23332071.338
  23303815.283    -9025667.73649  -7020674.35146  23303814.455    23303823.981
  21445592.135     4910968.65449   3721857.88647  21445591.296    21445598.606
  20290786.012    -3113804.23849  -2421310.79248  20290785.971    20290791.648
  20944703.926    -5041984.92649  -3921670.97147  20944702.684    20944709.907
  21527694.647    -8131765.27249  -6329059.83547  21527694.177    21527700.612
 03  4  9 18 56  0.0000000  0  6G24G17G 5G30G10G 6
  23348037.960     8175128.86349   6354827.23946  23348037.469    23348045.364
  23289546.208    -9100651.79149  -7079103.39046  23289545.333    23289554.823
  21460336.333     4988449.81849   3782232.76647  21460335.489    21460342.808
  20293681.251    -3098589.68449  -2409455.29348  20293681.237    20293686.899
  20944824.691    -5041350.21249  -3921176.35547  20944823.461    20944830.689
  21517144.893    -8187204.55449  -6372259.24747  21517144.421    21517150.846
 03  4  9 18 56 30.0000000  0  6G24G17G 5G30G10G 6
  23364018.562     8259107.02049   6420264.69846  23364018.007    23364025.953
  23275317.102    -9175426.01749  -7137368.91846  23275316.234    23275325.677
  21475154.457     5066319.26449   3842910.20047  21475153.600    21475160.949
  20296688.775    -3082785.09449  -2397140.03248  20296688.745    20296694.407
  20945067.105    -5040076.11249  -3920183.51647  20945065.893    20945073.110
  21506622.005    -8242502.60649  -6415348.61347  21506621.536    21506627.961
 03  4  9 18 57  0.0000000  0  6G24G17G 5G30G10G 6
  23380005.428     8343118.29749   6485727.97746  23380004.919    23380012.805
  23261127.939    -9249990.22849  -7195470.79646  23261127.117    23261136.466
  21490046.001     5144574.57149   3903888.30847  21490045.161    21490052.503
  20299808.477    -3066391.08149  -2384365.47948  20299808.445    20299814.105
  20945431.114    -5038162.96549  -3918692.72047  20945429.921    20945437.127
  21496126.147    -8297658.61949  -6458327.29447  21496125.692    21496132.090
 03  4  9 18 57 30.0000000  0  6G24G17G 5G30G10G 6
  23395998.417     8427161.76649   6551216.33646  23395997.898    23396005.781
  23246978.825    -9324344.02849  -7253408.70846  23246978.012    23246987.348
  21505010.639     5223214.12149   3965165.82047  21505009.811    21505017.166
  20303040.315    -3049407.57449  -2371131.58048  20303040.288    20303045.941
  20945916.793    -5035610.52549  -3916703.78147  20945915.614    20945922.793
  21485657.640    -8352670.96749  -6501194.03047  21485657.149    21485663.550
 03  4  9 18 58  0.0000000  0  6G24G17G 5G30G10G 6
  23411997.111     8511235.31249   6616728.12546  23411996.593    23412004.501
  23232869.735    -9398487.33249  -7311182.59146  23232868.910    23232878.232
  21520047.819     5302234.88049   4026740.37947  21520046.981    21520054.356
  20306384.153    -3031835.69749  -2357439.20848  20306384.113    20306389.767
  20946523.920    -5032419.95349  -3914217.58447  20946522.744    20946529.926
  21475216.517    -8407539.26849  -6543948.52747  21475216.027    21475222.436
 03  4  9 18 58 30.0000000  0  6G24G17G 5G30G10G 6
  23428001.319     8595337.87649   6682262.51446  23428000.813    23428008.756
  23218800.864    -9472419.21549  -7368791.73446  23218800.010    23218809.318
  21535157.223     5381635.17749   4088610.67747  21535156.381    21535163.769
  20309840.028    -3013675.12349  -2343288.11548  20309839.980    20309845.632
  20947252.540    -5028590.66749  -3911233.69347  20947251.420    20947258.597
  21464803.156    -8462261.81549  -6586589.44247  21464802.676    21464809.071
 03  4  9 18 59  0.0000000  0  6G24G17G 5G30G10G 6
  23444010.787     8679467.96449   6747818.35946  23444010.290    23444018.234
  23204772.354    -9546139.19149  -7426235.76346  23204771.481    23204780.797
  21550338.499     5461412.91649   4150775.08847  21550337.662    21550345.052
  20313407.815    -2994926.29849  -2328678.64748  20313407.770    20313413.405
  20948102.748    -5024122.66149  -3907752.10847  20948101.621    20948108.807
  21454417.784    -8516837.32049  -6629115.78547  21454417.286    21454423.670
 03  4  9 18 59 30.0000000  0  6G24G17G 5G30G10G 6
  23460025.344     8763624.65249   6813394.94046  23460024.852    23460032.811
  23190784.231    -9619646.70749  -7483514.22746  23190783.375    23190792.707
  21565591.172     5541566.03049   4213231.99947  21565590.312    21565597.746
  20317087.487    -2975589.59649  -2313611.09348  20317087.433    20317093.072
  20949074.495    -5019016.03849  -3903772.88747  20949073.368    20949080.548
  21444060.587    -8571264.69049  -6671526.69747  21444060.106    21444066.461
 03  4  9 19  0  0.0000000  0  6G24G17G 5G30G10G 6
  23476044.559     8847805.82949   6878990.58846  23476044.083    23476052.017
  23176836.480    -9692942.20249  -7540627.48446  23176835.601    23176844.929
  21580914.630     5622091.16449   4275978.79347  21580913.794    21580921.227
  20320878.741    -2955666.38949  -2298086.52348  20320878.678    20320884.330
  20950167.479    -5013272.26949  -3899297.19647  20950166.352    20950173.522
  21433731.571    -8625543.86149  -6713822.12847  21433731.097    21433737.445
 03  4  9 19  0 30.0000000  0  6G24G17G 5G30G10G 6
  23492068.155     8932010.19549   6944604.32646  23492067.640    23492075.649
  23162929.181    -9766025.22649  -7597575.17846  23162928.318    23162937.575
  21596308.543     5702986.36749   4339013.95747  21596307.687    21596315.155
  20324781.559    -2935157.00949  -2282105.19248  20324781.507    20324787.162
  20951381.824    -5006890.92849  -3894324.69047  20951380.671    20951387.852
  21423431.094    -8679673.22249  -6756000.82347  21423430.618    21423436.971
 03  4  9 19  1  0.0000000  0  6G24G17G 5G30G10G 6
  23508096.055     9016237.33049   7010235.79846  23508095.584    23508103.603
  23149062.522    -9838894.51449  -7654356.33246  23149061.669    23149070.932
  21611772.559     5784250.21849   4402336.37447  21611771.712    21611779.193
  20328795.952    -2914061.06249  -2265666.80148  20328795.907    20328801.563
  20952717.483    -4999871.80249  -3888855.20947  20952716.326    20952723.499
  21413159.485    -8733650.78649  -6798061.24347  21413158.998    21413165.337
 03  4  9 19  1 30.0000000  0  6G24G17G 5G30G10G 6
  23524127.988     9100485.35749   7075883.53746  23524127.496    23524135.546
  23135236.478    -9911550.31349  -7710971.12046  23135235.660    23135244.889
  21627306.219     5865879.91049   4465943.86347  21627305.378    21627312.890
  20332921.810    -2892379.63649  -2248772.19248  20332921.771    20332927.426
  20954174.365    -4992215.65349  -3882889.34747  20954173.228    20954180.391
  21402916.886    -8787476.00249  -6840002.94147  21402916.389    21402922.714
 03  4  9 19  2  0.0000000  0  6G24G17G 5G30G10G 6
  23540163.723     9184753.28049   7141546.78146  23540163.194    23540171.329
  23121451.226    -9983991.79549  -7767418.92146  23121450.413    23121459.633
  21642909.174     5947873.77049   4529835.11847  21642908.336    21642915.845
  20337159.016    -2870112.97749  -2231421.55748  20337158.968    20337164.622
  20955752.485    -4983922.53349  -3876427.13947  20955751.355    20955758.495
  21392703.550    -8841147.20449  -6881824.62747  21392703.080    21392709.385
 03  4  9 19  2 30.0000000  0  6G24G17G 5G30G10G 6
  23556202.906     9269039.67149   7207224.41345  23556202.411    23556210.549
  23107706.776   -10056218.98549  -7823699.73146  23107705.968    23107715.131
  21658580.859     6030228.79149   4594007.79547  21658580.017    21658587.552
  20341507.451    -2847261.84749  -2213615.49248  20341507.407    20341513.071
  20957451.658    -4974993.33449  -3869469.28547  20957450.509    20957457.626
  21382519.726    -8894663.54649  -6923525.64347  21382519.270    21382525.563
 03  4  9 19  3  0.0000000  0  6G24G17G 5G30G10G 6
  23572245.490     9353343.59849   7272915.72245  23572244.954    23572253.097
  23094003.205   -10128231.35149  -7879813.15446  23094002.385    23094011.545
  21674320.921     6112943.07649   4658460.41847  21674320.070    21674327.623
  20345966.995    -2823826.84049  -2195354.45948  20345966.970    20345972.616
  20959271.792    -4965428.28349  -3862015.96247  20959270.659    20959277.771
  21372365.610    -8948023.67249  -6965104.93547  21372365.140    21372371.447
 03  4  9 19  3 30.0000000  0  6G24G17G 5G30G10G 6
  23588291.014     9437663.20249   7338619.24145  23588290.426    23588298.690
  23080340.521   -10200028.74049  -7935759.07746  23080339.713    23080348.849
  21690128.861     6196014.12849   4723191.03847  21690128.017    21690135.578
  20350537.488    -2799808.77649  -2176639.10148  20350537.446    20350543.122
  20961212.802    -4955228.01149  -3854067.66147  20961211.665    20961218.778
  21362241.412    -9001226.57049  -7006561.71347  21362240.938    21362247.241
 03  4  9 19  4  0.0000000  0  6G24G17G 5G30G10G 6
  23604339.344     9521997.35849   7404334.10345  23604338.746    23604346.962
  23066718.849   -10271610.80949  -7991537.22046  23066718.033    23066727.120
  21706004.252     6279439.66549   4788197.88547  21706003.416    21706011.008
  20355218.848    -2775208.04349  -2157469.71048  20355218.825    20355224.485
  20963274.630    -4944392.71449  -3845624.53547  20963273.538    20963280.635
  21352147.407    -9054270.96649  -7047894.98647  21352146.926    21352153.222
 03  4  9 19  4 30.0000000  0  6G24G17G 5G30G10G 6
  23620390.177     9606345.10949   7470059.56045  23620389.664    23620397.869
  23053138.390   -10342976.31849  -8047146.61546  23053137.565    23053146.606
  21721946.795     6363217.90549   4853479.56547  21721945.940    21721953.538
  20360011.023    -2750025.13349  -2137846.67948  20360010.988    20360016.657
  20965457.358    -4932922.67149  -3836686.80647  20965456.207    20965463.311
  21342083.882    -9107155.07449  -7089103.35547  21342083.403    21342089.685
 03  4  9 19  5  0.0000000  0  6G24G17G 5G30G10G 6
  23636443.338     9690704.77749   7535794.30845  23636442.801    23636450.980
  23039599.015   -10414125.82549  -8102587.69746  23039598.188    23039607.199
  21737955.844     6447345.70549   4919033.62647  21737954.997    21737962.602
  20364913.725    -2724261.36249  -2117771.02648  20364913.704    20364919.361
  20967760.567    -4920818.97749  -3827255.32247  20967759.422    20967766.510
  21332050.926    -9159878.54149  -7130186.55347  21332050.459    21332056.731
 03  4  9 19  5 30.0000000  0  6G24G17G 5G30G10G 6
  23652498.582     9775075.36049   7601537.53845  23652498.066    23652506.249
  23026100.836   -10485058.93249  -8157860.15946  23026100.003    23026108.993
  21754031.032     6531821.15649   4984858.58147  21754030.198    21754037.807
  20369926.881    -2697917.20249  -2097243.12648  20369926.853    20369932.507
  20970184.315    -4908081.98549  -3817330.36347  20970183.194    20970190.263
  21322048.849    -9212439.76549  -7171143.33247  21322048.383    21322054.634
 03  4  9 19  6  0.0000000  0  6G24G17G 5G30G10G 6
  23668555.700     9859455.89849   7667288.54945  23668555.239    23668563.366
  23012643.895   -10555775.38549  -8212963.80746  23012643.049    23012652.042
  21770171.946     6616641.94349   5050952.63047  21770171.104    21770178.731
  20375050.373    -2670993.10249  -2076263.32648  20375050.336    20375055.993
  20972728.451    -4894712.36549  -3806912.44647  20972727.303    20972734.358
  21312077.896    -9264837.36149  -7211972.60947  21312077.426    21312083.663
 03  4  9 19  6 30.0000000  0  6G24G17G 5G30G10G 6
  23684614.500     9943844.98049   7733046.21445  23684613.993    23684622.181
  22999228.241   -10626274.79349  -8267898.33646  22999227.406    22999236.408
  21786378.141     6701805.68349   5117313.91547  21786377.305    21786384.942
  20380284.045    -2643490.07749  -2054832.41948  20380284.013    20380289.668
  20975392.918    -4880710.51149  -3796001.88247  20975391.758    20975398.780
  21302138.354    -9317069.98849  -7252673.33747  21302137.887    21302144.112
 03  4  9 19  7  0.0000000  0  6G24G17G 5G30G10G 6
  23700674.604    10028241.46349   7798809.64545  23700674.145    23700682.326
  22985853.983   -10696556.56849  -8322663.28046  22985853.165    22985862.115
  21802649.186     6787310.24649   5183940.77647  21802648.340    21802655.984
  20385627.790    -2615408.61149  -2032950.77948  20385627.754    20385633.427
  20978177.546    -4866076.86749  -3784599.01747  20978176.431    20978183.453
  21292230.413    -9369136.42149  -7293244.56247  21292229.956    21292236.184
 03  4  9 19  7 30.0000000  0  6G24G17G 5G30G10G 6
  23716736.043    10112644.62549   7864578.29045  23716735.636    23716743.792
  22972521.237   -10766620.37449  -8377258.37146  22972520.425    22972529.378
  21818984.621     6873153.25749   5250831.36147  21818983.752    21818991.429
  20391081.440    -2586749.62549  -2010619.12148  20391081.398    20391087.074
  20981082.305    -4850812.30049  -3772704.52547  20981081.180    20981088.162
  21282354.339    -9421035.49049  -7333685.37847  21282353.873    21282360.091
 03  4  9 19  8  0.0000000  0  6G24G17G 5G30G10G 6
  23732798.418    10197052.72349   7930350.79145  23732798.036    23732806.193
  22959229.955   -10836466.17249  -8431683.59446  22959229.127    22959238.049
  21835383.931     6959331.77249   5317983.37147  21835383.069    21835390.735
  20396644.731    -2557514.35449  -1987838.41348  20396644.687    20396650.355
  20984106.921    -4834917.69349  -3760319.09847  20984105.796    20984112.759
  21272510.328    -9472766.06449  -7373994.89947  21272509.858    21272516.063
 03  4  9 19  8 30.0000000  0  6G24G17G 5G30G10G 6
  23748861.426    10281464.28749   7996125.96945  23748861.036    23748869.218
  22945980.287   -10906093.42349  -8485938.52146  22945979.439    22945988.344
  21851846.590     7045843.38049   5385394.94147  21851845.742    21851853.426
  20402317.545    -2527703.62049  -1964609.29548  20402317.509    20402323.183
  20987251.210    -4818394.12349  -3747443.56847  20987250.099    20987257.089
  21262698.581    -9524327.15449  -7414172.35547  21262698.110    21262704.306
 03  4  9 19  9  0.0000000  0  6G24G17G 5G30G10G 6
  23764925.010    10365878.50949   8061903.22945  23764924.614    23764932.778
  22932772.169   -10975502.14649  -8540023.17546  22932771.323    22932780.180
  21868372.216     7132685.96749   5453064.41347  21868371.371    21868379.076
  20408099.734    -2497318.17549  -1940932.35048  20408099.697    20408105.352
  20990515.198    -4801241.82949  -3734078.12847  20990514.069    20990521.053
  21252919.410    -9575716.98249  -7454216.35947  21252918.931    21252925.139
 03  4  9 19  9 30.0000000  0  6G24G17G 5G30G10G 6
  23780988.906    10450294.57849   8127681.92345  23780988.494    23780996.678
  22919605.676   -11044692.12149  -8593937.37346  22919604.858    22919613.661
  21884960.429     7219857.16049   5520989.94047  21884959.558    21884967.301
  20413991.110    -2466358.85049  -1916808.22748  20413991.068    20413996.759
  20993898.625    -4783461.61349  -3720223.40147  20993897.507    20993904.464
  21243173.061    -9626934.31049  -7494125.95147  21243172.578    21243178.772
 03  4  9 19 10  0.0000000  0  6G24G17G 5G30G10G 6
  23797052.962    10534711.24149   8193461.08345  23797052.463    23797060.721
  22906480.917   -11113662.90349  -8647680.77146  22906480.104    22906488.870
  21901610.646     7307354.36849   5589169.50147  21901609.781    21901617.531
  20419991.494    -2434826.73849  -1892237.77748  20419991.454    20419997.141
  20997401.428    -4765054.42049  -3705880.12447  20997400.302    20997407.255
  21233459.737    -9677978.07349  -7533900.29547  21233459.242    21233465.468
 03  4  9 19 10 30.0000000  0  6G24G17G 5G30G10G 6
  23813116.785    10619127.06549   8259239.60145  23813116.333    23813124.559
  22893397.909   -11182414.32449  -8701253.24846  22893397.081    22893405.877
  21918322.508     7395175.41149   5657601.40447  21918321.632    21918329.416
  20426100.723    -2402722.69849  -1867221.67048  20426100.685    20426106.382
  21001023.347    -4746020.91049  -3691048.81347  21001022.255    21001029.192
  21223779.728    -9728846.82949  -7573538.27147  21223779.223    21223785.454
 03  4  9 19 11  0.0000000  0  6G24G17G 5G30G10G 6
  23829180.309    10703541.13649   8325016.73245  23829179.862    23829188.123
  22880356.777   -11250945.62949  -8754654.20146  22880355.939    22880364.736
  21935095.547     7483317.95549   5726283.82847  21935094.680    21935102.478
  20432318.586    -2370047.71849  -1841760.67548  20432318.530    20432324.232
  21004764.333    -4726362.08549  -3675730.23847  21004763.185    21004770.135
  21214133.287    -9779539.11249  -7613038.73647  21214132.801    21214139.016
 03  4  9 19 11 30.0000000  0  6G24G17G 5G30G10G 6
  23845243.214    10787951.96649   8390791.33945  23845242.712    23845250.997
  22867357.402   -11319257.75049  -8807884.36946  22867356.539    22867365.294
  21951929.182     7571779.19649   5795214.58147  21951928.336    21951936.157
  20438644.864    -2336803.05049  -1815855.76748  20438644.821    20438650.515
  21008623.970    -4706079.26149  -3659925.43847  21008622.883    21008629.804
  21204520.623    -9830054.05249  -7652401.00647  21204520.136    21204526.347
 03  4  9 19 12  0.0000000  0  6G24G17G 5G30G10G 6
  23861305.399    10872358.97449   8456562.97745  23861304.912    23861313.164
  22854399.977   -11387349.28349  -8860942.64346  22854399.109    22854407.838
  21968823.118     7660557.02049   5864392.02547  21968822.271    21968830.096
  20445079.381    -2302989.44149  -1789507.52948  20445079.336    20445085.043
  21012602.371    -4685172.86949  -3643634.74347  21012601.239    21012608.159
  21194942.028    -9880389.69549  -7691623.56847  21194941.537    21194947.759
 03  4  9 19 12 30.0000000  0  6G24G17G 5G30G10G 6
  23877366.546    10956760.54049   8522330.38545  23877366.084    23877374.319
  22841484.427   -11455220.67149  -8913829.37546  22841483.540    22841492.220
  21985776.731     7749648.56349   5933813.92347  21985775.884    21985783.720
  20451621.975    -2268608.06749  -1762716.87748  20451621.937    20451627.656
  21016699.206    -4663643.88149  -3626858.91047  21016698.053    21016704.968
  21185397.781    -9930545.07049  -7730705.65947  21185397.295    21185403.512
 03  4  9 19 13  0.0000000  0  6G24G17G 5G30G10G 6
  23893426.621    11041156.49149   8588093.40545  23893426.204    23893434.364
  22828610.944   -11522871.06249  -8966543.90246  22828610.062    22828618.758
  22002789.737     7839052.14949   6003478.96347  22002788.886    22002796.737
  20458272.474    -2233659.59049  -1735484.32748  20458272.443    20458278.156
  21020914.381    -4641493.00549  -3609598.48947  21020913.235    21020920.149
  21175888.139    -9980518.40849  -7769645.90347  21175887.658    21175893.875
 03  4  9 19 13 30.0000000  0  6G24G17G 5G30G10G 6
  23909485.303    11125545.19449   8653850.77145  23909484.827    23909493.079
  22815779.531   -11590300.21949  -9019086.03746  22815778.655    22815787.348
  22019861.575     7928764.88549   6073384.90447  22019860.738    22019868.577
  20465030.582    -2198145.62649  -1707811.14148  20465030.534    20465036.271
  21025247.631    -4618721.51549  -3591854.47547  21025246.505    21025253.410
  21166413.307   -10030308.92949  -7808443.69347  21166412.827    21166419.045
 03  4  9 19 14  0.0000000  0  6G24G17G 5G30G10G 6
  23925542.357    11209925.39349   8719601.51745  23925541.953    23925550.234
  22802990.145   -11657508.65749  -9071456.19446  22802989.270    22802997.960
  22036991.722     8018784.13849   6143529.69046  22036990.878    22036998.747
  20471896.052    -2162067.47749  -1679698.32848  20471896.031    20471901.748
  21029698.774    -4595330.75049  -3573627.90947  21029697.643    21029704.539
  21156973.506   -10079915.36549  -7847098.03547  21156973.022    21156979.238
 03  4  9 19 14 30.0000000  0  6G24G17G 5G30G10G 6
  23941597.674    11294296.18549   8785344.94245  23941597.267    23941605.472
  22790242.876   -11724495.76749  -9123653.87246  22790242.004    22790250.687
  22054179.801     8109107.75549   6213911.63746  22054178.950    22054186.855
  20478868.749    -2125425.82649  -1651146.42448  20478868.714    20478874.460
  21034267.565    -4571321.45749  -3554919.37747  21034266.430    21034273.363
  21147569.040   -10129335.97449  -7885607.58247  21147568.563    21147574.777
 03  4  9 19 15  0.0000000  0  6G24G17G 5G30G10G 6
  23957650.932    11378656.55749   8851080.21545  23957650.513    23957658.771
  22777537.768   -11791261.33849  -9175678.93746  22777536.899    22777545.550
  22071425.265     8199732.83249   6284528.49646  22071424.421    22071432.349
  20485948.402    -2088222.18049  -1622156.60348  20485948.373    20485954.107
  21038953.837    -4546694.96849  -3535729.91147  21038952.706    21038959.629
  21138200.176   -10178569.66849  -7923971.48247  21138199.699    21138205.902
 03  4  9 19 15 30.0000000  0  6G24G17G 5G30G10G 6
  23973702.015    11463005.46649   8916806.58445  23973701.602    23973709.877
  22764874.858   -11857805.16649  -9227531.20146  22764873.976    22764882.600
  22088727.596     8290656.92249   6355378.33546  22088726.742    22088734.698
  20493134.759    -2050457.63749  -1592729.71948  20493134.718    20493140.476
  21043757.351    -4521452.29949  -3516060.30547  21043756.231    21043763.149
  21128867.143   -10227615.10349  -7962188.68447  21128866.670    21128872.870
 03  4  9 19 16  0.0000000  0  6G24G17G 5G30G10G 6
  23989750.825    11547342.15849   8982523.40545  23989750.322    23989758.779
  22752254.134   -11924127.32149  -9279210.73746  22752253.273    22752261.897
  22106086.405     8381877.67849   6426459.35546  22106085.575    22106093.541
  20500427.638    -2012133.47349  -1562866.77048  20500427.609    20500433.361
  21048677.973    -4495594.36249  -3495911.27447  21048676.844    21048683.783
  21119570.138   -10276471.07449  -8000258.25447  21119569.676    21119575.878
 03  4  9 19 16 30.0000000  0  6G24G17G 5G30G10G 6
  24005796.859    11631664.62849   9048229.16245  24005796.463    24005804.881
  22739675.628   -11990227.47949  -9330717.29346  22739674.771    22739683.385
  22123501.163     8473392.52349   6497769.53446  22123500.319    22123508.294
  20507826.732    -1973251.08249  -1532568.83748  20507826.707    20507832.468
  21053715.350    -4469122.69849  -3475284.00947  21053714.217    21053721.145
  21110309.443   -10325136.24749  -8038179.14947  21110308.987    21110315.180
 03  4  9 19 17  0.0000000  0  6G24G17G 5G30G10G 6
  24021840.253    11715972.82649   9113923.80645  24021839.787    24021848.274
  22727139.450   -12056105.27949  -9382050.58346  22727138.599    22727147.200
  22140971.478     8565199.31649   6569307.20046  22140970.645    22140978.649
  20515331.917    -1933811.22049  -1501836.51048  20515331.901    20515337.667
  21058869.392    -4442038.07249  -3454179.12047  21058868.269    21058875.198
  21101085.433   -10373608.68249  -8075949.86247  21101084.973    21101091.163
 03  4  9 19 17 30.0000000  0  6G24G17G 5G30G10G 6
  24037880.705    11800265.70149   9179606.48945  24037880.232    24037888.727
  22714645.580   -12121760.72749  -9433210.60446  22714644.749    22714653.311
  22158496.809     8657295.01449   6641069.97946  22158495.992    22158503.984
  20522942.846    -1893815.63549  -1470671.15448  20522942.822    20522948.613
  21064139.810    -4414342.00949  -3432597.78147  21064138.690    21064145.617
  21091898.315   -10421887.28449  -8113569.54047  21091897.863    21091904.035
 03  4  9 19 18  0.0000000  0  6G24G17G 5G30G10G 6
  24053917.965    11884541.84249   9245276.14545  24053917.449    24053926.092
  22702194.033   -12187193.80549  -9484197.35946  22702193.209    22702201.741
  22176076.579     8749677.15049   6713055.96246  22176075.792    22176083.802
  20530659.299    -1853265.48549  -1439073.67248  20530659.280    20530665.087
  21069526.329    -4386035.58249  -3410540.83147  21069525.211    21069532.122
  21082748.306   -10469970.78649  -8151037.18847  21082747.847    21082754.002
 03  4  9 19 18 30.0000000  0  6G24G17G 5G30G10G 6
  24069951.961    11968800.90349   9310932.48345  24069951.430    24069960.215
  22689784.864   -12252404.12549  -9535010.53546  22689784.040    22689792.592
  22193710.536     8842343.66349   6785263.53246  22193709.724    22193717.773
  20538481.084    -1812161.88949  -1407044.93348  20538481.055    20538486.872
  21075028.830    -4357119.80349  -3388009.06247  21075027.712    21075034.633
  21073635.757   -10517857.48449  -8188351.48447  21073635.296    21073641.446
 03  4  9 19 19  0.0000000  0  6G24G17G 5G30G10G 6
  24085982.466    12053041.36449   9376574.34145  24085981.961    24085990.595
  22677418.110   -12317391.67649  -9585650.12646  22677417.261    22677425.796
  22211398.042     8935291.74549   6857690.51146  22211397.220    22211405.289
  20546407.842    -1770506.51549  -1374586.23348  20546407.818    20546413.639
  21080646.996    -4327596.23349  -3365003.69047  21080645.863    21080652.787
  21064560.884   -10565546.29549  -8225511.58047  21064560.428    21064566.566
 03  4  9 19 19 30.0000000  0  6G24G17G 5G30G10G 6
  24102009.293    12137262.55549   9442201.17945  24102008.776    24102017.421
  22665093.782   -12382156.10949  -9636115.86046  22665092.943    22665101.467
  22229138.605     9028518.75849   6930334.84046  22229137.788    22229145.887
  20554439.361    -1728300.80849  -1341698.70648  20554439.348    20554445.182
  21086380.501    -4297466.43749  -3341525.93847  21086379.373    21086386.289
  21055523.879   -10613035.98349  -8262516.51747  21055523.405    21055529.558
 03  4  9 19 20  0.0000000  0  6G24G17G 5G30G10G 6
  24118032.184    12221463.41549   9507812.18945  24118031.694    24118040.425
  22652811.929   -12446697.52349  -9686407.81546  22652811.085    22652819.565
  22246931.807     9122022.21349   7003194.57546  22246931.000    22246939.129
  20562575.365    -1685546.05149  -1308383.35148  20562575.345    20562581.166
  21092229.215    -4266731.41349  -3317576.58347  21092228.084    21092234.988
  21046525.100   -10660324.87849  -8299364.99447  21046524.624    21046530.773
 03  4  9 19 20 30.0000000  0  6G24G17G 5G30G10G 6
  24134051.096    12305643.14649   9573406.71245  24134050.635    24134059.445
  22640572.537   -12511015.82549  -9736525.91846  22640571.709    22640580.186
  22264777.130     9215799.56049   7076267.71946  22264776.276    22264784.442
  20570815.597    -1642243.47449  -1274641.11947  20570815.581    20570821.416
  21098192.824    -4235392.53149  -3293156.69147  21098191.696    21098198.615
  21037564.844   -10707411.38449  -8336055.76447  21037564.387    21037570.511
 03  4  9 19 21  0.0000000  0  6G24G17G 5G30G10G 6
  24150065.765    12389800.47749   9638983.80045  24150065.308    24150074.075
  22628375.659   -12575110.60049  -9786469.85046  22628374.842    22628383.289
  22282674.107     9309848.38349   7149552.41246  22282673.276    22282681.456
  20579159.769    -1598394.64449  -1240473.23447  20579159.754    20579165.597
  21104271.048    -4203451.23549  -3268267.37647  21104269.918    21104276.819
  21028643.311   -10754294.30749  -8372587.89947  21028642.843    21028648.978
 03  4  9 19 21 30.0000000  0  6G24G17G 5G30G10G 6
  24166076.025    12473934.68449   9704542.88345  24166075.534    24166084.243
  22616221.377   -12638981.54949  -9836239.36846  22616220.537    22616228.984
  22300622.249     9404166.06249   7223046.60146  22300621.391    22300629.620
  20587607.646    -1554000.97249  -1205880.80247  20587607.626    20587613.456
  21110463.689    -4170908.70949  -3242909.57347  21110462.551    21110469.481
  21019760.795   -10800972.16049  -8408960.24047  21019760.333    21019766.472
 03  4  9 19 22  0.0000000  0  6G24G17G 5G30G10G 6
  24182081.649    12558044.53149   9770082.96145  24182081.124    24182089.848
  22604109.668   -12702628.96949  -9885834.70046  22604108.821    22604117.237
  22318620.994     9498749.79849   7296748.10846  22318620.170    22318628.403
  20596158.815    -1509064.42749  -1170865.34647  20596158.796    20596164.637
  21116770.420    -4137766.87849  -3217084.77947  21116769.275    21116776.177
  21010917.514   -10847443.88349  -8445171.95847  21010917.055    21010923.189
 03  4  9 19 22 30.0000000  0  6G24G17G 5G30G10G 6
  24198082.488    12642129.34949   9835603.55645  24198081.887    24198090.712
  22592040.450   -12766052.92049  -9935255.91446  22592039.607    22592048.013
  22336669.924     9593597.10449   7370654.99046  22336669.096    22336677.405
  20604813.075    -1463586.23249  -1135427.83047  20604813.055    20604818.920
  21123190.893    -4104027.00949  -3190793.97647  21123189.760    21123196.669
  21002113.764   -10893707.82549  -8481221.77347  21002113.300    21002119.431
 03  4  9 19 23  0.0000000  0  6G24G17G 5G30G10G 6
  24214078.448    12726188.33849   9901104.00045  24214077.862    24214086.585
  22580013.777   -12829253.28549  -9984502.90046  22580012.942    22580021.336
  22354768.499     9688705.46249   7444765.30146  22354767.656    22354776.020
  20613570.119    -1417567.81249  -1099569.35747  20613570.092    20613575.969
  21129724.945    -4069690.41149  -3164038.18447  21129723.817    21129730.732
  20993349.870   -10939762.34349  -8517108.39747  20993349.417    20993355.539
 03  4  9 19 23 30.0000000  0  6G24G17G 5G30G10G 6
  24230069.250    12810220.56349   9966583.59845  24230068.782    24230077.475
  22568029.767   -12892229.51449 -10033575.23446  22568028.929    22568037.301
  22372916.345     9784072.60849   7519077.24846  22372915.513    22372923.876
  20622429.674    -1371010.54249  -1063291.00247  20622429.649    20622435.534
  21136372.251    -4034758.61249  -3136818.60947  21136371.145    21136378.033
  20984626.125   -10985605.91849  -8552830.65247  20984625.666    20984631.783
 03  4  9 19 24  0.0000000  0  6G24G17G 5G30G10G 6
  24246054.847    12894225.15949  10032041.67245  24246054.335    24246063.124
  22556088.368   -12954981.76949 -10082473.04646  22556087.536    22556095.894
  22391112.865     9879695.59549   7593588.56546  22391112.036    22391120.450
  20631391.473    -1323916.17949  -1026594.13147  20631391.445    20631397.355
  21143132.489    -3999233.28949  -3109136.54347  21143131.375    21143138.278
  20975942.750   -11031237.26449  -8588387.53647  20975942.307    20975948.406
 03  4  9 19 24 30.0000000  0  6G24G17G 5G30G10G 6
  24262035.004    12978201.34949  10097477.61245  24262034.413    24262043.344
  22544189.691   -13017509.72149 -10131196.07846  22544188.853    22544197.195
  22409357.583     9975571.95449   7668297.30346  22409356.775    22409365.198
  20640455.156    -1276286.36449   -989480.02847  20640455.130    20640461.040
  21150005.432    -3963115.78549  -3080993.04147  21150004.307    21150011.223
  20967300.089   -11076654.82149  -8623777.82947  20967299.641    20967305.739
 03  4  9 19 25  0.0000000  0  6G24G17G 5G30G10G 6
  24278009.636    13062148.16749  10162890.66845  24278009.024    24278017.866
  22532333.561   -13079813.82149 -10179744.67746  22532332.731    22532341.054
  22427650.048    10071699.01349   7743201.39546  22427649.252    22427657.701
  20649620.400    -1228122.66949   -951949.91747  20649620.385    20649626.315
  21156990.776    -3926407.72549  -3052389.35847  21156989.641    21156996.557
  20958698.349   -11121857.24549  -8659000.48747  20958697.895    20958703.989
 03  4  9 19 25 30.0000000  0  7G24G17G29G 5G30G10G 6
  24293977.984    13146062.38449  10228278.30945  24293977.419    24293986.247
  22520519.702   -13141895.84449 -10228120.23346  22520518.869    22520527.189
  24642807.440    -3664316.92249  -2849248.85144  24642806.989    24642819.022
  22445989.313    10168072.05249   7818297.15746  22445988.545    22445996.995
  20658886.526    -1179428.89149   -914006.75047  20658886.520    20658892.460
  21164087.693    -3889113.09649  -3023328.60947  21164086.568    21164093.487
  20950137.394   -11166845.28049  -8694056.08947  20950136.952    20950143.024
 03  4  9 19 26  0.0000000  0  7G24G17G29G 5G30G10G 6
  24309940.087    13229943.51549  10293640.18745  24309939.559    24309948.352
  22508748.170   -13203755.40249 -10276322.43846  22508747.348    22508755.654
  24629223.791    -3735699.04449  -2904871.17744  24629223.394    24629235.337
  22464374.965    10264688.79749   7893582.81146  22464374.217    22464382.697
  20668253.283    -1130206.43549   -875651.62847  20668253.276    20668259.235
  21171295.991    -3851233.20849  -2993811.82247  21171294.877    21171301.789
  20941617.577   -11211617.25449  -8728943.32847  20941617.110    20941623.210
 03  4  9 19 26 30.0000000  0  7G24G17G29G 5G30G10G 6
  24325896.532    13313794.98749  10358978.94845  24325895.983    24325904.833
  22497019.748   -13265388.50349 -10324348.17646  22497018.918    22497027.207
  24615655.849    -3806998.47049  -2960429.06144  24615655.576    24615667.685
  22482807.244    10361550.47549   7969059.33146  22482806.466    22482814.952
  20677721.013    -1080453.37949   -836883.05247  20677721.012    20677726.983
  21178616.154    -3812765.65849  -2963837.10747  21178615.010    21178621.926
  20933139.910   -11256167.71849  -8763657.96947  20933139.449    20933145.545
 03  4  9 19 27  0.0000000  0  7G24G17G29G 5G30G10G 6
  24341846.945    13397614.79949  10424293.04045  24341846.441    24341855.312
  22485334.174   -13326796.56849 -10372198.56046  22485333.348    22485341.599
  24602104.120    -3878213.21549  -3015920.95545  24602103.690    24602115.817
  22501285.436    10458653.58049   8044723.98046  22501284.634    22501293.179
  20687289.254    -1030172.01849   -797702.81247  20687289.248    20687295.231
  21186047.604    -3773712.98449  -2933406.45147  21186046.465    21186053.394
  20924704.471   -11300496.15849  -8798199.60247  20924704.029    20924710.098
 03  4  9 19 27 30.0000000  0  7G24G17G29G 5G30G10G 6
  24357791.128    13481401.89249  10489581.64545  24357790.642    24357799.424
  22473691.425   -13387979.36549 -10419873.42146  22473690.618    22473698.873
  24588568.982    -3949340.40649  -3071344.65445  24588568.668    24588580.543
  22519809.043    10555995.31049   8120574.56346  22519808.241    22519816.787
  20696957.653     -979364.37349   -758112.47847  20696957.644    20696963.644
  21193590.043    -3734077.28049  -2902521.48747  21193588.904    21193595.830
  20916311.553   -11344601.26749  -8832567.21147  20916311.099    20916317.176
 03  4  9 19 28  0.0000000  0  7G24G17G29G 5G30G10G 6
  24373728.863    13565154.78349  10554843.58145  24373728.398    24373736.961
  22462091.518   -13448937.00249 -10467372.82746  22462090.708    22462098.940
  24575050.821    -4020377.84449  -3126698.39145  24575050.526    24575062.523
  22538377.448    10653572.39949   8196608.53246  22538376.606    22538385.215
  20706725.756     -928032.83149   -718113.91547  20706725.742    20706731.746
  21201242.915    -3693861.13449  -2871184.23447  21201241.786    21201248.725
  20907961.275   -11388482.21249  -8866760.15047  20907960.830    20907966.899
 03  4  9 19 28 30.0000000  0  7G24G17G29G 5G30G10G 6
  24389659.794    13648872.08049  10620077.78345  24389659.280    24389668.005
  22450534.290   -13509670.60349 -10514697.65946  22450533.439    22450541.704
  24561550.378    -4091322.75649  -3181980.06445  24561550.103    24561562.047
  22556990.057    10751381.84849   8272823.57646  22556989.221    22556997.838
  20716593.121     -876179.49849   -677708.75547  20716593.111    20716599.122
  21209005.936    -3653066.10449  -2839395.90347  21209004.801    21209011.753
  20899653.873   -11432137.82249  -8900777.49947  20899653.411    20899659.495
 03  4  9 19 29  0.0000000  0  7G24G17G29G 5G30G10G 6
  24405583.917    13732553.92549  10685284.37045  24405583.536    24405592.130
  22439019.759   -13570179.69349 -10561847.54446  22439018.911    22439027.173
  24548068.148    -4162172.05849  -3237187.21945  24548067.657    24548079.815
  22575646.475    10849421.49849   8349217.98846  22575645.625    22575654.260
  20726559.587     -823805.62649   -636897.98647  20726559.571    20726565.606
  21216878.844    -3611693.67949  -2807157.65747  21216877.711    21216884.658
  20891389.714   -11475566.32149  -8934617.88047  20891389.262    20891395.334
 03  4  9 19 29 30.0000000  0  7G24G17G29G 5G30G10G 6
  24421501.240    13816199.57249  10750462.74445  24421500.817    24421509.456
  22427547.947   -13630464.14949 -10608822.39146  22427547.092    22427555.349
  24534604.739    -4232922.56249  -3292317.41645  24534604.197    24534616.364
  22594346.217    10947688.85849   8425789.81846  22594345.390    22594354.001
  20736624.713     -770913.21049   -595683.15647  20736624.703    20736630.737
  21224861.276    -3569745.60149  -2774470.83847  21224860.145    21224867.107
  20883169.021   -11518766.23749  -8968280.14847  20883168.563    20883174.640
 03  4  9 19 30  0.0000000  0  7G24G17G29G 5G30G10G 6
  24437411.402    13899807.55349  10815611.75545  24437410.932    24437419.536
  22416118.911   -13690524.07149 -10655622.27447  22416118.055    22416126.274
  24521160.566    -4303571.82049  -3347368.69545  24521159.954    24521172.180
  22613088.707    11046180.72949   8502536.60746  22613087.876    22613096.543
  20746788.117     -717504.33349   -554065.89047  20746788.097    20746794.130
  21232952.836    -3527224.31549  -2741337.37047  21232951.703    21232958.658
  20874992.037   -11561736.49349  -9001763.45347  20874991.584    20874997.657
 03  4  9 19 30 30.0000000  0  7G24G17G29G 5G30G10G 6
  24453314.201    13983377.27349  10880730.96545  24453313.743    24453322.400
  22404732.605   -13750359.29849 -10702247.07647  22404731.747    22404739.964
  24507736.337    -4374116.47449  -3402338.47345  24507735.738    24507747.796
  22631873.442    11144894.68249   8579456.43746  22631872.621    22631881.309
  20757049.473     -663580.80149   -512047.59447  20757049.474    20757055.504
  21241153.139    -3484131.33849  -2707758.42747  21241152.026    21241158.985
  20866859.060   -11604475.51849  -9035066.58347  20866858.614    20866864.698
 03  4  9 19 31  0.0000000  0  7G24G17G29G 5G30G10G 6
  24469209.584    14066908.05549  10945819.82245  24469209.180    24469217.881
  22393388.994   -13809970.03349 -10748696.93747  22393388.140    22393396.357
  24494332.500    -4444553.90449  -3457224.71345  24494332.037    24494343.873
  22650699.906    11243828.02349   8656547.21846  22650699.127    22650707.818
  20767408.415     -609144.33049   -469629.60947  20767408.402    20767414.449
  21249461.886    -3440468.50449  -2673735.43947  21249460.774    21249467.733
  20858770.433   -11646981.60849  -9068188.20747  20858769.984    20858776.044
 03  4  9 19 31 30.0000000  0  7G24G17G29G 5G30G10G 6
  24485097.397    14150398.86449  11010877.53045  24485097.030    24485105.689
  22382088.164   -13869356.10949 -10794971.74947  22382087.323    22382095.484
  24480949.697    -4514880.76249  -3512024.77445  24480949.251    24480961.152
  22669567.655    11342978.16649   8733806.93946  22669566.855    22669575.570
  20777864.619     -554196.87349   -426813.45347  20777864.613    20777870.652
  21257878.759    -3396237.65349  -2639269.84647  21257877.648    21257884.588
  20850726.414   -11689253.22549  -9101127.12547  20850725.963    20850732.025
 03  4  9 19 32  0.0000000  0  7G24G17G29G 5G30G10G 6
  24500978.039    14233852.03949  11075905.92945  24500977.726    24500986.399
  22370830.584   -13928514.91249 -10841069.46447  22370829.737    22370837.897
  24467589.011    -4585091.32049  -3566734.21345  24467588.690    24467600.394
  22688476.744    11442345.52349   8811235.91546  22688475.934    22688484.680
  20788418.230     -498737.32149   -383598.26147  20788418.227    20788424.267
  21266403.920    -3351437.64149  -2604360.75047  21266402.806    21266409.761
  20842727.830   -11731286.08749  -9133879.99647  20842727.370    20842733.430
 03  4  9 19 32 30.0000000  0  7G24G17G29G 5G30G10G 6
  24516850.673    14317263.10649  11140901.50345  24516850.288    24516859.132
  22359615.617   -13987449.74649 -10886992.65647  22359614.771    22359622.928
  24454250.399    -4655185.94149  -3621353.30345  24454250.135    24454261.731
  22707425.915    11541923.63449   8888829.11146  22707425.077    22707433.893
  20799068.254     -442771.25549   -339988.38447  20799068.255    20799074.315
  21275036.248    -3306074.29649  -2569012.69847  21275035.140    21275042.116
  20834774.275   -11773082.26149  -9166448.43347  20834773.816    20834779.882
 03  4  9 19 33  0.0000000  0  7G24G17G29G 5G30G10G 6
  24532715.064    14400631.28449  11205863.64745  24532714.685    24532723.579
  22348443.112   -14046161.37049 -10932741.91447  22348442.266    22348450.402
  24440934.225    -4725162.62049  -3675880.48445  24440933.784    24440945.482
  22726414.646    11641709.53749   8966584.21446  22726413.831    22726422.638
  20809814.198     -386301.04049   -295985.66547  20809814.185    20809820.263
  21283775.445    -3260149.63949  -2533227.25847  21283774.360    21283781.300
  20826865.928   -11814640.71449  -9198831.63547  20826865.471    20826871.530
 03  4  9 19 33 30.0000000  0  7G24G17G29G 5G30G10G 6
  24548571.389    14483956.43049  11270792.27545  24548570.988    24548579.876
  22337313.262   -14104648.98749 -10978316.63447  22337312.400    22337320.526
  24427641.231    -4795017.40649  -3730312.67545  24427640.856    24427652.504
  22745442.576    11741701.25049   9044499.69346  22745441.728    22745450.572
  20820655.863     -329327.91349   -251591.06347  20820655.860    20820661.929
  21292621.233    -3213664.71849  -2497005.25047  21292620.146    21292627.092
  20819003.340   -11855959.01149  -9231027.69847  20819002.874    20819008.943
 03  4  9 19 34  0.0000000  0  7G24G17G29G 5G30G10G 6
  24564419.391    14567237.80049  11335686.79045  24564418.887    24564427.836
  22326226.038   -14162912.57649 -11023716.77647  22326225.196    22326233.289
  24414372.003    -4864747.27749  -3784647.52545  24414371.592    24414383.341
  22764509.127    11841896.13949   9122573.48046  22764508.289    22764517.164
  20831592.853     -271853.84949   -206806.12347  20831592.848    20831598.939
  21301573.226    -3166621.83449  -2460348.46947  21301572.118    21301579.061
  20811186.689   -11897035.66549  -9263035.46947  20811186.216    20811192.295
 03  4  9 19 34 30.0000000  0  7G24G17G29G 5G30G10G 6
  24580259.033    14650475.24149  11400547.06445  24580258.541    24580267.368
  22315181.486   -14220951.74049 -11068942.05047  22315180.642    22315188.736
  24401127.219    -4934348.73149  -3838882.32445  24401126.761    24401138.312
  22783613.954    11942292.08549   9200803.95046  22783613.133    22783622.034
  20842624.883     -213880.39349   -161632.04847  20842624.881    20842630.978
  21310631.143    -3119022.15249  -2423257.82347  21310630.038    21310636.983
  20803416.420   -11937868.75449  -9294853.44947  20803415.965    20803422.032
 03  4  9 19 35  0.0000000  0  7G24G17G29G 5G30G10G 6
  24596090.089    14733667.83949  11465372.39145  24596089.711    24596098.522
  22304179.708   -14278766.36649 -11113992.36547  22304178.858    22304186.944
  24387907.348    -5003819.23849  -3893015.07145  24387906.983    24387918.393
  22802756.444    12042885.95449   9279188.63646  22802755.591    22802764.562
  20853751.499     -155409.78549   -116070.58247  20853751.488    20853757.601
  21319794.539    -3070868.28149  -2385735.33647  21319793.434    21319800.370
  20795692.716   -11978457.07449  -9326480.70047  20795692.252    20795698.329
 03  4  9 19 35 30.0000000  0  7G24G17G29G 5G30G10G 6
  24611912.462    14816814.98049  11530162.31945  24611912.038    24611920.903
  22293220.550   -14336356.96849 -11158868.10447  22293219.705    22293227.774
  24374713.048    -5073155.54949  -3947043.22145  24374712.518    24374724.075
  22821936.168    12143675.49649   9357725.78346  22821935.343    22821944.331
  20864972.363      -96443.95249    -70123.23247  20864972.360    20864978.486
  21329063.023    -3022162.21049  -2347782.56947  21329061.888    21329068.834
  20788015.910   -12018798.85549  -9357915.85147  20788015.446    20788021.527
 03  4  9 19 36  0.0000000  0  7G24G17G29G 5G30G10G 6
  24627726.110    14899915.78749  11594916.12145  24627725.691    24627734.548
  22282304.017   -14393723.54449 -11203569.29247  22282303.182    22282311.237
  24361544.699    -5142354.81749  -4000964.58745  24361544.324    24361555.715
  22841152.554    12244657.76449   9436413.09446  22841151.749    22841160.719
  20876287.067      -36985.01349    -23791.63647  20876287.057    20876293.189
  21338436.205    -2972905.89549  -2309401.04447  21338435.059    21338442.015
  20780386.276   -12058892.89849  -9389157.95147  20780385.818    20780391.879
 03  4  9 19 36 30.0000000  0  7G24G17G29G 5G30G10G 6
  24643530.885    14982970.05549  11659633.65445  24643530.419    24643539.404
  22271430.201   -14450865.60849 -11248095.52047  22271429.351    22271437.385
  24348403.089    -5211413.92949  -4054776.74145  24348402.762    24348413.968
  22860405.168    12345830.26549   9515248.65546  22860404.411    22860413.359
  20887695.268       22965.25449     22922.80947  20887695.249    20887701.382
  21347913.766    -2923100.91949  -2270591.98247  21347912.628    21347919.586
  20772804.145   -12098737.23349  -9420205.47647  20772803.687    20772809.736
 03  4  9 19 37  0.0000000  0  7G24G17G29G 5G30G10G 6
  24659326.631    15065976.89049  11724314.23245  24659326.054    24659335.182
  22260598.935   -14507784.10249 -11292447.55347  22260598.089    22260606.097
  24335288.690    -5280330.08849  -4108477.48645  24335288.120    24335299.485
  22879693.427    12447190.14349   9594230.21546  22879692.658    22879701.647
  20899196.493       83404.31749     70018.13547  20899196.457    20899202.610
  21357495.268    -2872749.84849  -2231357.40347  21357494.124    21357501.084
  20765269.764   -12138330.67849  -9451057.50347  20765269.313    20765275.344
 03  4  9 19 37 30.0000000  0  7G24G17G29G 5G30G10G 6
  24675113.230    15148935.80549  11788957.46045  24675112.695    24675121.683
  22249810.346   -14564478.40549 -11336624.89547  22249809.507    22249817.507
  24322202.116    -5349099.91149  -4162064.17145  24322201.560    24322213.009
  22899016.940    12548735.29649   9673356.15546  22899016.141    22899025.189
  20910790.443      144330.65549    117493.15147  20910790.421    20910796.590
  21367180.352    -2821854.50249  -2191698.71347  21367179.210    21367186.164
  20757783.474   -12177671.36949  -9481712.58347  20757783.016    20757789.051
 03  4  9 19 38  0.0000000  0  7G24G17G29G 5G30G10G 6
  24690890.543    15231846.05149  11853562.77345  24690890.062    24690899.163
  22239064.358   -14620948.80149 -11380627.76247  22239063.497    22239071.509
  24309143.881    -5417720.70749  -4215534.71745  24309143.480    24309154.817
  22918375.131    12650462.77249   9752624.15746  22918374.309    22918383.436
  20922476.611      205741.77049    165345.92047  20922476.591    20922482.761
  21376968.571    -2770417.16849  -2151617.68547  21376967.433    21376974.381
  20750345.546   -12216757.86949  -9512169.58847  20750345.085    20750351.114
 03  4  9 19 38 30.0000000  0  7G24G17G29G 5G30G10G 6
  24706658.494    15314706.59949  11918129.36345  24706657.917    24706667.066
  22228360.884   -14677195.77649 -11424456.54047  22228360.047    22228368.017
  24296114.480    -5486189.84249  -4268887.08445  24296114.031    24296125.534
  22937767.506    12752369.67949   9832031.96846  22937766.684    22937775.836
  20934254.639      267635.47749    213574.73247  20934254.637    20934260.788
  21386859.499    -2718440.04349  -2111116.05147  21386858.356    21386865.301
  20742956.244   -12255588.91049  -9542427.53648  20742955.790    20742961.809
 03  4  9 19 39  0.0000000  0  7G24G17G29G 5G30G10G 6
  24722416.895    15397517.29549  11982657.09145  24722416.318    24722425.567
  22217700.034   -14733218.72649 -11468110.75347  22217699.207    22217707.176
  24283114.712    -5554503.37349  -4322118.19145  24283114.189    24283125.662
  22957193.640    12854454.08349   9911578.08546  22957192.796    22957202.020
  20946124.170      330010.11449    262178.28847  20946124.170    20946130.320
  21396852.864    -2665924.65449  -2070194.98047  21396851.718    21396858.681
  20735615.973   -12294162.27749  -9572484.69848  20735615.522    20735621.545
 03  4  9 19 39 30.0000000  0  7G24G17G29G 5G30G10G 6
  24738165.702    15480277.60549  12047145.57645  24738165.135    24738174.352
  22207081.827   -14789017.65149 -11511590.39647  22207080.988    22207088.948
  24270145.011    -5622658.85849  -4375226.12145  24270144.329    24270155.970
  22976652.956    12956712.81949   9991260.04346  22976652.124    22976661.410
  20958084.799      392863.43249    311154.84747  20958084.810    20958090.992
  21406948.141    -2612873.65449  -2028856.55947  21406946.989    21406953.973
  20728324.999   -12332476.67349  -9602340.06248  20728324.530    20728330.571
 03  4  9 19 40  0.0000000  0  7G24G17G29G 5G30G10G 6
  24753904.828    15562986.77149  12111594.19745  24753904.178    24753913.426
  22196506.188   -14844592.78049 -11554895.65447  22196505.369    22196513.304
  24257205.873    -5690653.53649  -4428208.75845  24257205.227    24257216.890
  22996144.904    13059143.08749  10071075.67146  22996144.100    22996153.391
  20970136.046      456192.95249    360502.47547  20970136.057    20970142.267
  21417144.898    -2559289.41349  -1987102.61947  21417143.750    21417150.750
  20721083.531   -12370530.79449  -9631992.61548  20721083.063    20721089.092
 03  4  9 19 40 30.0000000  0  7G24G17G29G 5G30G10G 6
  24769634.142    15645644.34849  12176002.61345  24769633.609    24769642.778
  22185973.080   -14899944.60149 -11598026.90747  22185972.231    22185980.177
  24244297.998    -5758484.23049  -4481063.59645  24244297.273    24244308.888
  23015669.072    13161742.53249  10151023.10946  23015668.254    23015677.607
  20982277.511      519996.61949    410219.56447  20982277.511    20982283.752
  21427442.782    -2505173.68249  -1944934.52947  21427441.641    21427448.655
  20713891.892   -12408323.07049  -9661441.13348  20713891.431    20713897.461
 03  4  9 19 41  0.0000000  0  7G24G17G29G 5G30G10G 6
  24785353.437    15728249.67049  12240370.31445  24785352.907    24785362.196
  22175482.464   -14955073.05849 -11640984.10447  22175481.603    22175489.546
  24231421.809    -5826148.07449  -4533788.41645  24231421.226    24231432.658
  23035224.896    13264508.33049  10231100.17346  23035224.056    23035233.485
  20994508.796      584272.15149    460304.34047  20994508.774    20994515.039
  21437841.342    -2450528.87749  -1902354.17947  21437840.222    21437847.210
  20706750.407   -12445851.82149  -9690684.30648  20706749.945    20706755.958
 03  4  9 19 41 30.0000000  0  7G24G17G29G 5G30G10G 6
  24801062.711    15810802.09849  12304696.83045  24801062.242    24801071.509
  22165034.331   -15009978.05149 -11683767.17647  22165033.467    22165041.389
  24218577.977    -5893641.90349  -4586380.74545  24218577.428    24218588.777
  23054811.829    13367437.75449  10311304.74246  23054811.046    23054820.439
  21006829.405      649017.31049    510755.05947  21006829.385    21006835.670
  21448340.183    -2395357.12649  -1859363.21447  21448339.044    21448346.036
  20699659.363   -12483115.49249  -9719720.92748  20699658.884    20699664.913
 03  4  9 19 42  0.0000000  0  7G24G17G29G 5G30G10G 6
  24816761.776    15893301.09849  12368981.69545  24816761.353    24816770.331
  22154628.636   -15064660.27349 -11726376.66447  22154627.790    22154635.703
  24205766.993    -5960963.31149  -4638838.73245  24205766.417    24205777.841
  23074429.380    13470528.08749  10391634.69046  23074428.635    23074438.001
  21019238.980      714229.81749    561569.94647  21019238.954    21019245.258
  21458938.840    -2339660.81549  -1815963.50447  21458937.717    21458944.712
  20692619.034   -12520112.67449  -9748549.89048  20692618.558    20692624.590
 03  4  9 19 42 30.0000000  0  7G24G17G29G 5G30G10G 6
  24832450.673    15975746.28349  12433224.63245  24832450.252    24832459.278
  22144265.428   -15119119.15849 -11768812.11747  22144264.585    22144272.477
  24192989.555    -6028108.30849  -4691159.24845  24192988.932    24193000.324
  23094077.187    13573777.11349  10472088.29246  23094076.413    23094085.797
  21031737.156      779907.94849    612747.65247  21031737.131    21031743.453
  21469636.980    -2283441.71949  -1772156.42247  21469635.871    21469642.872
  20685629.809   -12556841.35249  -9777169.62848  20685629.347    20685635.350
 03  4  9 19 43  0.0000000  0  7G24G17G29G 5G30G10G 6
  24848129.083    16058136.68249  12497424.87345  24848128.588    24848137.614
  22133944.612   -15173355.27849 -11811073.98547  22133943.760    22133951.651
  24180246.136    -6095074.56349  -4743340.49845  24180245.505    24180256.731
  23113754.602    13677181.82349  10552663.21046  23113753.811    23113763.258
  21044323.380      846048.91649    664286.01147  21044323.358    21044329.691
  21480434.106    -2226702.59649  -1727944.12847  21480432.986    21480440.006
  20678691.876   -12593300.36549  -9805579.23448  20678691.410    20678697.416
 03  4  9 19 43 30.0000000  0  7G24G17G29G 5G30G10G 6
  24863797.070    16140472.32849  12561582.46245  24863796.672    24863805.764
  22123666.272   -15227368.25349 -11853161.97847  22123665.425    22123673.269
  24167537.368    -6161858.73349  -4795379.87545  24167536.783    24167547.818
  23133461.175    13780739.86049  10633357.59546  23133460.368    23133469.915
  21056997.382      912650.99649    716183.67747  21056997.364    21057003.700
  21491329.822    -2169445.24549  -1683328.01447  21491328.693    21491335.720
  20671805.676   -12629487.60449  -9833777.07548  20671805.197    20671811.213
 03  4  9 19 44  0.0000000  0  7G24G17G29G 5G30G10G 6
  24879454.528    16222752.33349  12625696.66545  24879454.142    24879463.173
  22113430.318   -15281158.36949 -11895076.30947  22113429.462    22113437.318
  24154863.746    -6228458.13349  -4847275.28545  24154863.296    24154874.099
  23153196.360    13884448.16949  10714169.06646  23153195.546    23153205.129
  21069758.573      979711.28749    768438.39247  21069758.550    21069764.899
  21502323.618    -2111672.40249  -1638310.21947  21502322.492    21502329.526
  20664971.384   -12665402.09449  -9861762.38448  20664970.928    20664976.917
 03  4  9 19 44 30.0000000  0  7G24G17G29G 5G30G10G 6
  24895101.265    16304976.09749  12689767.08545  24895100.920    24895109.830
  22103236.709   -15334726.01749 -11936817.28747  22103235.868    22103243.682
  24142225.797    -6294870.04149  -4899024.60145  24142225.436    24142236.066
  23172959.584    13988303.93249  10795095.44746  23172958.754    23172968.426
  21082606.501     1047227.41149    821048.30147  21082606.475    21082612.844
  21513415.042    -2053386.62149  -1592892.73447  21513413.913    21513420.958
  20658189.236   -12701042.44849  -9889534.07648  20658188.764    20658194.782
 03  4  9 19 45  0.0000000  0  6G17G29G 5G30G10G 6
  22093085.511   -15388070.88249 -11978384.66847  22093084.656    22093092.476
  24129624.205    -6361091.05049  -4950625.17045  24129623.750    24129634.367
  23192750.490    14092305.00049  10876135.05046  23192749.624    23192759.331
  21095540.883     1115197.70449    874012.11047  21095540.871    21095547.233
  21524603.837    -1994589.30049  -1547076.64247  21524602.698    21524609.745
  20651459.684   -12736406.41649  -9917090.40548  20651459.222    20651465.234
 03  4  9 19 45 30.0000000  0  6G17G29G 5G30G10G 6
  22082976.619   -15441193.27249 -12019778.69147  22082975.764    22082983.583
  24117059.474    -6427118.11849  -5002074.62545  24117059.038    24117069.657
  23212568.546    14196448.76449  10957285.82846  23212567.643    23212577.412
  21108561.181     1183619.56349    927327.78247  21108561.167    21108567.533
  21535889.397    -1935283.23749  -1500864.13647  21535888.245    21535895.303
  20644783.017   -12771492.55149  -9944430.24448  20644782.544    20644788.570
 03  4  9 19 46  0.0000000  0  6G17G29G 5G30G10G 6
  22072909.993   -15494093.51349 -12060999.61147  22072909.143    22072916.949
  24104532.245    -6492948.39449  -5053370.74445  24104531.830    24104542.407
  23232413.261    14300732.79049  11038545.89146  23232412.395    23232422.135
  21121667.015     1252490.92249    980993.71747  21121666.984    21121673.359
  21547271.423    -1875470.35449  -1454256.69847  21547270.305    21547277.343
  20638159.526   -12806299.14749  -9971552.25748  20638159.050    20638165.072
 03  4  9 19 46 30.0000000  0  7G17G29G 5G30G23G10G 6
  22062884.730   -15546776.54849 -12102051.27347  22062883.873    22062891.656
  24092042.159    -6558583.80449  -5104515.02645  24092041.727    24092052.187
  23252283.204    14405149.23449  11119909.15346  23252282.359    23252292.109
  21134856.923     1321804.17749   1035003.98847  21134856.903    21134863.268
  24493124.792    -2595920.28549  -2010292.85945  24493123.854    24493137.832
  21558748.378    -1815158.47249  -1407260.43747  21558747.280    21558754.307
  20631588.552   -12840829.87549  -9998459.30848  20631588.079    20631594.089
 03  4  9 19 47  0.0000000  0  8G17G29G 5G26G30G23G10G 6
  22052900.743   -15599242.56749 -12142933.83447  22052899.885    22052907.660
  24079589.428    -6624022.06549  -5155505.69745  24079589.018    24079599.423
  23272177.689    14509694.70749  11201372.94646  23272176.886    23272186.647
  24276613.269    -3079895.26149  -2222698.49745  24276613.640    24276626.854
  21148130.386     1391556.41549   1089356.31947  21148130.364    21148136.750
  24472480.574    -2704405.48649  -2094826.57245  24472479.875    24472493.704
  21570319.753    -1754350.53049  -1359877.63047  21570318.639    21570325.680
  20625070.255   -12875083.65249 -10025150.55548  20625069.781    20625075.776
 03  4  9 19 47 30.0000000  0  8G17G29G 5G26G30G23G10G 6
  22042959.666   -15651483.05349 -12183640.65147  22042958.797    22042966.592
  24067176.638    -6689251.06349  -5206333.32945  24067176.211    24067186.752
  23292097.977    14614375.60749  11282942.28046  23292097.176    23292107.015
  24259444.747    -3170118.02049  -2293001.71645  24259444.966    24259458.279
  21161488.658     1461754.25549   1144055.87047  21161488.616    21161495.016
  24451853.034    -2812802.89449  -2179291.84845  24451852.315    24451866.101
  21581986.785    -1693039.98149  -1312103.18847  21581985.672    21581992.698
  20618606.734   -12909049.82149 -10051617.69348  20618606.256    20618612.243
 03  4  9 19 48  0.0000000  0  8G17G29G 5G26G30G23G10G 6
  22033061.308   -15703499.08949 -12224172.57247  22033060.450    22033068.204
  24054804.092    -6754268.44249  -5256996.05445  24054803.666    24054814.072
  23312043.466    14719189.07549  11364614.90445  23312042.668    23312052.581
  24242281.881    -3260306.45449  -2363278.27944  24242281.488    24242295.073
  21174931.159     1532394.83249   1199100.41647  21174931.120    21174937.533
  24431242.625    -2921110.53949  -2263687.21445  24431241.964    24431255.768
  21593749.024    -1631229.15549  -1263938.92347  21593747.890    21593754.934
  20612198.105   -12942727.19649 -10077859.79348  20612197.623    20612203.624
 03  4  9 19 48 30.0000000  0  8G17G29G 5G26G30G23G10G 6
  22023205.289   -15755292.56449 -12264531.07047  22023204.423    22023212.187
  24042472.070    -6819072.79649  -5307492.81845  24042471.694    24042481.928
  23332013.317    14824130.63249  11446387.30645  23332012.483    23332022.501
  24225126.782    -3350458.54349  -2433526.54345  24225126.464    24225139.851
  21188457.184     1603474.23549   1254486.90347  21188457.156    21188463.566
  24410649.351    -3029327.78249  -2348012.10045  24410648.710    24410662.509
  21605605.624    -1568922.35149  -1215388.18047  21605604.501    21605611.542
  20605844.450   -12976115.89649 -10103876.95748  20605843.971    20605849.970
 03  4  9 19 49  0.0000000  0  9G17G15G29G 5G26G30G23G10G 6
  22013391.302   -15806865.18449 -12304717.47047  22013390.437    22013398.204
  24768539.778    -3920188.27949  -3045399.26145  24768539.037    24768550.561
  24030180.833    -6883663.34749  -5357822.96645  24030180.423    24030190.510
  23352006.672    14929195.60349  11528255.91345  23352005.852    23352015.952
  24207978.039    -3440573.25649  -2503745.47545  24207977.846    24207991.351
  21202065.788     1674987.80449   1310211.70047  21202065.765    21202072.188
  24390073.461    -3137454.11649  -2432266.18345  24390072.804    24390086.651
  21617555.720    -1506124.14549  -1166454.52947  21617554.588    21617561.643
  20599545.654   -13009216.24449 -10129669.42948  20599545.182    20599551.177
 03  4  9 19 49 30.0000000  0  9G17G15G29G 5G26G30G23G10G 6
  22003619.077   -15858218.38649 -12344732.89647  22003618.222    22003625.962
  24752211.942    -4005991.00449  -3112258.36645  24752211.191    24752222.731
  24017930.514    -6948038.44449  -5407985.22645  24017930.154    24017940.191
  23372022.706    15034379.86449  11610217.44345  23372021.915    23372032.068
  24190837.481    -3530648.47049  -2573934.04945  24190837.122    24190850.023
  21215756.341     1746931.84049   1366271.92547  21215756.308    21215762.760
  24369514.964    -3245488.53249  -2516448.60945  24369514.287    24369528.214
  21629598.655    -1442838.29049  -1117140.89347  21629597.531    21629604.581
  20593301.746   -13042028.18049 -10155237.16448  20593301.274    20593307.273
 03  4  9 19 50  0.0000000  0  9G17G15G29G 5G26G30G23G10G 6
  21993889.294   -15909348.49349 -12384574.48847  21993888.448    21993896.196
  24735906.250    -4091677.95649  -3179027.25445  24735905.290    24735917.297
  24005722.478    -7012191.46549  -5457974.43145  24005722.115    24005732.161
  23392061.653    15139684.40049  11692272.68045  23392060.823    23392070.950
  24173705.093    -3620677.37749  -2644086.05445  24173704.972    24173718.377
  21229529.009     1819307.47149   1422668.45847  21229528.993    21229535.456
  24348975.176    -3353424.93949  -2600554.67045  24348974.477    24348988.254
  21641734.588    -1379063.60249  -1067446.34247  21641733.460    21641740.503
  20587113.703   -13074546.53149 -10180576.12948  20587113.228    20587119.227
 03  4  9 19 50 30.0000000  0  9G17G15G29G 5G26G30G23G10G 6
  21984201.648   -15960257.29449 -12424243.62947  21984200.785    21984208.526
  24719622.314    -4177249.74849  -3245706.38245  24719621.471    24719633.449
  23993556.991    -7076120.69249  -5507789.25645  23993556.697    23993566.677
  23412122.813    15245105.54149  11774418.80245  23412121.955    23412132.224
  24156582.609    -3710657.56749  -2714200.50745  24156582.197    24156595.115
  21243383.133     1892111.14149   1479398.52747  21243383.112    21243389.594
  24328454.290    -3461262.16649  -2684583.44245  24328453.592    24328467.432
  21653962.855    -1314803.73349  -1017373.73447  21653961.724    21653968.774
  20580981.625   -13106770.80549 -10205685.94448  20580981.143    20580987.135
 03  4  9 19 51  0.0000000  0  9G17G15G29G 5G26G30G23G10G 6
  21974556.101   -16010944.71849 -12463740.27547  21974555.232    21974562.973
  24703360.364    -4262706.15949  -3312295.63645  24703359.661    24703371.158
  23981434.666    -7139822.99349  -5557427.25845  23981434.379    23981444.323
  23432205.632    15350640.62349  11856653.71645  23432204.742    23432215.095
  24139469.357    -3800585.92049  -2784274.29645  24139468.983    24139482.435
  21257318.240     1965340.27149   1536460.12547  21257318.215    21257324.717
  24307952.724    -3568997.58949  -2768532.85145  24307951.955    24307965.859
  21666282.970    -1250061.20049   -966925.02047  21666281.825    21666288.879
  20574905.792   -13138699.46549 -10230565.40948  20574905.309    20574911.306
 03  4  9 19 51 30.0000000  0  9G17G15G29G 5G26G30G23G10G 6
  21964952.417   -16061412.23549 -12503065.56347  21964951.541    21964959.277
  24687120.359    -4348047.69249  -3378795.36245  24687119.564    24687131.084
  23969355.949    -7203296.57449  -5606887.02045  23969355.630    23969365.677
  23452309.452    15456286.10249  11938974.60945  23452308.614    23452318.977
  24122367.081    -3890459.60249  -2854305.60045  24122366.724    24122379.781
  21271333.650     2038991.60249   1593850.71047  21271333.612    21271340.137
  24287470.850    -3676629.89749  -2852401.93745  24287470.024    24287483.902
  21678694.312    -1184839.34249   -916102.81247  21678693.163    21678700.224
  20568886.358   -13170331.91949 -10255214.06548  20568885.867    20568891.873
 03  4  9 19 52  0.0000000  0  9G17G15G29G 5G26G30G23G10G 6
  21955390.606   -16111659.65449 -12542219.35247  21955389.730    21955397.452
  24670902.171    -4433274.23149  -3445205.49245  24670901.151    24670912.772
  23957321.295    -7266538.40149  -5656166.20545  23957321.031    23957331.010
  23472433.872    15562039.52949  12021379.67345  23472433.023    23472443.430
  24105275.509    -3980275.42649  -2924291.81645  24105275.185    24105288.225
  21285428.940     2113062.55949   1651568.27547  21285428.904    21285435.442
  24267009.057    -3784156.56849  -2936188.67245  24267008.429    24267022.074
  21691196.395    -1119140.46849   -864908.90447  21691195.228    21691202.313
  20562923.591   -13201666.39149 -10279630.53048  20562923.105    20562929.106
 03  4  9 19 52 30.0000000  0  9G17G15G29G 5G26G30G23G10G 6
  21945870.723   -16161686.92049 -12581201.59147  21945869.841    21945877.564
  24654706.026    -4518384.99249  -3511525.40745  24654704.752    24654716.325
  23945331.403    -7329545.24949  -5705262.28745  23945331.183    23945341.066
  23492578.353    15667898.53149  12103866.95545  23492577.546    23492587.849
  24088195.655    -4070029.80249  -2994230.05245  24088195.499    24088208.592
  21299603.629     2187550.89149   1709611.07247  21299603.611    21299610.139
  24246567.780    -3891575.07249  -3019891.12745  24246567.211    24246580.756
  21703788.787    -1052967.04549   -813345.21547  21703787.640    21703794.726
  20557017.857   -13232701.07949 -10303813.39048  20557017.373    20557023.370
 03  4  9 19 53  0.0000000  0  9G17G15G29G 5G26G30G23G10G 6
  21936392.586   -16211494.57449 -12620012.70847  21936391.712    21936399.422
  24638531.931    -4603379.80049  -3577754.97245  24638530.581    24638542.407
  23933386.696    -7392314.40049  -5754173.15445  23933386.422    23933396.326
  23512742.360    15773860.18849  12186434.23745  23512741.548    23512751.941
  24071128.164    -4159719.45849  -3064117.99745  24071127.925    24071140.541
  21313857.278     2262453.97049   1767977.04047  21313857.234    21313863.782
  24226147.623    -3998883.08249  -3103507.47745  24226146.948    24226160.509
  21716470.993     -986321.73649   -761413.83047  21716469.851    21716476.918
  20551169.476   -13263434.48749 -10327761.49048  20551169.012    20551174.999
 03  4  9 19 53 30.0000000  0 10G17G15G29G 5G26G30G23G10G 6G18
  21926955.852   -16261084.66849 -12658654.29947  21926955.005    21926962.693
  24622379.571    -4688260.27049  -3643895.45145  24622378.163    24622389.858
  23921487.409    -7454844.91149  -5802898.07345  23921487.110    23921496.978
  23532924.977    15879919.66049  12269077.75045  23532924.205    23532934.610
  24054073.271    -4249342.99749  -3133954.27145  24054073.091    24054085.880
  21328188.980     2337767.29949   1826662.69047  21328188.942    21328195.509
  24205748.450    -4106080.17349  -3187037.38245  24205747.720    24205761.251
  21729242.127     -919209.00749   -709118.21647  21729240.979    21729248.057
  20545378.354   -13293867.07749 -10351475.18448  20545377.871    20545383.878
  24768932.418    -1999669.09649  -1303152.82245  24768931.796    24768944.141
 03  4  9 19 54  0.0000000  0 10G17G15G29G 5G26G30G23G10G 6G18
  21917560.615   -16310456.76149 -12697126.01747  21917559.789    21917567.429
  24606249.207    -4773025.35149  -3709946.02345  24606247.999    24606259.496
  23909634.213    -7517133.09749  -5851434.15945  23909633.845    23909643.777
  23553125.886    15986075.37549  12351796.21945  23553125.100    23553135.555
  24037031.709    -4338896.17549  -3203735.80245  24037031.440    24037044.226
  21342598.396     2413489.05649   1885666.59047  21342598.377    21342604.944
  24185371.072    -4213162.98449  -3270478.25245  24185370.337    24185383.790
  21742101.901     -851630.47749   -656459.63847  21742100.767    21742107.852
  20539644.920   -13323996.34149 -10374952.52748  20539644.440    20539650.460
  24747720.913    -2111135.14349  -1390009.24645  24747720.300    24747732.504
 03  4  9 19 54 30.0000000  0 10G17G15G29G 5G26G30G23G10G 6G18
  21908207.411   -16359608.03749 -12735425.67547  21908206.584    21908214.225
  24590141.319    -4857671.88649  -3775904.20345  24590140.120    24590151.732
  23897828.286    -7579173.49649  -5899777.19045  23897827.808    23897837.687
  23573345.155    16092327.18849  12434589.62145  23573344.373    23573354.842
  24020004.784    -4428372.98249  -3273457.78745  24020004.607    24020017.311
  21357085.543     2489619.25649   1944988.75747  21357085.517    21357092.107
  24165016.386    -4320126.80349  -3353826.39345  24165015.688    24165028.976
  21755050.264     -783586.40849   -603438.29547  21755049.133    21755056.213
  20533970.008   -13353818.15649 -10398190.29548  20533969.549    20533975.554
  24726518.318    -2222554.76449  -1476829.48245  24726517.678    24726529.986
 03  4  9 19 55  0.0000000  0 10G17G15G29G 5G26G30G23G10G 6G18
  21898895.984   -16408539.80449 -12773554.28247  21898895.160    21898902.785
  24574055.914    -4942200.61249  -3841770.60545  24574055.025    24574066.318
  23886069.790    -7640964.09849  -5947925.56445  23886069.359    23886079.136
  23593582.014    16198671.66749  12517455.17145  23593581.233    23593591.738
  24002992.703    -4517770.94549  -3343118.30045  24002992.514    24003005.289
  21371649.738     2566154.39949   2004626.46947  21371649.715    21371656.325
  24144684.636    -4426969.86349  -3437080.45445  24144683.873    24144697.160
  21768086.638     -715080.06049   -550056.74347  21768085.488    21768092.577
  20528353.730   -13383331.86749 -10421187.98448  20528353.267    20528359.273
  24705324.787    -2333926.56649  -1563612.44045  24705324.091    24705336.536
 03  4  9 19 55 30.0000000  0 10G17G15G29G 5G26G30G23G10G 6G18
  21889626.090   -16457253.29249 -12811512.80647  21889625.268    21889632.877
  24557992.864    -5026611.61549  -3907545.27745  24557992.097    24558003.400
  23874359.296    -7702502.42149  -5995877.36345  23874358.826    23874368.689
  23613835.938    16305105.58949  12600390.45945  23613835.091    23613845.682
  23985996.378    -4607087.14149  -3412715.10945  23985996.202    23986008.782
  21386290.452     2643091.51749   2064577.40547  21386290.419    21386297.040
  24124376.195    -4533690.27949  -3520238.94845  24124375.413    24124388.545
  21781210.375     -646114.37149   -496317.26047  21781209.223    21781216.317
  20522796.315   -13412536.34049 -10443944.70748  20522795.834    20522801.841
  24684140.661    -2445248.74049  -1650356.71845  24684140.025    24684152.296
 03  4  9 19 56  0.0000000  0 10G17G15G29G 5G26G30G23G10G 6G18
  21880397.823   -16505747.89449 -12849300.77047  21880396.986    21880404.585
  24541952.422    -5110904.21849  -3973227.69245  24541951.520    24541962.896
  23862697.413    -7763785.34749  -6043630.17445  23862696.988    23862706.804
  23634106.429    16411626.79049  12683393.71345  23634105.549    23634116.296
  23969016.194    -4696317.84249  -3482245.28545  23969015.965    23969028.577
  21401007.195     2720428.25149   2124839.73147  21401007.161    21401013.801
  24104091.596    -4640285.47149  -3603299.86645  24104090.806    24104103.855
  21794421.090     -576691.79249   -442221.75847  21794419.917    21794427.031
  20517298.097   -13441429.67849 -10466458.98748  20517297.620    20517303.609
  24662966.433    -2556518.99349  -1737060.54745  24662965.875    24662978.233
 03  4  9 19 56 30.0000000  0 10G17G15G29G 5G26G30G23G10G 6G18
  21871211.083   -16554024.49849 -12886918.86447  21871210.266    21871217.836
  24525934.489    -5195078.75849  -4038818.12345  24525933.600    24525944.891
  23851084.691    -7824810.25149  -6091181.93845  23851084.207    23851094.029
  23654392.906    16518231.81049  12766462.30745  23654392.034    23654402.790
  23952052.799    -4785460.01149  -3551706.41345  23952052.529    23952065.170
  21415799.414     2798161.64649   2185411.14547  21415799.380    21415806.036
  24083831.242    -4746753.47649  -3686261.69745  24083830.452    24083843.486
  21807718.103     -506815.53449   -387772.73947  21807716.922    21807724.032
  20511859.254   -13470010.87549 -10488730.03748  20511858.776    20511864.771
  24641802.582    -2667735.05149  -1823722.12845  24641802.116    24641814.452
 03  4  9 19 57  0.0000000  0 10G17G15G29G 5G26G30G23G10G 6G18
  21862065.803   -16602083.22749 -12924367.18847  21862064.957    21862072.545
  24509939.042    -5279134.98149  -4104316.35145  24509938.103    24509949.372
  23839521.467    -7885574.72549  -6138530.78645  23839521.013    23839530.744
  23674694.830    16624918.11149  12849594.21245  23674693.911    23674704.745
  23935106.980    -4874510.36549  -3621096.07145  23935106.800    23935119.167
  21430666.588     2876288.92449   2246289.47647  21430666.558    21430673.228
  24063595.485    -4853091.92749  -3769122.55745  24063594.690    24063607.747
  21821101.054     -436487.71749   -332971.86047  21821099.887    21821107.007
  20506480.110   -13498278.49949 -10510756.74748  20506479.640    20506485.629
  24620649.310    -2778895.06749  -1910340.05845  24620648.680    24620661.196
 03  4  9 19 57 30.0000000  0 10G17G15G29G 5G26G30G23G10G 6G18
  21852961.978   -16649924.04349 -12961645.70247  21852961.130    21852968.693
  24493966.156    -5363072.58149  -4169722.15945  24493965.281    24493976.544
  23828008.482    -7946075.70749  -6185674.32245  23828008.074    23828017.585
  23695011.735    16731683.10149  12932787.44645  23695010.934    23695021.737
  23918179.121    -4963465.50749  -3690411.41845  23918178.859    23918191.453
  21445608.213     2954807.39649   2307472.64347  21445608.174    21445614.867
  24043384.869    -4959298.50149  -3851880.70245  24043384.092    24043397.133
  21834569.338     -365711.44449   -277821.53347  21834568.173    21834575.305
  20501160.920   -13526230.93549 -10532537.85448  20501160.442    20501166.422
  24599507.137    -2889996.85749  -1996912.59345  24599506.617    24599518.981
 03  4  9 19 58  0.0000000  0 10G17G15G29G 5G26G30G23G10G 6G18
  21843899.538   -16697547.38449 -12998754.75647  21843898.684    21843906.236
  24478015.997    -5446890.86449  -4235034.99845  24478015.173    24478026.354
  23816546.098    -8006310.27449  -6232610.26145  23816545.629    23816555.150
  23715343.168    16838524.48349  13016040.20245  23715342.300    23715353.170
  23901270.177    -5052321.77449  -3759649.79745  23901269.915    23901282.410
  21460623.775     3033714.57349   2368958.68447  21460623.739    21460630.462
  24023199.819    -5065370.60649  -3934534.04745  24023199.066    24023211.961
  21848122.524     -294489.06649   -222323.59647  21848121.360    21848128.514
  20495902.085   -13553866.37549 -10554071.95448  20495901.603    20495907.581
  24578376.523    -3001037.92749  -2083437.82745  24578375.945    24578388.418
 03  4  9 19 58 30.0000000  0 10G17G15G29G 5G26G30G23G10G 6G18
  21834878.352   -16744953.98249 -13035694.92047  21834877.479    21834885.031
  24462088.487    -5530590.21849  -4300255.15645  24462087.550    24462098.710
  23805134.935    -8066276.00849  -6279336.74045  23805134.489    23805144.012
  23735688.532    16945438.96249  13099349.89845  23735687.674    23735698.619
  23884380.579    -5141076.32349  -3828808.88645  23884380.288    23884392.863
  21475712.764     3113007.38149   2430745.22447  21475712.723    21475719.455
  24003040.736    -5171306.35349  -4017081.14545  24003040.021    24003052.769
  21861759.965     -222824.00049   -166480.69747  21861758.809    21861765.939
  20490703.721   -13581183.84949 -10575358.28748  20490703.241    20490709.220
  24557257.813    -3112016.46949  -2169914.35045  24557257.166    24557269.536
 03  4  9 19 59  0.0000000  0 10G17G15G29G 5G26G30G23G10G 6G18
  21825898.468   -16792143.41849 -13072465.86947  21825897.606    21825905.138
  24446183.708    -5614169.72649  -4365381.92345  24446182.880    24446194.036
  23793775.652    -8125969.36849  -6325851.00145  23793775.272    23793784.609
  23756047.397    17052424.60249  13182715.06245  23756046.581    23756057.609
  23867511.098    -5229725.00349  -3897885.52545  23867510.746    23867523.183
  21490874.696     3192683.69749   2492830.59747  21490874.647    21490881.389
  23982908.145    -5277102.78149  -4099519.70845  23982907.450    23982920.153
  21875481.233     -150718.19349   -110294.37147  21875480.100    21875487.230
  20485566.314   -13608181.04349 -10596395.05448  20485565.838    20485571.806
  24536151.577    -3222929.48949  -2256339.82245  24536150.827    24536163.111
 03  4  9 19 59 30.0000000  0 10G17G15G29G 5G26G30G23G10G 6G18
  21816959.874   -16839115.92849 -13109067.78447  21816959.004    21816966.529
  24430301.866    -5697629.17949  -4430415.17345  24430300.975    24430312.241
  23782468.620    -8185387.77849  -6372151.02145  23782468.260    23782477.550
  23776419.333    17159478.66549  13266133.50445  23776418.528    23776429.706
  23850662.340    -5318264.51649  -3966877.06845  23850662.100    23850674.403
  21506109.100     3272740.77449   2555212.66547  21506109.061    21506115.822
  23962802.507    -5382757.71349  -4181848.03245  23962801.668    23962814.350
  21889285.910      -78174.19349    -53766.59747  21889284.793    21889291.898
  20480490.149   -13634856.52649 -10617181.13748  20480489.682    20480495.635
  24515058.153    -3333775.02849  -2342712.71945  24515057.519    24515069.736
 03  4  9 20  0  0.0000000  0 10G17G15G29G 5G26G30G23G10G 6G18
  21808062.438   -16885872.07149 -13145501.10347  21808061.573    21808069.079
  24414442.861    -5780968.37049  -4495354.69045  24414442.074    24414453.221
  23771214.514    -8244528.46149  -6418234.62745  23771214.151    23771223.528
  23796803.725    17266598.29949  13349603.06845  23796802.935    23796814.165
  23833835.085    -5406691.62549  -4035781.05845  23833834.770    23833847.071
  21521415.441     3353175.81749   2617889.24847  21521415.394    21521422.180
  23942724.212    -5488268.84749  -4264064.27845  23942723.368    23942736.150
  21903173.445       -5194.84349      3100.41347  21903172.319    21903179.423
  20475475.475   -13661208.86049 -10637715.40848  20475474.994    20475480.953
  24493978.064    -3444550.75949  -2429031.22145  24493977.493    24493989.463
 03  4  9 20  0 30.0000000  0 10G17G15G29G 5G26G30G23G10G 6G18
  21799206.103   -16932412.31249 -13181766.18347  21799205.244    21799212.737
  24398606.741    -5864187.22949  -4560200.44045  24398605.947    24398617.103
  23760013.763    -8303388.58849  -6464099.65245  23760013.445    23760022.755
  23817200.137    17373780.83149  13433121.65045  23817199.346    23817210.570
  23817029.803    -5495002.86049  -4104594.76945  23817029.514    23817041.746
  21536793.163     3433985.97949   2680858.13647  21536793.138    21536799.909
  23922673.683    -5593633.93449  -4346166.72645  23922672.849    23922685.544
  21917143.303       68217.24149     60304.61047  21917142.168    21917149.269
  20470522.516   -13687236.73149 -10657996.85348  20470522.033    20470527.987
  24472911.695    -3555254.49149  -2515293.62745  24472911.016    24472923.050
 03  4  9 20  1  0.0000000  0 10G17G15G29G 5G26G30G23G10G 6G18
  21790390.930   -16978736.18249 -13217862.66147  21790390.057    21790397.529
  24382793.713    -5947284.86249  -4624951.73845  24382792.954    24382804.125
  23748867.042    -8361964.98649  -6509743.58345  23748866.692    23748876.083
  23837608.019    17481024.13249  13516687.55645  23837607.219    23837618.564
  23800247.298    -5583194.27149  -4173315.06045  23800247.062    23800259.256
  21552241.865     3515169.11149   2744117.64147  21552241.853    21552248.606
  23902651.558    -5698850.02549  -4428153.09345  23902650.540    23902663.414
  21931195.056      142059.52449    117844.02447  21931193.900    21931201.023
  20465631.729   -13712938.07149 -10678023.85848  20465631.238    20465637.201
  24451859.440    -3665883.63449  -2601497.92245  24451858.821    24451870.703
 03  4  9 20  1 30.0000000  0 10G17G15G29G 5G26G30G23G10G 6G18
  21781616.768   -17024844.62649 -13253791.27147  21781615.891    21781623.358
  24367003.666    -6030261.55949  -4689608.78745  24367002.895    24367014.062
  23737774.682    -8420255.36649  -6555164.62545  23737774.291    23737783.691
  23858026.903    17588324.93349  13600298.26645  23858026.101    23858037.465
  23783488.144    -5671263.06049  -4241939.88945  23783487.805    23783499.973
  21567760.896     3596721.78849   2807665.10947  21567760.860    21567767.650
  23882658.184    -5803915.49249  -4510022.08645  23882657.171    23882669.846
  21945328.020      216328.70949    175716.09247  21945326.866    21945333.999
  20460803.231   -13738311.87149 -10697795.64248  20460802.741    20460808.692
  24430821.735    -3776436.66149  -2687642.91945  24430821.025    24430832.839
 03  4  9 20  2  0.0000000  0 10G17G15G29G 5G26G30G23G10G 6G18
  21772883.559   -17070737.82449 -13289552.15247  21772882.677    21772890.131
  24351236.662    -6113117.37949  -4754171.66045  24351235.820    24351247.017
  23726737.342    -8478257.12049  -6600360.76845  23726736.862    23726746.290
  23878456.217    17695680.66849  13683951.79245  23878455.388    23878466.912
  23766753.011    -5759205.94649  -4310466.59245  23766752.770    23766764.782
  21583349.676     3678641.19449   2871498.34147  21583349.648    21583356.457
  23862693.795    -5908828.11249  -4591771.96145  23862692.782    23862705.386
  21959541.759      291022.22049    233918.81347  21959540.606    21959547.767
  20456037.359   -13763356.72949 -10717311.10548  20456036.880    20456042.814
  24409798.931    -3886911.19249  -2773726.75445  24409798.279    24409810.138
 03  4  9 20  2 30.0000000  0 10G17G15G29G 5G26G30G23G10G 6G18
  21764191.271   -17116415.81749 -13325145.34447  21764190.415    21764197.844
  24335492.862    -6195851.37449  -4818639.59245  24335491.920    24335503.148
  23715755.591    -8535966.89049  -6645329.39545  23715755.104    23715764.435
  23898895.640    17803089.29649  13767646.53045  23898894.879    23898906.456
  23750042.592    -5847018.70849  -4378891.91345  23750042.338    23750054.331
  21599007.864     3760925.17449   2935615.65247  21599007.838    21599014.673
  23842759.078    -6013584.78749  -4673400.31345  23842758.112    23842770.708
  21973835.804      366137.97049    292450.55147  21973834.661    21973841.811
  20451334.499   -13788070.44249 -10736568.53748  20451334.026    20451339.951
  24388791.620    -3997304.52449  -2859747.32545  24388790.832    24388802.784
 03  4  9 20  3  0.0000000  0 10G17G15G29G 5G26G30G23G10G 6G18
  21755539.704   -17161879.90849 -13360571.85347  21755538.854    21755546.271
  24319772.087    -6278464.19749  -4883013.11845  24319771.202    24319782.260
  23704829.614    -8593382.88149  -6690069.08745  23704829.158    23704838.434
  23919344.360    17910547.07849  13851379.57245  23919343.643    23919355.261
  23733357.378    -5934699.02049  -4447214.02245  23733357.129    23733369.037
  21614734.695     3843569.95049   3000014.10347  21614734.671    21614741.505
  23822854.331    -6118184.20649  -4754906.12045  23822853.381    23822865.863
  21988209.464      441671.88149    351308.12747  21988208.300    21988215.475
  20446694.721   -13812452.65749 -10755567.65448  20446694.248    20446700.165
  24367799.989    -4107615.44749  -2945703.66245  24367799.304    24367810.973
 03  4  9 20  3 30.0000000  0 10G17G15G29G 5G26G30G23G10G 6G18
  21746929.082   -17207128.88249 -13395830.74747  21746928.245    21746935.646
  24304074.658    -6360954.30249  -4947291.00545  24304073.850    24304084.819
  23693960.354    -8650501.07749  -6734576.67245  23693959.873    23693969.318
  23939802.224    18018052.78249  13935149.94045  23939801.450    23939813.235
  23716698.383    -6022242.01049  -4515429.15245  23716698.012    23716710.000
  21630529.936     3926574.10749   3064692.59247  21630529.906    21630536.750
  23802980.192    -6222622.68349  -4836286.52045  23802979.271    23802991.699
  22002662.455      517622.68449    410490.55247  22002661.294    22002668.435
  20442118.554   -13836500.51749 -10774306.23948  20442118.086    20442123.990
  24346824.768    -4217840.15149  -3031592.82645  24346824.135    24346835.758
 03  4  9 20  4  0.0000000  0 10G17G15G29G 5G26G30G23G10G 6G18
  21738359.275   -17252163.38749 -13430922.52047  21738358.438    21738365.804
  24288400.531    -6443322.18849  -5011473.66945  24288399.621    24288410.556
  23683148.088    -8707319.19649  -6778850.43545  23683147.648    23683156.999
  23960268.655    18125603.28749  14018955.20745  23960267.902    23960279.670
  23700066.031    -6109644.76449  -4583535.02645  23700065.746    23700077.519
  21646392.924     4009934.31149   3129648.52047  21646392.884    21646399.748
  23783137.029    -6326898.48549  -4917540.15045  23783136.107    23783148.417
  22017194.139      593987.28549    469995.41747  22017193.004    22017200.129
  20437606.198   -13860212.95949 -10792783.46148  20437605.720    20437611.642
  24325866.256    -4327977.21249  -3117413.69545  24325865.703    24325877.163
 03  4  9 20  4 30.0000000  0 10G17G15G29G 5G26G30G23G10G 6G18
  21729830.168   -17296983.99249 -13465847.61847  21729829.332    21729836.669
  24272749.640    -6525567.81149  -5075561.04845  24272748.696    24272759.638
  23672393.622    -8763834.70049  -6822888.38745  23672393.143    23672402.471
  23980743.027    18233195.73649  14102793.17445  23980742.187    23980754.131
  23683460.964    -6196904.27949  -4651529.24145  23683460.623    23683472.365
  21662323.086     4093647.57549   3194879.55647  21662323.046    21662329.915
  23763325.124    -6431009.75549  -4998665.57045  23763324.273    23763336.475
  22031803.974      670762.40349    529820.18147  22031802.840    22031809.986
  20433157.902   -13883588.91549 -10810998.48748  20433157.429    20433163.345
  24304924.760    -4438024.52049  -3203164.62345  24304924.272    24304935.479
 03  4  9 20  5  0.0000000  0 10G17G15G29G 5G26G30G23G10G 6G18
  21721341.762   -17341590.61749 -13500605.98047  21721340.929    21721348.242
  24257122.118    -6607690.36349  -5139552.54745  24257121.255    24257132.201
  23661697.258    -8820044.21649  -6866687.90345  23661696.798    23661706.106
  24001225.008    18340827.91549  14186662.09845  24001224.037    24001235.968
  23666883.903    -6284016.23249  -4719408.49745  23666883.628    23666895.397
  21678319.987     4177711.53249   3260383.86347  21678319.951    21678326.826
  23743545.137    -6534953.40649  -5079660.37845  23743544.257    23743556.429
  22046491.543      747945.94449    589963.18447  22046490.432    22046497.560
  20428774.051   -13906626.30149 -10828949.69148  20428773.574    20428779.480
  24284000.857    -4547979.53249  -3288843.62245  24284000.287    24284011.616
 03  4  9 20  5 30.0000000  0 10G17G15G29G 5G26G30G23G10G 6G18
  21712894.031   -17385983.64449 -13535197.90647  21712893.177    21712900.510
  24241518.073    -6689689.61749  -5203447.93745  24241517.227    24241528.167
  23651059.553    -8875945.16849  -6910246.92445  23651059.112    23651068.438
  24021714.085    18448497.28349  14270559.98945  24021713.203    24021725.204
  23650335.658    -6370977.05649  -4787169.97845  23650335.364    23650346.971
  21694383.142     4262123.62849   3326159.44447  21694383.121    21694389.993
  23723797.490    -6638727.03549  -5160522.71145  23723796.618    23723808.720
  22061256.305      825535.25449    650422.37747  22061255.161    22061262.328
  20424454.913   -13929323.43849 -10846635.77148  20424454.434    20424460.351
  24263095.005    -4657839.55849  -3374448.59945  24263094.439    24263105.651
 03  4  9 20  6  0.0000000  0 10G17G15G29G 5G26G30G23G10G 6G18
  21704486.754   -17430163.97449 -13569624.08947  21704485.897    21704493.231
  24225937.405    -6771566.21849  -5267247.75845  24225936.543    24225947.504
  23640481.019    -8931535.44149  -6953563.85845  23640480.526    23640489.763
  24042209.580    18556200.66449  14354484.37945  24042208.804    24042220.839
  23633816.685    -6457784.26849  -4854811.74845  23633816.399    23633827.938
  21710511.822     4346880.20949   3392203.45647  21710511.805    21710518.711
  23704082.494    -6742329.16449  -5241251.39045  23704081.656    23704093.671
  22076097.578      903526.73349    711194.95047  22076096.426    22076103.598
  20420200.683   -13951679.67449 -10864056.20948  20420200.210    20420206.096
  24242207.509    -4767603.16249  -3459978.42945  24242206.911    24242218.139
 03  4  9 20  6 30.0000000  0 10G17G15G29G 5G26G30G23G10G 6G18
  21696120.055   -17474131.05749 -13603884.10747  21696119.199    21696126.543
  24210380.215    -6853319.22449  -5330951.26645  24210379.384    24210390.172
  23629962.160    -8986811.98849  -6996636.32245  23629961.728    23629971.128
  24062711.168    18663935.97349  14438433.64845  24062710.403    24062722.437
  23617327.722    -6544433.75949  -4922330.64045  23617327.385    23617338.876
  21726705.650     4431979.05349   3458514.16847  21726705.645    21726712.563
  23684400.653    -6845757.02549  -5321844.29345  23684399.821    23684411.824
  22091015.002      981918.33549    772279.30946  22091013.869    22091021.034
  20416011.711   -13973692.86249 -10881209.34148  20416011.239    20416017.128
  24221338.827    -4877267.70449  -3545431.06645  24221338.247    24221349.508
 03  4  9 20  7  0.0000000  0 10G17G15G29G 5G26G30G23G10G 6G18
  21687793.796   -17517885.60349 -13637978.51647  21687792.953    21687800.275
  24194846.680    -6934948.31049  -5394558.21845  24194845.747    24194856.643
  23619503.444    -9041771.83149  -7039461.98745  23619503.138    23619512.365
  24083218.346    18771700.72849  14522405.87345  24083217.596    24083229.651
  23600869.402    -6630921.84549  -4989723.75745  23600869.199    23600880.486
  21742964.083     4517417.35349   3525089.37947  21742964.079    21742971.017
  23664752.456    -6949008.20449  -5402299.50745  23664751.634    23664763.503
  22106008.060     1060707.35649    833673.34746  22106006.930    22106014.105
  20411888.303   -13995361.52649 -10898094.01548  20411887.834    20411893.706
  24200489.477    -4986830.88649  -3630804.71645  24200488.860    24200500.206
 03  4  9 20  7 30.0000000  0 10G17G15G29G 5G26G30G23G10G 6G18
  21679508.020   -17561427.49349 -13671907.21847  21679507.170    21679514.495
  24179336.678    -7016453.19449  -5458068.39145  24179335.744    24179346.609
  23609105.580    -9096412.41849  -7082038.87445  23609105.207    23609114.482
  24103730.620    18879492.23449  14606398.91945  24103729.875    24103742.068
  23584442.460    -6717245.20049  -5056988.48345  23584442.131    23584453.612
  21759286.517     4603192.14149   3591926.80247  21759286.529    21759293.477
  23645138.291    -7052080.40149  -5482615.28145  23645137.482    23645149.337
  22121076.157     1139890.75449    895374.69946  22121075.028    22121082.196
  20407830.726   -14016684.18349 -10914709.07148  20407830.263    20407836.122
  24179659.837    -5096290.46449  -3716097.65745  24179659.091    24179670.325
 03  4  9 20  8  0.0000000  0 10G17G15G29G 5G26G30G23G10G 6G18
  21671262.583   -17604757.42949 -13705670.76747  21671261.748    21671269.047
  24163850.252    -7097834.02349  -5521481.89745  24163849.386    24163860.291
  23598768.942    -9150731.33749  -7124365.12445  23598768.563    23598777.858
  24124247.411    18987307.51349  14690410.46745  24124246.541    24124258.970
  23568047.503    -6803400.56849  -5124122.32545  23568047.290    23568058.545
  21775672.457     4689300.52249   3659024.16247  21775672.455    21775679.448
  23625558.567    -7154971.58449  -5562789.99145  23625557.778    23625569.562
  22136218.753     1219465.58449    957381.06646  22136217.626    22136224.767
  20403839.242   -14037659.62249 -10931053.57248  20403838.776    20403844.634
  24158850.252    -5205644.63249  -3801308.43845  24158849.466    24158860.677
 03  4  9 20  8 30.0000000  0 10G17G15G29G 5G26G30G23G10G 6G18
  21663057.347   -17647876.10149 -13739269.69847  21663056.518    21663063.803
  24148387.604    -7179090.58149  -5584798.55945  24148386.610    24148397.554
  23588493.966    -9204725.77449  -7166438.52945  23588493.665    23588502.975
  24144768.277    19095144.24549  14774438.76545  24144767.475    24144779.973
  23551685.192    -6889384.27649  -5191122.41645  23551684.958    23551696.083
  21792121.363     4775739.76549   3726379.33747  21792121.368    21792128.359
  23606013.749    -7257679.22649  -5642821.69145  23606012.928    23606024.676
  22151435.338     1299429.26949   1019690.42846  22151434.191    22151441.369
  20399914.164   -14058286.06849 -10947126.13248  20399913.704    20399919.558
  24138061.228    -5314890.66149  -3886434.96045  24138060.549    24138071.650
 03  4  9 20  9  0.0000000  0 10G17G15G29G 5G26G30G23G10G 6G18
  21654892.309   -17690783.55049 -13772704.03747  21654891.481    21654898.751
  24132948.580    -7260222.69449  -5648018.26645  24132947.569    24132958.504
  23578281.249    -9258393.05949  -7208257.00245  23578280.915    23578290.243
  24165292.707    19202999.64449  14858481.60645  24165291.936    24165304.484
  23535356.196    -6975192.75649  -5257985.90545  23535356.052    23535367.147
  21808632.648     4862506.77249   3793989.91347  21808632.658    21808639.635
  23586504.307    -7360201.18649  -5722708.71245  23586503.494    23586515.147
  22166725.336     1379778.81649   1082300.47046  22166724.186    22166731.361
  20396055.735   -14078562.17749 -10962925.69848  20396055.285    20396061.130
  24117293.154    -5424026.63449  -3971475.72445  24117292.497    24117303.474
 03  4  9 20  9 30.0000000  0 10G17G15G29G 5G26G30G23G10G 6G18
  21646767.560   -17733479.27249 -13805973.39347  21646766.715    21646773.990
  24117533.383    -7341229.48749  -5711140.31845  24117532.420    24117543.262
  23568131.480    -9311729.99149  -7249818.07345  23568131.122    23568140.325
  24185820.394    19310871.94049  14942537.60045  24185819.664    24185832.279
  23519061.334    -7060822.02549  -5324709.77845  23519061.113    23519072.204
  21825205.876     4949599.40249   3861854.22547  21825205.864    21825212.889
  23567030.704    -7462534.52849  -5802448.75145  23567029.926    23567041.524
  22182088.371     1460512.05549   1145209.48846  22182087.230    22182094.398
  20392264.399   -14098485.85849 -10978450.64648  20392263.939    20392269.795
  24096546.550    -5533049.69049  -4056428.50445  24096545.919    24096556.853
 03  4  9 20 10  0.0000000  0 10G17G15G29G 5G26G30G23G10G 6G18
  21638682.915   -17775964.15549 -13839078.45547  21638682.082    21638689.345
  24102142.011    -7422111.32249  -5774164.99745  24102141.075    24102151.730
  23558044.965    -9364734.29249  -7291119.95745  23558044.664    23558053.751
  24206350.710    19418758.04449  15026604.34545  24206349.953    24206362.724
  23502801.123    -7146269.14549  -5391291.73245  23502800.960    23502811.927
  21841840.467     5037014.38049   3929969.71347  21841840.468    21841847.486
  23547593.408    -7564677.51249  -5882040.47545  23547592.611    23547604.169
  22197523.777     1541625.72749   1208414.95446  22197522.665    22197529.821
  20388540.286   -14118056.15549 -10993700.22848  20388539.837    20388545.671
  24075821.763    -5641958.11449  -4141291.96845  24075821.056    24075832.095
 03  4  9 20 10 30.0000000  0 10G17G15G29G 5G26G30G23G10G 6G18
  21630638.298   -17818238.72249 -13872019.63947  21630637.461    21630644.713
  24086774.408    -7502868.05949  -5837092.20145  24086773.563    24086784.163
  23548022.224    -9417403.51849  -7332160.74045  23548021.824    23548030.931
  24226883.146    19526655.36949  15110679.82945  24226882.398    24226895.063
  23486576.256    -7231530.63349  -5457729.00545  23486576.072    23486587.091
  21858535.820     5124748.78749   3998334.10447  21858535.820    21858542.882
  23528192.689    -7666627.97049  -5961482.17345  23528191.933    23528203.393
  22213031.045     1623116.93249   1271914.59946  22213029.930    22213037.115
  20384883.728   -14137271.57949 -11008673.28648  20384883.289    20384889.130
  24055119.258    -5750749.63749  -4226064.33545  24055118.508    24055129.524
 03  4  9 20 11  0.0000000  0 10G17G15G29G 5G26G30G23G10G 6G18
  21622633.784   -17860302.61849 -13904796.66247  21622632.943    21622640.197
  24071430.708    -7583499.16949  -5899921.50645  24071429.716    24071440.420
  23538063.782    -9469734.76649  -7372938.18245  23538063.378    23538072.472
  24247417.314    19634561.53549  15194762.20745  24247416.523    24247429.237
  23470387.407    -7316602.66549  -5524018.67245  23470387.210    23470398.164
  21875291.466     5212800.09249   4066945.42947  21875291.451    21875298.539
  23508829.092    -7768383.43549  -6040771.93845  23508828.267    23508839.709
  22228609.631     1704983.06749   1335706.40246  22228608.525    22228615.692
  20381295.017   -14156130.44949 -11023368.50648  20381294.543    20381300.387
  24034439.474    -5859421.68249  -4310743.62845  24034438.715    24034449.479
 03  4  9 20 11 30.0000000  0 10G17G15G29G 5G26G30G23G10G 6G18
  21614669.230   -17902156.41949 -13937409.97247  21614668.397    21614675.643
  24056110.970    -7664004.57749  -5962652.86545  24056109.972    24056120.542
  23528170.229    -9521725.42149  -7413450.23545  23528169.807    23528178.805
  24267952.643    19742473.93449  15278849.42445  24267951.757    24267964.524
  23454235.313    -7401481.67249  -5590157.93145  23454235.042    23454246.011
  21892106.863     5301165.19449   4135801.27447  21892106.840    21892113.956
  23489503.020    -7869941.63249  -6119907.99545  23489502.206    23489513.661
  22244259.027     1787221.22249   1399788.07746  22244257.941    22244265.089
  20377774.441   -14174631.32949 -11037784.77448  20377773.951    20377779.811
  24013782.855    -5967972.12149  -4395328.15245  24013782.115    24013792.836
 03  4  9 20 12  0.0000000  0 10G17G15G29G 5G26G30G23G10G 6G18
  21606744.565   -17943800.72749 -13969860.04347  21606743.723    21606750.970
  24040815.124    -7744384.50049  -6025286.45045  24040814.121    24040824.549
  23518341.901    -9573373.23349  -7453695.13645  23518341.491    23518350.306
  24288488.629    19850389.72549  15362939.28045  24288487.720    24288500.703
  23438120.494    -7486164.57649  -5656144.37545  23438120.237    23438131.084
  21908981.349     5389840.94849   4204899.18647  21908981.348    21908988.447
  23470214.858    -7971300.64449  -6198888.84045  23470214.030    23470225.480
  22259978.691     1869828.50249   1464157.38646  22259977.588    22259984.734
  20374322.135   -14192773.23349 -11051921.32448  20374321.671    20374327.519
  23993149.664    -6076399.15849  -4479816.52845  23993148.919    23993159.630
 03  4  9 20 12 30.0000000  0 10G17G15G29G 5G26G30G23G10G 6G18
  21598859.704   -17985235.77049 -14002147.05347  21598858.841    21598866.100
  24025543.247    -7824638.04949  -6087821.54045  24025542.363    24025552.774
  23508579.316    -9624675.10849  -7493670.47845  23508578.980    23508587.802
  24309024.838    19958306.76749  15447030.11645  24309023.872    24309037.071
  23422043.782    -7570647.47749  -5721974.96745  23422043.498    23422054.369
  21925914.478     5478824.89049   4274237.24347  21925914.485    21925921.628
  23450965.107    -8072457.90449  -6277712.49245  23450964.306    23450975.661
  22275768.121     1952802.59749   1528812.51546  22275766.987    22275774.153
  20370938.505   -14210554.26149 -11065776.67048  20370938.033    20370943.886
  23972540.526    -6184700.09849  -4564206.64445  23972539.877    23972550.313
 03  4  9 20 13  0.0000000  0 10G17G15G29G 5G26G30G23G10G 6G18
  21591014.675   -18026461.43249 -14034270.90747  21591013.822    21591021.077
  24010295.406    -7904765.26449  -6150258.19445  24010294.499    24010305.033
  23498883.023    -9675628.54049  -7533374.31645  23498882.722    23498891.517
  24329560.842    20066222.72149  15531120.06945  24329559.876    24329573.064
  23406005.803    -7654926.72749  -5787646.89845  23406005.530    23406016.347
  21942905.714     5568114.17849   4343813.23047  21942905.722    21942912.881
  23431754.217    -8173410.83349  -6356376.91745  23431753.445    23431764.706
  22291626.787     2036140.34749   1593751.02646  22291625.648    22291632.811
  20367623.856   -14227972.89249 -11079349.63148  20367623.378    20367629.221
  23951955.812    -6292872.68749  -4648496.75245  23951955.217    23951965.613
 03  4  9 20 13 30.0000000  0 10G17G15G29G 5G26G30G23G10G 6G18
  21583209.320   -18067478.62349 -14066232.32147  21583208.466    21583215.718
  23995071.548    -7984766.54649  -6212596.69645  23995070.729    23995081.162
  23489253.544    -9726231.44849  -7572805.01745  23489253.169    23489261.989
  24350096.040    20174134.35749  15615206.69545  24350095.119    24350108.353
  23390007.111    -7738999.60349  -5853158.01645  23390006.896    23390017.540
  21959954.421     5657705.31949   4413624.43647  21959954.430    21959961.631
  23412582.564    -8274157.92449  -6434880.97045  23412581.777    23412592.932
  22307554.009     2119838.45949   1658970.32546  22307552.863    22307560.031
  20364378.341   -14245028.20049 -11092639.47948  20364377.875    20364383.716
  23931395.810    -6400915.40649  -4732685.66945  23931395.191    23931405.608
 03  4  9 20 14  0.0000000  0 10G17G15G29G 5G26G30G23G10G 6G18
  21575443.704   -18108287.02749 -14098031.03647  21575442.852    21575450.109
  23979871.917    -8064640.66249  -6274836.13245  23979871.031    23979881.526
  23479691.354    -9776480.46949  -7611959.93645  23479690.958    23479699.708
  24370630.062    20282039.92149  15699288.55545  24370629.153    24370642.604
  23374048.499    -7822861.52449  -5918504.74745  23374048.304    23374058.877
  21977060.185     5747596.35249   4483669.31247  21977060.178    21977067.419
  23393450.654    -8374695.94949  -6513222.12745  23393449.892    23393460.989
  22323549.440     2203895.08549   1724468.99346  22323548.309    22323555.457
  20361202.365   -14261718.09449 -11105644.58948  20361201.893    20361207.725
  23910861.056    -6508825.12949  -4816770.94545  23910860.476    23910870.813
 03  4  9 20 14 30.0000000  0 10G17G15G29G 5G26G30G23G10G 6G18
  21567717.618   -18148887.71949 -14129667.90347  21567716.770    21567724.019
  23964696.317    -8144388.54849  -6336977.19145  23964695.357    23964705.846
  23470196.858    -9826373.73549  -7650837.65645  23470196.481    23470205.113
  24391162.233    20389935.99849  15783363.03745  24391161.489    24391174.752
  23358130.590    -7906509.81749  -5983685.03045  23358130.483    23358140.915
  21994222.274     5837783.38249   4553944.84447  21994222.257    21994229.499
  23374358.771    -8475023.70849  -6591399.42745  23374358.039    23374369.088
  22339612.471     2288306.69149   1790244.26246  22339611.309    22339618.469
  20358096.094   -14278041.72749 -11118364.29848  20358095.624    20358101.459
  23890352.005    -6616600.11349  -4900751.25745  23890351.385    23890361.670
 03  4  9 20 15  0.0000000  0 10G17G15G29G 5G26G30G23G10G 6G18
  21560031.124   -18189280.46349 -14161142.73347  21560030.282    21560037.511
  23949544.958    -8224009.15349  -6399019.08245  23949544.016    23949554.334
  23460770.650    -9875908.01149  -7689435.64845  23460770.267    23460779.002
  24411692.366    20497820.99449  15867428.83845  24411691.676    24411705.123
  23342254.089    -7989940.23049  -6048695.53945  23342254.025    23342264.436
  22011440.332     5928264.47749   4624449.51147  22011440.317    22011447.584
  23355307.534    -8575138.14349  -6669410.52545  23355306.738    23355317.793
  22355742.579     2373070.99449   1856294.34746  22355741.422    22355748.541
  20355059.897   -14293996.91049 -11130796.90748  20355059.426    20355065.255
  23869869.072    -6724237.62849  -4984624.41745  23869868.344    23869878.717
 03  4  9 20 15 30.0000000  0 10G17G15G29G 5G26G30G23G10G 6G18
  21552384.045   -18229465.87249 -14192456.00147  21552383.226    21552390.446
  23934417.673    -8303502.89049  -6460962.11845  23934416.748    23934426.992
  23451413.168    -9925081.36449  -7727752.40345  23451412.725    23451421.458
  24432219.793    20605691.58249  15951483.44445  24432219.046    24432232.407
  23326419.679    -8073149.99249  -6113534.12845  23326419.566    23326429.931
  22028713.619     6019035.97049   4695180.46047  22028713.609    22028720.887
  23336297.207    -8675037.66149  -6747254.16045  23336296.409    23336307.384
  22371939.121     2458184.41249   1922616.47546  22371937.969    22371945.067
  20352093.974   -14309582.88949 -11142941.82348  20352093.519    20352099.348
  23849412.590    -6831736.42549  -5068389.51145  23849411.956    23849422.142
 03  4  9 20 16  0.0000000  0 11G17G16G15G29G 5G26G30G23G10G 6G18
  21544775.701   -18269447.71349 -14223610.64747  21544774.873    21544782.102
  24748387.096    -4229980.86849  -3284229.26844  24748386.369    24748393.776
  23919314.018    -8382872.62549  -6522808.50645  23919313.134    23919323.319
  23442124.177    -9973894.57349  -7765788.54245  23442123.795    23442132.437
  24452743.392    20713542.33149  16035522.58045  24452742.508    24452756.172
  23310627.351    -8156138.52749  -6178200.31245  23310627.189    23310637.482
  22046040.990     6110091.66849   4766132.87047  22046040.983    22046048.264
  23317327.574    -8774722.98849  -6824930.89245  23317326.751    23317337.716
  22388201.011     2543641.10849   1989206.10646  22388199.852    22388206.973
  20349197.974   -14324801.52549 -11154800.50048  20349197.514    20349203.325
  23828982.393    -6939096.98049  -5152046.88045  23828981.829    23828991.992
 03  4  9 20 16 30.0000000  0 11G17G16G15G29G 5G26G30G23G10G 6G18
  21537207.081   -18309220.91749 -14254602.71947  21537206.253    21537213.482
  24732025.127    -4315963.95649  -3351229.08445  24732024.376    24732031.627
  23904234.905    -8462113.31549  -6584554.35945  23904234.063    23904244.193
  23432905.209   -10022340.04649  -7803538.10945  23432904.787    23432913.408
  24473263.711    20821375.67549  16119548.17145  24473262.724    24473276.666
  23294878.701    -8238897.45849  -6242687.60945  23294878.572    23294888.789
  22063422.887     6201433.81449   4837308.48647  22063422.880    22063430.199
  23298400.078    -8874187.10749  -6902435.26245  23298399.274    23298410.197
  22404528.632     2629443.36449   2056064.98146  22404527.458    22404534.599
  20346373.122   -14339646.30849 -11166367.86048  20346372.669    20346378.472
  23808579.792    -7046312.38349  -5235591.14445  23808579.164    23808589.370
 03  4  9 20 17  0.0000000  0 11G17G16G15G29G 5G26G30G23G10G 6G18
  21529677.916   -18348786.80149 -14285433.24347  21529677.095    21529684.302
  24715723.502    -4401629.71049  -3417981.60745  24715722.761    24715730.054
  23889180.179    -8541225.82749  -6646200.32245  23889179.335    23889189.512
  23423756.557   -10070416.06449  -7840999.79245  23423756.161    23423764.756
  24493780.086    20929188.23449  16203557.55645  24493779.219    24493793.219
  23279174.193    -8321424.12949  -6306993.91845  23279174.073    23279184.280
  22080858.552     6293058.53649   4908704.29046  22080858.550    22080865.892
  23279514.891    -8973428.75749  -6979766.27545  23279514.068    23279524.957
  22420921.255     2715587.11249   2123189.96246  22420920.080    22420927.247
  20343619.442   -14354116.86649 -11177643.62148  20343618.996    20343624.777
  23788205.120    -7153381.24849  -5319021.26045  23788204.449    23788214.681
 03  4  9 20 17 30.0000000  0 11G17G16G15G29G 5G26G30G23G10G 6G18
  21522188.180   -18388145.54849 -14316102.36047  21522187.360    21522194.548
  24699482.850    -4486975.23149  -3484484.58845  24699482.084    24699489.447
  23874149.903    -8620209.80749  -6707746.14045  23874149.011    23874159.245
  23414678.699   -10118120.13949  -7878171.64945  23414678.316    23414686.840
  24514291.989    21036977.62649  16287548.84245  24514291.189    24514305.241
  23263514.599    -8403715.00149  -6371116.51345  23263514.454    23263524.626
  22098347.469     6384963.01449   4980318.08246  22098347.452    22098354.819
  23260672.507    -9072445.54649  -7056922.07945  23260671.683    23260682.579
  22437378.366     2802069.75649   2190579.01446  22437377.227    22437384.348
  20340937.313   -14368211.52849 -11188626.47248  20340936.862    20340942.667
  23767858.834    -7260301.06449  -5402335.19545  23767858.055    23767868.327
 03  4  9 20 18  0.0000000  0 11G17G16G15G29G 5G26G30G23G10G 6G18
  21514737.714   -18427298.00949 -14346610.73847  21514736.898    21514744.056
  24683303.448    -4571998.61249  -3550736.56445  24683302.845    24683310.110
  23859144.040    -8699065.65349  -6769192.10745  23859143.089    23859153.370
  23405671.924   -10165450.42049  -7915052.25545  23405671.581    23405679.946
  24534798.860    21144740.76449  16371519.71945  24534798.081    24534812.144
  23247900.502    -8485766.89849  -6435052.89245  23247900.394    23247910.470
  22115888.940     6477143.78649   5052147.16846  22115888.899    22115896.344
  23241873.236    -9171235.80249  -7133901.36145  23241872.427    23241883.286
  22453899.340     2888887.95249   2258229.53246  22453898.230    22453905.327
  20338326.863   -14381929.63349 -11199315.90148  20338326.400    20338332.200
  23747541.191    -7367070.13849  -5485531.71645  23747540.430    23747550.657
 03  4  9 20 18 30.0000000  0 11G17G16G15G29G 5G26G30G23G10G 6G18
  21507326.337   -18466244.85949 -14376958.89447  21507325.508    21507332.661
  24667185.777    -4656697.54049  -3616735.69845  24667185.053    24667192.565
  23844162.559    -8777793.31049  -6830538.17545  23844161.630    23844171.896
  23396736.758   -10212404.36749  -7951639.62145  23396736.447    23396744.772
  24555300.370    21252475.17349  16455468.17745  24555299.519    24555313.711
  23232332.526    -8567576.52049  -6498800.46445  23232332.292    23232342.415
  22133482.426     6569597.84949   5124189.21446  22133482.429    22133489.847
  23223117.451    -9269797.50949  -7210702.54245  23223116.671    23223127.483
  22470483.640     2976039.02449   2326139.44146  22470482.499    22470489.631
  20335788.297   -14395269.78449 -11209710.81648  20335787.837    20335793.627
  23727252.583    -7473686.71249  -5568609.37445  23727251.856    23727261.939
 03  4  9 20 19  0.0000000  0 11G17G16G15G29G 5G26G30G23G10G 6G18
  21499954.077   -18504986.36849 -14407147.05447  21499953.252    21499960.381
  24651130.187    -4741069.71849  -3682480.21545  24651129.648    24651137.043
  23829205.426    -8856392.66249  -6891784.29145  23829204.536    23829214.745
  23387873.687   -10258979.78549  -7987932.03445  23387873.362    23387881.657
  24575795.896    21360178.10649  16539392.14245  24575795.230    24575809.287
  23216811.301    -8649140.39249  -6562356.56845  23216811.136    23216821.106
  22151127.338     6662322.11549   5196441.80346  22151127.334    22151134.780
  23204405.572    -9368128.56749  -7287323.99745  23204404.755    23204415.520
  22487130.699     3063519.83049   2394306.26946  22487129.584    22487136.702
  20333321.917   -14408230.76349 -11219810.27648  20333321.464    20333327.251
  23706993.412    -7580148.38649  -5651566.36345  23706992.751    23707002.750
 03  4  9 20 19 30.0000000  0 11G17G16G15G29G 5G26G30G23G10G 6G18
  21492620.864   -18543522.59149 -14437175.25047  21492620.029    21492627.147
  24635137.434    -4825112.20049  -3747967.84845  24635136.860    24635144.284
  23814272.805    -8934863.64749  -6952930.38245  23814271.883    23814282.107
  23379083.180   -10305173.88349  -8023927.32845  23379082.858    23379091.047
  24596284.969    21467847.46849  16623289.92245  24596284.266    24596298.690
  23201337.545    -8730454.77049  -6625718.25145  23201337.319    23201347.326
  22168823.138     6755313.88449   5268902.83146  22168823.113    22168830.589
  23185738.064    -9466226.49349  -7363763.78146  23185737.268    23185748.013
  22503839.999     3151327.64249   2462727.92346  22503838.887    22503845.978
  20330928.010   -14420810.82049 -11229612.91348  20330927.542    20330933.355
  23686764.173    -7686452.86849  -5734400.85145  23686763.515    23686773.484
 03  4  9 20 20  0.0000000  0 11G17G16G15G29G 5G26G30G23G10G 6G18
  21485326.593   -18581854.11949 -14467043.94347  21485325.768    21485332.860
  24619207.794    -4908822.99749  -3813197.00245  24619207.128    24619214.644
  23799364.582    -9013206.31549  -7013976.47645  23799363.684    23799373.851
  23370365.595   -10350984.67149  -8059623.95345  23370365.273    23370373.408
  24616767.147    21575480.40949  16707159.30845  24616766.337    24616780.916
  23185911.868    -8811516.51349  -6688883.07745  23185911.658    23185921.655
  22186569.246     6848569.96849   5341569.82246  22186569.228    22186576.713
  23167115.174    -9564089.60649  -7440020.59546  23167114.410    23167125.155
  22520610.932     3239459.31849   2531401.91546  22520609.816    22520616.905
  20328606.810   -14433008.82049 -11239117.84348  20328606.359    20328612.153
  23666565.241    -7792598.24549  -5817111.38445  23666564.648    23666574.444
 03  4  9 20 20 30.0000000  0 11G17G16G15G29G 5G26G30G23G10G 6G18
  21478071.240   -18619981.24849 -14496753.36547  21478070.401    21478077.473
  24603341.829    -4992199.09649  -3878165.37345  24603341.081    24603348.634
  23784480.865    -9091420.24649  -7074922.27045  23784479.907    23784490.000
  23361721.495   -10396409.21549  -8095019.60345  23361721.187    23361729.304
  24637241.903    21683074.77549  16790998.63345  24637241.092    24637255.776
  23170534.990    -8892321.81049  -6751848.07745  23170534.812    23170544.719
  22204365.168     6942087.69849   5414440.69046  22204365.168    22204372.660
  23148537.516    -9661715.27149  -7516092.36146  23148536.752    23148547.462
  22537442.999     3327912.38949   2600326.35846  22537441.904    22537449.002
  20326358.578   -14444823.21549 -11248323.86248  20326358.125    20326363.924
  23646397.066    -7898582.09649  -5899696.05745  23646396.491    23646406.187
 03  4  9 20 21  0.0000000  0 11G17G16G15G29G 5G26G30G23G10G 6G18
  21470854.717   -18657904.16349 -14526303.66147  21470853.887    21470860.935
  24587539.975    -5075238.48749  -3942871.37745  24587539.340    24587546.657
  23769621.664    -9169505.32049  -7135767.66745  23769620.714    23769630.767
  23353151.254   -10441445.45849  -8130112.67945  23353151.040    23353159.087
  24657709.020    21790628.04149  16874805.99745  24657708.225    24657722.786
  23155207.580    -8972867.17949  -6814610.53145  23155207.453    23155217.249
  22222210.239     7035863.94349   5487512.99846  22222210.254    22222217.756
  23130005.403    -9759101.59549  -7591977.61746  23130004.651    23130015.293
  22554335.691     3416683.91849   2669498.93046  22554334.599    22554341.713
  20324183.564   -14456253.04749 -11257230.22048  20324183.111    20324188.905
  23626260.043    -8004402.21349  -5982153.15845  23626259.451    23626269.148
 03  4  9 20 21 30.0000000  0 11G17G16G15G29G 5G26G30G23G10G 6G18
  21463676.954   -18695623.45749 -14555695.28947  21463676.116    21463683.176
  24571802.683    -5157938.55749  -4007312.98145  24571802.135    24571809.361
  23754787.056    -9247461.38149  -7196512.53945  23754786.104    23754796.099
  23344655.435   -10486090.87849  -8164901.23645  23344655.162    23344663.167
  24678167.700    21898137.69649  16958579.33045  24678166.870    24678181.624
  23139930.346    -9053148.95349  -6877167.60345  23139930.280    23139940.036
  22240103.972     7129895.77849   5560784.46046  22240103.947    22240111.486
  23111519.248    -9856246.26949  -7667674.58046  23111518.469    23111529.108
  22571288.435     3505771.12549   2738917.49146  22571287.343    22571294.472
  20322082.025   -14467296.71849 -11265835.67548  20322081.576    20322087.365
  23606154.634    -8110056.39249  -6064480.94045  23606154.020    23606163.700
 03  4  9 20 22  0.0000000  0 11G17G16G15G29G 5G26G30G23G10G 6G18
  21456537.908   -18733139.28249 -14584928.37247  21456537.069    21456544.119
  24556130.405    -5240297.13749  -4071488.48545  24556129.795    24556136.904
  23739976.985    -9325288.45349  -7257156.90345  23739976.026    23739985.964
  23336234.409   -10530343.32249  -8199383.58745  23336234.081    23336242.164
  24698617.559    22005600.93849  17042316.49645  24698616.664    24698631.615
  23124703.876    -9133164.07049  -6939516.86545  23124703.810    23124713.527
  22258045.725     7224179.95049   5634252.54946  22258045.715    22258053.249
  23093079.441    -9953147.55149  -7743181.86446  23093078.675    23093089.251
  22588300.666     3595170.92149   2808579.63846  22588299.585    22588306.690
  20320054.184   -14477953.13549 -11274139.37748  20320053.710    20320059.512
  23586081.149    -8215542.76349  -6146677.98645  23586080.496    23586090.169
 03  4  9 20 22 30.0000000  0 11G17G16G15G29G 5G26G30G23G10G 6G18
  21449437.478   -18770452.18149 -14614003.32947  21449436.644    21449443.695
  24540523.568    -5322311.62549  -4135395.87445  24540522.770    24540530.095
  23725191.475    -9402986.37249  -7317700.62745  23725190.533    23725200.423
  23327888.635   -10574200.38349  -8233557.83345  23327888.299    23327896.397
  24719058.269    22113015.55449  17126015.81545  24719057.362    24719072.532
  23109528.813    -9212908.88249  -7001655.48945  23109528.676    23109538.383
  22276035.016     7318713.81049   5707915.20346  22276034.992    22276042.566
  23074686.331   -10049803.04949  -7818497.62646  23074685.578    23074696.150
  22605371.869     3684880.55849   2878483.19946  22605370.777    22605377.897
  20318100.284   -14488220.89949 -11282140.22848  20318099.832    20318105.595
  23566040.022    -8320859.09849  -6228742.52545  23566039.361    23566049.011
 03  4  9 20 23  0.0000000  0 11G17G16G15G29G 5G26G30G23G10G 6G18
  21442375.640   -18807562.27149 -14642920.25647  21442374.793    21442381.841
  24524982.636    -5403979.64349  -4199033.25845  24524981.978    24524989.271
  23710430.606    -9480554.75249  -7378143.42645  23710429.681    23710439.469
  23319618.564   -10617659.69449  -8267422.13745  23319618.205    23319626.211
  24739489.158    22220379.31349  17209675.47345  24739488.428    24739503.356
  23094405.865    -9292379.88449  -7063580.77345  23094405.736    23094415.425
  22294071.203     7413494.23249   5781769.97346  22294071.216    22294078.776
  23056340.448   -10146210.65649  -7893620.21846  23056339.648    23056350.213
  22622501.491     3774897.07849   2948625.91246  22622500.329    22622507.476
  20316220.582   -14498098.82949 -11289837.31548  20316220.104    20316225.886
  23546031.644    -8426003.29649  -6310672.91845  23546030.972    23546040.585
 03  4  9 20 23 30.0000000  0 11G17G16G15G29G 5G26G30G23G10G 6G18
  21435352.394   -18844469.61649 -14671679.20147  21435351.555    21435358.599
  24509508.142    -5485298.66549  -4262398.70245  24509507.551    24509514.710
  23695694.341    -9557993.71849  -7438485.37745  23695693.413    23695703.214
  23311424.617   -10660718.76249  -8300974.58345  23311424.247    23311432.187
  24759909.961    22327689.80349  17293293.62345  24759908.942    24759924.391
  23079335.708    -9371573.43849  -7125289.85145  23079335.549    23079345.245
  22312153.786     7508518.43149   5855814.69946  22312153.787    22312161.355
  23038042.114   -10242368.14749  -7968547.90546  23038041.336    23038051.859
  22639689.015     3865217.88249   3019005.70046  22639687.850    22639695.025
  20314415.338   -14507585.43949 -11297229.48148  20314414.883    20314420.665
  23526056.514    -8530972.84549  -6392467.22945  23526055.791    23526065.359
 03  4  9 20 24  0.0000000  0 11G17G16G15G29G 5G26G30G23G10G 6G18
  21428367.611   -18881174.75849 -14700280.58447  21428366.790    21428373.827
  24494100.478    -5566266.30749  -4325490.33445  24494099.967    24494107.137
  23680982.820    -9635302.92349  -7498726.22345  23680981.898    23680991.656
  23303307.273   -10703375.27149  -8334213.34745  23303306.847    23303314.947
  24780320.261    22434944.64549  17376868.43345  24780319.202    24780334.558
  23064319.002    -9450486.01949  -7186779.98945  23064318.834    23064328.475
  22330282.192     7603783.52849   5930047.13846  22330282.187    22330289.780
  23019791.801   -10338273.43149  -8043279.07146  23019791.041    23019801.493
  22656933.859     3955839.98749   3089620.28446  22656932.671    22656939.906
  20312684.827   -14516679.26649 -11304315.57948  20312684.361    20312690.136
  23506114.999    -8635765.56649  -6474123.73045  23506114.246    23506123.760
 03  4  9 20 24 30.0000000  0 11G17G16G15G29G 5G26G30G23G10G 6G18
  21421421.166   -18917678.43249 -14728724.98247  21421420.319    21421427.372
  24478760.143    -5646879.98649  -4388306.16245  24478759.738    24478766.822
  23666295.995    -9712482.36249  -7558865.95145  23666295.025    23666304.786
  23295266.991   -10745627.07849  -8367136.77045  23295266.543    23295274.631
  24800719.381    22542141.38949  17460397.94045  24800718.299    24800733.955
  23049356.441    -9529114.12749  -7248048.46245  23049356.264    23049365.848
  22348455.846     7699286.25849   6004464.74546  22348455.826    22348463.426
  23001589.854   -10433924.43049  -8117812.09546  23001589.122    23001599.434
  22674235.496     4046760.56449   3160467.43246  22674234.314    22674241.562
  20311029.307   -14525379.15149 -11311094.70648  20311028.837    20311034.635
  23486207.529    -8740379.54149  -6555640.95345  23486206.798    23486216.233
 03  4  9 20 25  0.0000000  0 10G17G16G15G29G26G30G23G10G 6G18
  21414513.086   -18953980.58949 -14757012.35447  21414512.232    21414519.293
  24463487.655    -5727137.30449  -4450844.29745  24463487.011    24463494.196
  23651633.875    -9789531.92049  -7618904.48045  23651632.976    23651642.673
  23287304.187   -10787471.66149  -8399742.84946  23287303.676    23287311.743
  23034448.697    -9607454.22649  -7309092.51245  23034448.564    23034458.083
  22366674.224     7795023.96949   6079065.44246  22366674.224    22366681.822
  22983436.700   -10529319.00849  -8192145.29446  22983435.979    22983446.222
  22691593.469     4137977.06949   3231545.16746  22691592.277    22691599.511
  20309448.987   -14533683.70049 -11317565.78548  20309448.521    20309454.305
  23466334.553    -8844812.30049  -6637016.94645  23466333.835    23466343.251
 03  4  9 20 25 30.0000000  0 10G17G16G15G29G26G30G23G10G 6G18
  21407643.647   -18990079.47349 -14785141.33247  21407642.807    21407649.863
  24448283.769    -5807034.08149  -4513101.49045  24448283.047    24448290.317
  23636996.851    -9866449.51949  -7678840.18045  23636995.918    23637005.637
  23279419.577   -10828905.02249  -8432028.50546  23279419.174    23279427.205
  23019596.750    -9685501.06649  -7369908.05045  23019596.615    23019606.018
  22384937.072     7890995.48049   6153848.32946  22384937.080    22384944.715
  22965333.141   -10624453.19749  -8266275.62346  22965332.382    22965342.552
  22709007.522     4229488.42949   3302852.69346  22709006.352    22709013.603
  20307944.529   -14541589.70549 -11323726.31048  20307944.073    20307949.847
  23446496.793    -8949059.69149  -6718248.49645  23446496.039    23446505.485
 03  4  9 20 26  0.0000000  0 10G17G16G15G29G26G30G23G10G 6G18
  21400812.314   -19025978.25449 -14813114.38647  21400811.457    21400818.519
  24433148.402    -5886570.83649  -4575078.15745  24433147.704    24433154.892
  23622384.406    -9943238.04849  -7738675.30545  23622383.505    23622393.105
  23271613.101   -10869927.74249  -8463994.17646  23271612.728    23271620.758
  23004800.731    -9763253.93249  -7430494.49945  23004800.559    23004809.980
  22403243.326     7987195.01349   6228808.88646  22403243.318    22403251.001
  22947278.990   -10719327.73549  -8340203.61246  22947278.190    22947288.316
  22726476.596     4321288.93749   3374385.49246  22726475.498    22726482.691
  20306515.605   -14549098.81049 -11329577.55848  20306515.142    20306520.935
  23426694.122    -9053122.79749  -6799336.40745  23426693.417    23426702.847
 03  4  9 20 26 30.0000000  0 10G17G16G15G29G26G30G23G10G 6G18
  21394019.062   -19061676.90649 -14840931.49347  21394018.209    21394025.259
  24418082.123    -5965744.49949  -4636771.89945  24418081.464    24418088.745
  23607796.711   -10019896.63449  -7798409.17045  23607795.763    23607805.427
  23263885.419   -10910536.59549  -8495637.35246  23263885.107    23263893.019
  22990061.446    -9840708.64649  -7490848.63045  22990061.262    22990070.683
  22421592.514     8083620.35349   6303945.40246  22421592.514    22421600.240
  22929274.727   -10813939.94249  -8413927.21246  22929273.874    22929284.008
  22744000.344     4413376.54549   3446142.02346  22743999.217    22744006.442
  20305162.604   -14556208.92049 -11335117.90648  20305162.129    20305167.918
  23406927.050    -9156998.65349  -6880278.42445  23406926.372    23406935.771
 03  4  9 20 27  0.0000000  0 10G17G16G15G29G26G30G23G10G 6G18
  21387263.815   -19097175.91349 -14868593.03447  21387262.966    21387269.989
  24403085.395    -6044552.73349  -4698180.88445  24403084.866    24403092.012
  23593233.709   -10096425.30949  -7858041.79545  23593232.735    23593242.446
  23256236.860   -10950729.97049  -8526956.78246  23256236.453    23256244.315
  22975379.493    -9917861.99349  -7550967.96045  22975379.356    22975388.713
  22439984.059     8180267.99949   6379255.13746  22439984.072    22439991.807
  22911320.746   -10908288.05449  -8487445.01646  22911319.894    22911329.956
  22761578.135     4505748.14249   3518119.85646  22761577.008    22761584.232
  20303885.663   -14562919.22349 -11340346.71548  20303885.193    20303890.990
  23387195.967    -9260685.37249  -6961073.03945  23387195.272    23387204.656
 03  4  9 20 27 30.0000000  0 10G17G16G15G29G26G30G23G10G 6G18
  21380546.526   -19132475.37949 -14896099.08947  21380545.696    21380552.710
  24388158.644    -6122993.30749  -4759303.37545  24388158.080    24388164.990
  23578695.490   -10172823.90349  -7917573.07645  23578694.540    23578704.156
  23248667.789   -10990505.48649  -8557950.60346  23248667.343    23248675.274
  22960755.562    -9994710.44549  -7610849.69245  22960755.450    22960764.726
  22458417.345     8277135.21149   6454735.97046  22458417.351    22458425.117
  22893417.433   -11002369.83749  -8560755.31046  22893416.588    22893426.575
  22779209.357     4598400.68949   3590316.59046  22779208.203    22779215.454
  20302685.103   -14569228.30449 -11345262.88148  20302684.624    20302690.431
  23367501.311    -9364180.76149  -7041718.57345  23367500.616    23367509.943
 03  4  9 20 28  0.0000000  0 10G17G16G15G29G26G30G23G10G 6G18
  21373867.295   -19167574.92549 -14923449.36247  21373866.460    21373873.456
  24373302.389    -6201063.19849  -4820137.03245  24373301.824    24373308.691
  23564182.167   -10249091.67249  -7977002.40345  23564181.168    23564190.801
  23241178.785   -11029860.18349  -8588616.51746  23241178.387    23241186.251
  22946190.487   -10071249.80849  -7670490.57545  22946190.343    22946199.585
  22476891.996     8374219.69549   6530386.09846  22476892.042    22476899.791
  22875565.313   -11096182.54949  -8633855.95046  22875564.476    22875574.407
  22796893.655     4691332.11349   3662730.64646  22796892.510    22796899.796
  20301561.247   -14575134.26649 -11349864.93048  20301560.762    20301566.563
  23347843.555    -9467482.05649  -7122212.83445  23347842.874    23347852.179
 03  4  9 20 28 30.0000000  0 10G17G16G15G29G26G30G23G10G 6G18
  21367225.988   -19202475.19449 -14950644.35347  21367225.148    21367232.130
  24358517.063    -6278760.26749  -4880680.13645  24358516.490    24358523.509
  23549693.623   -10325229.03849  -8036330.12145  23549692.627    23549702.190
  23233770.144   -11068792.37849  -8618953.20846  23233769.736    23233777.525
  22931684.755   -10147477.16749  -7729888.36345  22931684.566    22931693.841
  22495407.345     8471517.97749   6606202.81146  22495407.354    22495415.166
  22857764.677   -11189724.76849  -8706745.83446  22857763.829    22857773.709
  22814630.430     4784539.37249   3735359.62846  22814629.271    22814636.601
  20300514.181   -14580636.48149 -11354152.37548  20300513.717    20300519.516
  23328223.047    -9570587.53849  -7202554.51345  23328222.408    23328231.627
 03  4  9 20 29  0.0000000  0 10G17G16G15G29G26G30G23G10G 6G18
  21360622.527   -19237176.37749 -14977684.21447  21360621.689    21360628.686
  24343803.232    -6356081.91049  -4940930.75045  24343802.666    24343809.633
  23535229.994   -10401235.59349  -8095555.88345  23535228.970    23535238.533
  23226442.386   -11107299.51849  -8648958.68546  23226441.999    23226449.800
  22917239.146   -10223388.60249  -7789039.97445  22917238.975    22917248.195
  22513962.857     8569027.42149   6682184.07346  22513962.848    22513970.686
  22840016.002   -11282994.03949  -8779423.02846  22840015.157    22840024.967
  22832419.216     4878019.74749   3808201.43146  22832418.056    22832425.385
  20299544.280   -14585733.34149 -11358123.95748  20299543.808    20299549.613
  23308640.285    -9673494.76549  -7282741.72346  23308639.645    23308648.774
 03  4  9 20 29 30.0000000  0 10G17G16G15G29G26G30G23G10G 6G18
  21354056.909   -19271678.96949 -15004569.32647  21354056.085    21354063.060
  24329161.201    -6433026.12449  -5000887.21145  24329160.673    24329167.623
  23520791.234   -10477111.22549  -8154679.64945  23520790.256    23520799.713
  23219195.918   -11145379.78949  -8678631.54846  23219195.466    23219203.334
  22902854.300   -10298980.94849  -7847942.94245  22902854.094    22902863.335
  22532557.983     8666744.88949   6758327.41846  22532558.004    22532565.838
  22822319.612   -11375988.43349  -8851886.05546  22822318.748    22822328.530
  22850259.446     4971770.41849   3881253.85846  22850258.245    22850265.551
  20298651.750   -14590423.68649 -11361778.77648  20298651.266    20298657.091
  23289095.584    -9776201.80649  -7362772.94646  23289094.925    23289104.056
 03  4  9 20 30  0.0000000  0 10G17G16G15G29G26G30G23G10G 6G18
  21347529.036   -19305983.04049 -15031299.74547  21347528.204    21347535.167
  24314591.411    -6509590.58749  -5060547.80745  24314590.688    24314597.952
  23506377.402   -10552856.12349  -8213701.52745  23506376.375    23506385.849
  23212031.068   -11183031.03249  -8707970.10446  23212030.636    23212038.418
  22888530.829   -10374250.66749  -7906594.52445  22888530.650    22888539.784
  22551192.121     8764667.41749   6834630.56446  22551192.145    22551200.021
  22804675.940   -11468706.01249  -8924133.39746  22804675.102    22804684.778
  22868150.500     5065788.46049   3954514.61846  22868149.330    22868156.627
  20297836.778   -14594706.46049 -11365116.00748  20297836.290    20297842.113
  23269589.408    -9878706.49149  -7442646.48146  23269588.739    23269597.865
 03  4  9 20 30 30.0000000  0 10G17G16G15G29G26G30G23G10G 6G18
  21341038.862   -19340089.16449 -15057875.92147  21341038.037    21341044.972
  24300094.459    -6585772.45149  -5119910.24045  24300093.735    24300101.006
  23491988.501   -10628469.88149  -8272621.22145  23491987.516    23491996.952
  23204948.395   -11220250.65549  -8736972.34846  23204947.889    23204955.710
  22874269.413   -10449194.17349  -7964991.92746  22874269.174    22874278.390
  22569864.760     8862792.32449   6911091.39046  22569864.777    22569872.702
  22787085.346   -11561144.58649  -8996163.33846  22787084.520    22787094.164
  22886091.959     5160071.30449   4027981.73346  22886090.808    22886098.088
  20297099.620   -14598580.10449 -11368134.43848  20297099.131    20297104.963
  23250122.217    -9981006.33949  -7522360.41946  23250121.556    23250130.556
 03  4  9 20 31  0.0000000  0 10G17G16G15G29G26G30G23G10G 6G18
  21334586.215   -19373997.82549 -15084298.22947  21334585.374    21334592.325
  24285670.612    -6661570.05049  -5178973.28645  24285669.931    24285677.182
  23477624.583   -10703952.51649  -8331438.74845  23477623.580    23477632.955
  23197948.112   -11257036.96649  -8765636.94246  23197947.606    23197955.471
  22860070.698   -10523808.33249  -8023132.69446  22860070.453    22860079.653
  22588575.288     8961116.22449   6987707.28446  22588575.275    22588583.217
  22769548.145   -11653302.42049  -9067974.53046  22769547.301    22769556.934
  22904083.187     5254615.83949   4101652.75146  22904082.034    22904089.375
  20296440.493   -14602043.84549 -11370833.45948  20296440.017    20296445.846
  23230694.354   -10083099.68449  -7601913.44546  23230693.646    23230702.642
 03  4  9 20 31 30.0000000  0 10G17G16G15G29G26G30G23G10G 6G18
  21328171.178   -19407709.01749 -15110566.66547  21328170.335    21328177.300
  24271320.383    -6736980.70649  -5237734.78145  24271319.715    24271327.053
  23463285.628   -10779303.80849  -8390153.91045  23463284.626    23463294.002
  23191030.734   -11293387.75449  -8793962.17546  23191030.265    23191038.052
  22845935.357   -10598089.46849  -8081013.98146  22845935.138    22845944.253
  22607323.127     9059636.37449   7064476.09946  22607323.136    22607331.120
  22752064.878   -11745177.11249  -9139565.10246  22752064.034    22752073.634
  22922123.805     5349419.62549   4175525.80346  22922122.645    22922129.988
  20295859.663   -14605096.24649 -11373211.95848  20295859.189    20295865.019
  23211306.262   -10184984.02149  -7681303.63746  23211305.508    23211314.452
 03  4  9 20 32  0.0000000  0 10G17G16G15G29G26G30G23G10G 6G18
  21321793.539   -19441223.61649 -15136681.91147  21321792.690    21321799.651
  24257044.273    -6812002.42449  -5296193.23545  24257043.627    24257050.804
  23448971.613   -10854524.10849  -8448767.01645  23448970.576    23448980.015
  23184196.597   -11329301.11749  -8821946.57346  23184196.175    23184203.877
  22831864.030   -10672034.29249  -8138633.20446  22831863.840    22831872.916
  22626107.727     9158349.62549   7141395.37846  22626107.692    22626115.783
  22734635.798   -11836767.05449  -9210933.79046  22734634.930    22734644.533
  22940213.113     5444479.43249   4249598.32646  22940211.942    22940219.307
  20295357.234   -14607736.49149 -11375269.29548  20295356.767    20295362.585
  23191958.246   -10286657.54649  -7760529.56146  23191957.522    23191966.355
 03  4  9 20 32 30.0000000  0 10G17G16G15G29G26G30G23G10G 6G18
  21315453.405   -19474541.23149 -15162643.66447  21315452.559    21315459.515
  24242842.570    -6886632.82049  -5354346.74645  24242841.979    24242849.160
  23434682.578   -10929612.99349  -8507277.71945  23434681.578    23434690.988
  23177446.048   -11364774.97749  -8849588.49546  23177445.628    23177453.368
  22817857.377   -10745639.30649  -8195987.66246  22817857.186    22817866.206
  22644928.538     9257253.05449   7218462.85246  22644928.492    22644936.610
  22717261.275   -11928070.22249  -9282079.03646  22717260.428    22717270.015
  22958350.686     5539792.70049   4323868.34346  22958349.496    22958356.820
  20294933.490   -14609963.32249 -11377004.49248  20294933.010    20294938.837
  23172650.748   -10388118.35149  -7839589.75446  23172650.019    23172658.822
 03  4  9 20 33  0.0000000  0 10G17G16G15G29G26G30G23G10G 6G18
  21309150.606   -19507662.53649 -15188452.44947  21309149.763    21309156.724
  24228715.792    -6960869.44449  -5412193.42745  24228715.100    24228722.342
  23420418.546   -11004570.48149  -8565686.03945  23420417.573    23420426.950
  23170779.608   -11399807.20149  -8876886.28346  23170779.203    23170786.893
  22803916.023   -10818901.16249  -8253074.71346  22803915.838    22803924.717
  22663784.947     9356343.59849   7295676.12846  22663784.898    22663793.065
  22699941.721   -12019084.68249  -9352999.31346  22699940.878    22699950.421
  22976535.878     5635356.22849   4398333.38246  22976534.695    22976542.027
  20294588.667   -14611775.51549 -11378416.59448  20294588.199    20294594.003
  23153384.132   -10489364.33549  -7918482.56446  23153383.427    23153392.139
 03  4  9 20 33 30.0000000  0 10G17G16G15G29G26G30G23G10G 6G18
  21302885.109   -19540587.82249 -15214108.49447  21302884.290    21302891.227
  24214664.365    -7034709.92949  -5469731.43145  24214663.787    24214670.758
  23406179.523   -11079396.32949  -8623991.77845  23406178.660    23406187.934
  23164197.605   -11434395.65249  -8903838.27446  23164197.170    23164204.859
  22790040.689   -10891816.25149  -8309891.56546  22790040.503    22790049.387
  22682676.460     9455618.63449   7373033.14546  22682676.439    22682684.625
  22682677.530   -12109808.20349  -9423692.88746  22682676.670    22682686.199
  22994768.251     5731167.72049   4472991.66846  22994767.064    22994774.395
  20294322.967   -14613171.80849 -11379504.61548  20294322.483    20294328.297
  23134158.845   -10590393.12249  -7997206.14046  23134158.156    23134166.804
 03  4  9 20 34  0.0000000  0 10G17G16G15G29G26G30G23G10G 6G18
  21296656.881   -19573317.27149 -15239611.93747  21296656.042    21296662.991
  24200688.648    -7108152.64249  -5526959.47945  24200688.072    24200695.078
  23391965.549   -11154090.86449  -8682195.20445  23391964.680    23391973.864
  23157700.343   -11468538.67149  -8930443.20646  23157699.928    23157707.620
  22776231.846   -10964381.56649  -8366435.87146  22776231.673    22776240.495
  22701602.400     9555074.54549   7450531.12446  22701602.387    22701610.594
  22665469.017   -12200239.21149  -9494158.52446  22665468.153    22665477.659
  23013047.258     5827224.35849   4547840.93746  23013046.030    23013053.425
  20294136.567   -14614151.42649 -11380267.96048  20294136.102    20294141.890
  23114975.225   -10691202.95449  -8075759.12246  23114974.546    23114983.117
 03  4  9 20 34 30.0000000  0 10G17G16G15G29G26G30G23G10G 6G18
  21290465.889   -19605850.97649 -15264962.86047  21290465.058    21290472.013
  24186789.220    -7181194.53049  -5583875.18845  24186788.565    24186795.633
  23377776.709   -11228653.34449  -8740295.73945  23377775.813    23377785.010
  23151288.332   -11502233.61049  -8956698.97446  23151287.967    23151295.635
  22762490.392   -11036593.05649  -8422704.47446  22762490.226    22762499.022
  22720562.347     9654709.25349   7528168.41146  22720562.352    22720570.580
  22648316.676   -12290375.24149  -9564394.30346  22648315.797    22648325.271
  23031372.441     5923523.54849   4622879.19946  23031371.224    23031378.644
  20294029.774   -14614712.64449 -11380705.27748  20294029.306    20294035.101
  23095833.831   -10791791.20749  -8154139.46146  23095833.118    23095841.644
 03  4  9 20 35  0.0000000  0 10G17G16G15G29G26G30G23G10G 6G18
  21284312.018   -19638189.72149 -15290161.86247  21284311.188    21284318.125
  24172966.340    -7253834.25549  -5640477.54045  24172965.604    24172972.735
  23363612.879   -11303084.22749  -8798293.72445  23363612.008    23363621.085
  23144961.887   -11535479.38949  -8982604.74146  23144961.497    23144969.098
  22748816.762   -11108448.14649  -8478695.35046  22748816.532    22748825.311
  22739555.599     9754518.92449   7605942.04146  22739555.582    22739563.873
  22631220.630   -12380215.21749  -9634399.38846  22631219.762    22631229.233
  23049743.062     6020061.78049   4698103.77146  23049741.886    23049749.308
  20294002.683   -14614855.06049 -11380816.25548  20294002.215    20294008.003
  23076734.879   -10892156.42849  -8232346.00546  23076734.179    23076742.648
 03  4  9 20 35 30.0000000  0 10G17G16G15G29G26G30G23G10G 6G18
  21278195.187   -19670333.82349 -15315209.19847  21278194.363    21278201.306
  24159220.483    -7326069.11349  -5696764.40745  24159219.820    24159226.836
  23349474.119   -11377383.32749  -8856189.02445  23349473.306    23349482.331
  23138721.336   -11568273.50749  -9008158.57446  23138720.966    23138728.543
  22735211.697   -11179942.99949  -8534405.52646  22735211.431    22735220.208
  22758581.643     9854500.81849   7683849.85446  22758581.632    22758589.908
  22614181.386   -12469756.70749  -9704171.88046  22614180.528    22614189.998
  23068158.718     6116836.58649   4773512.68146  23068157.607    23068165.017
  20294055.536   -14614577.26449 -11380599.79348  20294055.058    20294060.875
  23057678.818   -10992296.14949  -8310376.86746  23057678.092    23057686.524
 03  4  9 20 36  0.0000000  0 10G17G16G15G29G26G30G23G10G 6G18
  21272115.438   -19702283.03449 -15340104.67147  21272114.612    21272121.536
  24145552.155    -7397896.74349  -5752733.95645  24145551.452    24145558.509
  23335360.550   -11451550.54449  -8913981.56845  23335359.697    23335368.685
  23132567.125   -11600614.21349  -9033359.09046  23132566.767    23132574.301
  22721675.796   -11251074.27349  -8589832.40946  22721675.572    22721684.250
  22777639.906     9954652.09149   7761889.64646  22777639.918    22777648.218
  22597199.289   -12558997.75149  -9773710.23946  22597198.455    22597207.909
  23086618.941     6213845.44049   4849103.92746  23086617.748    23086625.202
  20294188.580   -14613878.11749 -11380055.00748  20294188.106    20294193.921
  23038666.029   -11092208.45949  -8388230.51446  23038665.324    23038673.719
 03  4  9 20 36 30.0000000  0 10G17G16G15G29G26G30G23G10G 6G18
  21266072.652   -19734038.03249 -15364848.81047  21266071.835    21266078.745
  24131961.755    -7469314.83649  -5808384.37445  24131961.031    24131968.148
  23321272.052   -11525585.70649  -8971671.20645  23321271.230    23321280.145
  23126499.582   -11632499.29349  -9058204.60446  23126499.168    23126506.762
  22708209.729   -11321838.52149  -8644973.30646  22708209.524    22708218.206
  22796729.896    10054969.98749   7840059.28846  22796729.882    22796738.202
  22580274.754   -12647936.42049  -9843012.98746  22580273.932    22580283.315
  23105123.163     6311085.63049   4924875.45646  23105121.997    23105129.479
  20294402.005   -14612756.52949 -11379181.05248  20294401.538    20294407.336
  23019696.962   -11191891.19149  -8465905.27946  23019696.276    23019704.634
 03  4  9 20 37  0.0000000  0 10G17G16G15G29G26G30G23G10G 6G18
  21260066.781   -19765599.01949 -15389441.77547  21260065.953    21260072.877
  24118449.599    -7540321.61849  -5863714.30045  24118448.835    24118456.110
  23307208.575   -11599489.14149  -9029258.21145  23307207.746    23307216.675
  23120519.001   -11663927.14749  -9082693.79746  23120518.628    23120526.204
  22694814.090   -11392232.63449  -8699825.75646  22694813.828    22694822.538
  22815850.904    10155451.06449   7918356.07746  22815850.885    22815859.263
  22563408.082   -12736571.10449  -9912078.84746  22563407.219    22563416.628
  23123670.806     6408554.11149   5000824.86146  23123669.646    23123677.132
  20294696.015   -14611211.50849 -11377977.14248  20294695.545    20294701.357
  23000771.930   -11291342.42049  -8543399.67546  23000771.218    23000779.550
 03  4  9 20 37 30.0000000  0 10G17G16G15G29G26G30G23G10G 6G18
  21254097.742   -19796966.58749 -15413884.02447  21254096.925    21254103.835
  24105016.165    -7610914.67549  -5918721.84245  24105015.345    24105022.575
  23293170.359   -11673260.01349  -9086741.90945  23293169.524    23293178.483
  23114625.903   -11694895.66649  -9106825.09746  23114625.548    23114633.061
  22681489.605   -11462252.87449  -8754386.90946  22681489.352    22681498.050
  22835002.519    10256092.79249   7996778.03346  22835002.536    22835010.927
  22546599.643   -12824899.55349  -9980906.07646  22546598.794    22546608.149
  23142261.469     6506248.38349   5076950.23746  23142260.337    23142267.750
  20295070.857   -14609241.83149 -11376442.33948  20295070.405    20295076.193
  22981891.435   -11390559.74349  -8620711.78946  22981890.748    22981899.051
 03  4  9 20 38  0.0000000  0 10G17G16G15G29G26G30G23G10G 6G18
  21248165.483   -19828140.71749 -15438175.54147  21248164.652    21248171.578
  24091661.866    -7681091.94049  -5973405.38745  24091661.170    24091668.241
  23279157.362   -11746898.60749  -9144122.54245  23279156.455    23279165.393
  23108820.460   -11725403.25749  -9130597.21046  23108820.166    23108827.681
  22668236.846   -11531896.29149  -8808654.41446  22668236.647    22668245.195
  22854184.021    10356891.84149   8075322.58846  22854184.038    22854192.432
  22529849.771   -12912920.31749 -10049493.53746  22529848.920    22529858.283
  23160894.486     6604165.48749   5153249.24346  23160893.377    23160900.810
  20295526.611   -14606846.81549 -11374576.09648  20295526.150    20295531.966
  22963055.691   -11489541.80249  -8697840.58846  22963055.018    22963063.307
 03  4  9 20 38 30.0000000  0 10G17G16G15G29G26G30G23G10G 6G18
  21242269.971   -19859121.79249 -15462316.63047  21242269.143    21242276.050
  24078387.111    -7750850.99649  -6027763.07445  24078386.350    24078393.471
  23265169.574   -11820404.69449  -9201399.92245  23265168.620    23265177.520
  23103103.174   -11755447.76949  -9154008.50546  23103102.814    23103110.353
  22655056.476   -11601159.21449  -8862625.42446  22655056.301    22655064.831
  22873394.996    10457845.57849   8153987.68546  22873394.998    22873403.443
  22513158.833   -13000631.31649 -10117839.62346  22513157.996    22513167.318
  23179569.428     6702302.88049   5229719.89446  23179568.309    23179575.744
  20296063.511   -14604025.28549 -11372377.51348  20296063.048    20296068.869
  22944265.207   -11588286.04549  -8774784.05346  22944264.486    22944272.826
 03  4  9 20 39  0.0000000  0 10G17G16G15G29G26G30G23G10G 6G18
  21236411.060   -19889910.55849 -15486307.86347  21236410.209    21236417.110
  24065192.268    -7820190.22849  -6081793.62245  24065191.475    24065198.541
  23251206.868   -11893778.69749  -9258574.37445  23251205.926    23251214.807
  23097474.312   -11785027.89449  -9177057.92246  23097473.902    23097481.363
  22641949.042   -11670038.86149  -8916297.78446  22641948.865    22641957.343
  22892634.787    10558950.58949   8232770.64446  22892634.798    22892643.316
  22496527.118   -13088030.98449 -10185943.10646  22496526.309    22496535.575
  23198285.691     6800657.28349   5306359.62746  23198284.592    23198292.000
  20296681.745   -14600776.49349 -11369845.99348  20296681.300    20296687.107
  22925520.280   -11686790.92149  -8851541.00046  22925519.563    22925527.873
 03  4  9 20 39 30.0000000  0 10G17G16G15G29G26G30G23G10G 6G18
  21230588.876   -19920506.28549 -15510148.67947  21230588.040    21230594.919
  24052077.851    -7889106.91949  -6135494.93645  24052077.044    24052084.181
  23237269.456   -11967020.00549  -9315645.44945  23237268.483    23237277.341
  23091934.172   -11814141.16449  -9199743.56346  23091933.807    23091941.268
  22628915.275   -11738531.26249  -8969668.39146  22628915.128    22628923.594
  22911902.847    10660204.29949   8311669.46246  22911902.849    22911911.388
  22479955.097   -13175116.89749 -10253802.10846  22479954.282    22479963.534
  23217042.834     6899226.49749   5383166.74746  23217041.776    23217049.161
  20297381.555   -14597098.98749 -11366980.41248  20297381.095    20297386.908
  22906821.346   -11785053.91749  -8928109.47546  22906820.648    22906828.933
 03  4  9 20 40  0.0000000  0 10G17G16G15G29G26G30G23G10G 6G18
  21224803.254   -19950909.94149 -15533839.82847  21224802.415    21224809.288
  24039044.095    -7957599.49049  -6188865.73945  24039043.346    24039050.345
  23223357.232   -12040128.92649  -9372613.34346  23223356.265    23223365.095
  23086483.218   -11842786.17249  -9222064.29846  23086482.880    23086490.304
  22615955.776   -11806633.67649  -9022735.09546  22615955.600    22615964.059
  22931198.601    10761603.50949   8390681.67146  22931198.631    22931207.169
  22463443.040   -13261887.77549 -10321415.62846  22463442.212    22463451.436
  23235840.231     6998007.43349   5460138.87046  23235839.173    23235846.635
  20298163.095   -14592992.04649 -11363780.20348  20298162.635    20298168.457
  22888168.831   -11883073.05149  -9004487.88746  22888168.121    22888176.395
 03  4  9 20 40 30.0000000  0 10G17G16G15G29G26G30G23G10G 6G18
  21219054.164   -19981121.48649 -15557381.28447  21219053.335    21219060.208
  24026091.558    -8025665.41649  -6241904.11145  24026090.943    24026097.794
  23209470.289   -12113104.84149  -9429477.59846  23209469.329    23209478.194
  23081121.709   -11870960.87049  -9244018.57146  23081121.342    23081128.799
  22603071.169   -11874342.32049  -9075494.98946  22603070.950    22603079.442
  22950521.535    10863145.61649   8469805.21346  22950521.514    22950530.125
  22446991.344   -13348341.39549 -10388781.93446  22446990.542    22446999.690
  23254677.495     7096997.70349   5537274.11046  23254676.422    23254683.868
  20299026.586   -14588454.37449 -11360244.36448  20299026.117    20299031.946
  22869563.191   -11980846.06449  -9080674.53246  22869562.501    22869570.744
 03  4  9 20 41  0.0000000  0 10G17G16G15G29G26G30G23G10G 6G18
  21213341.521   -20011141.64049 -15580773.60147  21213340.680    21213347.570
  24013220.630    -8093302.65449  -6294608.44245  24013219.944    24013226.876
  23195608.613   -12185948.22849  -9486238.59046  23195607.635    23195616.455
  23075850.011   -11898663.76849  -9265605.20946  23075849.652    23075857.055
  22590262.083   -11941654.19349  -9127945.69346  22590261.858    22590270.339
  22969871.017    10964827.28049   8549037.49746  22969870.959    22969879.677
  22430600.318   -13434476.21449 -10455899.81646  22430599.510    22430608.626
  23273554.092     7196194.59049   5614570.33246  23273553.015    23273560.470
  20299972.206   -14583485.20649 -11356372.29448  20299971.732    20299977.552
  22851004.578   -12078371.68649  -9156668.38246  22851003.879    22851012.069
 03  4  9 20 41 30.0000000  0 10G17G16G15G29G26G30G23G10G 6G18
  21207665.243   -20040970.61749 -15604016.95047  21207664.409    21207671.286
  24000431.619    -8160509.23749  -6346977.18945  24000431.017    24000437.922
  23181772.142   -12258658.87549  -9542896.17146  23181771.184    23181779.997
  23070668.377   -11925893.04849  -9286822.78846  23070668.049    23070675.464
  22577529.114   -12008565.97549  -9180084.65746  22577528.932    22577537.319
  22989246.608    11066645.84549   8628376.46546  22989246.555    22989255.314
  22414270.289   -13520290.46049 -10522767.91546  22414269.494    22414278.531
  23292469.464     7295595.30149   5692025.38046  23292468.380    23292475.879
  20301000.087   -14578083.60149 -11352163.25548  20300999.610    20301005.454
  22832493.516   -12175647.47049  -9232467.54146  22832492.844    22832500.974
 03  4  9 20 42  0.0000000  0 10G17G16G15G29G26G30G23G10G 6G18
  21202025.282   -20070608.77249 -15627111.61147  21202024.454    21202031.318
  23987724.933    -8227283.21949  -6399008.84845  23987724.334    23987731.250
  23167960.897   -12331237.16649  -9599450.60346  23167959.985    23167968.730
  23065577.268   -11952647.18749  -9307670.12746  23065576.884    23065584.304
  22564872.850   -12075074.65249  -9231909.50646  22564872.684    22564881.049
  23008647.546    11168597.79849   8707819.36946  23008647.555    23008656.305
  22398001.630   -13605782.48549 -10589384.93246  22398000.797    22398009.817
  23311423.059     7395196.88649   5769636.95346  23311421.929    23311429.454
  20302110.401   -14572248.90849 -11347616.75048  20302109.942    20302115.764
  22814030.300   -12272671.85449  -9308070.81346  22814029.606    22814037.718
 03  4  9 20 42 30.0000000  0 10G17G16G15G29G26G30G23G10G 6G18
  21196421.639   -20100056.13049 -15650057.59247  21196420.803    21196427.663
  23975101.024    -8293622.32749  -6450701.64545  23975100.404    23975107.177
  23154174.958   -12403682.48149  -9655901.41946  23154174.059    23154182.776
  23060576.827   -11978924.32649  -9328145.77046  23060576.436    23060583.932
  22552293.952   -12141176.72849  -9283417.52546  22552293.812    22552302.132
  23028073.418    11270680.68949   8787364.28846  23028073.407    23028082.254
  22381794.627   -13690950.22949 -10655749.27446  22381793.817    22381802.797
  23330414.378     7494996.81549   5847403.08246  23330413.211    23330420.786
  20303303.356   -14565979.87349 -11342731.79048  20303302.916    20303308.747
  22795615.390   -12369442.40149  -9383476.27046  22795614.715    22795622.798
 03  4  9 20 43  0.0000000  0 10G17G16G15G29G26G30G23G10G 6G18
  21190854.267   -20129312.78249 -15672854.97447  21190853.427    21190860.293
  23962560.196    -8359524.54549  -6502053.99845  23962559.576    23962566.380
  23140414.361   -12475994.49449  -9712248.37746  23140413.466    23140422.148
  23055667.540   -12004722.57249  -9348248.25746  23055667.134    23055674.649
  22539793.075   -12206868.82849  -9334606.07646  22539792.976    22539801.239
  23047523.617    11372891.57149   8867008.95246  23047523.611    23047532.506
  22365649.660   -13775791.92749 -10721859.56446  22365648.873    22365657.801
  23349442.898     7594992.37549   5925321.63046  23349441.738    23349449.366
  20304579.129   -14559275.60649 -11337507.69748  20304578.683    20304584.516
  22777249.149   -12465957.14149  -9458682.38746  22777248.479    22777256.551
 03  4  9 20 43 30.0000000  0 10G17G16G15G29G26G30G23G10G 6G18
  21185323.127   -20158379.08549 -15695504.03347  21185322.297    21185329.174
  23950102.908    -8424987.95549  -6553064.40945  23950102.269    23950109.220
  23126679.089   -12548173.50349  -9768491.67246  23126678.174    23126686.872
  23050849.688   -12030040.62649  -9367976.56346  23050849.280    23050856.744
  22527370.821   -12272147.81849  -9385472.76146  22527370.686    22527378.986
  23066997.607    11475227.31749   8946750.89746  23066997.569    23067006.531
  22349567.039   -13860306.06649 -10787714.61046  22349566.258    22349575.145
  23368508.133     7695180.76149   6003390.46145  23368507.009    23368514.649
  20305937.894   -14552135.32749 -11331943.85348  20305937.452    20305943.280
  22758931.855   -12562214.41249  -9533687.89146  22758931.190    22758939.269
 03  4  9 20 44  0.0000000  0 10G17G16G15G29G26G30G23G10G 6G18
  21179828.146   -20187255.28449 -15718004.95847  21179827.311    21179834.187
  23937729.541    -8490010.29049  -6603731.14745  23937728.906    23937735.741
  23112969.152   -12620219.46149  -9824631.31046  23112968.225    23112976.932
  23046123.600   -12054876.46949  -9387329.11746  23046123.181    23046130.637
  22515027.799   -12337010.49949  -9436015.03346  22515027.681    22515035.924
  23086494.805    11577685.22449   9026588.01646  23086494.802    23086503.770
  22333547.139   -13944490.68149 -10853312.88546  22333546.348    22333555.201
  23387609.689     7795559.81849   6081607.86545  23387608.595    23387616.167
  20307379.858   -14544557.78849 -11326039.28548  20307379.394    20307385.222
  22740664.032   -12658211.90549  -9608490.96846  22740663.376    22740671.415
 03  4  9 20 44 30.0000000  0 10G17G16G15G29G26G30G23G10G 6G18
  21174369.231   -20215942.13449 -15740358.34047  21174368.400    21174375.257
  23925440.429    -8554589.68549  -6654052.72345  23925439.723    23925446.744
  23099284.441   -12692132.63049  -9880667.47246  23099283.539    23099292.245
  23041489.382   -12079228.93949  -9406305.01446  23041488.919    23041496.412
  22502764.546   -12401453.94949  -9486230.61546  22502764.410    22502772.660
  23106014.667    11680262.05349   9106517.82846  23106014.669    23106023.701
  22317590.182   -14028344.42249 -10918653.34946  22317589.394    22317598.230
  23406746.871     7896126.03949   6159971.12045  23406745.736    23406753.358
  20308905.129   -14536542.55949 -11319793.66248  20308904.668    20308910.488
  22722445.924   -12753948.10949  -9683090.43546  22722445.289    22722453.267
 03  4  9 20 45  0.0000000  0 10G17G16G15G29G26G30G23G10G 6G18
  21168946.352   -20244439.43749 -15762564.02247  21168945.524    21168952.392
  23913236.080    -8618723.96249  -6704027.45345  23913235.521    23913242.445
  23085625.093   -12763912.56049  -9936599.81146  23085624.205    23085632.918
  23036947.553   -12103096.09449  -9424902.74246  23036947.153    23036954.629
  22490581.744   -12465474.52249  -9536116.70446  22490581.614    22490589.931
  23125556.649    11782955.01149   9186538.10546  23125556.590    23125565.696
  22301696.590   -14111865.29349 -10983734.44046  22301695.788    22301704.647
  23425919.164     7996877.16549   6238478.45345  23425918.104    23425925.621
  20310513.884   -14528088.44749 -11313206.05848  20310513.444    20310519.257
  22704278.018   -12849420.57449  -9757484.40546  22704277.366    22704285.271
 03  4  9 20 45 30.0000000  0 10G17G16G15G29G26G30G23G10G 6G18
  21163559.434   -20272747.82249 -15784622.49547  21163558.593    21163565.472
  23901116.712    -8682411.45449  -6753654.05145  23901116.102    23901123.081
  23071991.123   -12835559.24149  -9992428.33246  23071990.184    23071998.955
  23032498.408   -12126476.45249  -9443121.14546  23032498.023    23032505.487
  22478480.057   -12529069.34949  -9585671.06246  22478479.883    22478488.137
  23145120.142    11885761.14349   9266646.57846  23145120.126    23145129.261
  22285866.679   -14195051.56349 -11048554.78646  22285865.876    22285874.701
  23445126.173     8097810.36449   6317127.65045  23445125.127    23445132.653
  20312206.319   -14519194.83649 -11306275.98448  20312205.872    20312211.684
  22686160.608   -12944627.63449  -9831671.56246  22686159.929    22686167.802
 03  4  9 20 46  0.0000000  0 10G17G16G15G29G26G30G23G10G 6G18
  21158208.472   -20300867.37849 -15806533.83147  21158207.628    21158214.501
  23889082.771    -8745650.13949  -6802930.92945  23889082.222    23889089.179
  23058382.530   -12907072.63249 -10048152.98246  23058381.604    23058390.343
  23028142.144   -12149368.60249  -9460959.11746  23028141.729    23028149.170
  22466459.930   -12592235.08149  -9634891.07346  22466459.823    22466468.056
  23164704.583    11988677.43249   9346840.89046  23164704.569    23164713.817
  22270100.728   -14277901.70249 -11113113.23746  22270099.951    22270108.722
  23464367.304     8198923.18349   6395916.82545  23464366.307    23464373.779
  20313982.514   -14509860.95249 -11299002.84248  20313982.043    20313987.881
  22668094.011   -13039567.55649  -9905650.56346  22668093.326    22668101.138
 03  4  9 20 46 30.0000000  0 10G17G16G15G29G26G30G23G10G 6G18
  21152893.405   -20328798.16149 -15828298.07047  21152892.577    21152899.427
  23877134.671    -8808437.78449  -6851856.33945  23877133.964    23877141.000
  23044799.310   -12978452.62449 -10103773.69246  23044798.438    23044807.100
  23023879.113   -12171770.73249  -9478415.26846  23023878.740    23023886.136
  22454522.108   -12654968.57249  -9683774.22546  22454521.918    22454530.213
  23184309.502    12091701.10249   9427118.86146  23184309.486    23184318.751
  22254399.111   -14360413.86649 -11177408.32046  22254398.321    22254407.085
  23483642.166     8300212.98849   6474843.89345  23483641.123    23483648.645
  20315842.675   -14500085.70749 -11291385.78148  20315842.215    20315848.038
  22650078.712   -13134237.94449  -9979419.56246  22650078.027    22650085.802
 03  4  9 20 47  0.0000000  0 10G17G16G15G29G26G30G23G10G 6G18
  21147614.174   -20356540.64849 -15849915.58647  21147613.352    21147620.192
  23865272.688    -8870772.77849  -6900429.04745  23865272.096    23865279.005
  23031241.445   -13049699.49349 -10159290.66546  23031240.574    23031249.198
  23019709.549   -12193681.81349  -9495488.77746  23019709.107    23019716.518
  22442667.083   -12717266.81749  -9732318.26146  22442666.916    22442675.182
  23203934.232    12194829.00249   9507478.04546  23203934.240    23203943.558
  22238762.050   -14442586.71549 -11241439.00946  22238761.256    22238769.948
  23502950.142     8401676.66549   6553906.45345  23502949.107    23502956.608
  20317786.954   -14489868.49649 -11283424.33548  20317786.489    20317792.327
  22632114.995   -13228637.39549 -10052977.43846  22632114.314    22632122.038
 03  4  9 20 47 30.0000000  0 10G17G16G15G29G26G30G23G10G 6G18
  21142370.675   -20384095.37149 -15871386.79047  21142369.852    21142376.691
  23853497.296    -8932652.86949  -6948647.28745  23853496.608    23853503.461
  23017709.004   -13120812.84749 -10214703.59846  23017708.112    23017716.721
  23015633.820   -12215099.84649  -9512178.09846  23015633.359    23015640.711
  22430895.525   -12779126.50149  -9780520.56546  22430895.364    22430903.612
  23223578.302    12298058.44349   9587916.37746  23223578.291    23223587.643
  22223189.939   -14524418.27449 -11305203.75546  22223189.157    22223197.816
  23522290.754     8503312.00949   6633102.78245  23522289.678    23522297.117
  20319815.543   -14479208.25549 -11275117.66648  20319815.085    20319820.921
  22614203.212   -13322763.73349 -10126322.49446  22614202.544    22614210.243
 03  4  9 20 48  0.0000000  0 10G17G16G15G29G26G30G23G10G 6G18
  21137162.899   -20411462.46449 -15892711.79347  21137162.067    21137168.902
  23841808.729    -8994076.42449  -6996509.75445  23841808.140    23841814.943
  23004201.895   -13191792.70749 -10270012.50846  23004201.013    23004209.626
  23011652.061   -12236023.73749  -9528482.38446  23011651.645    23011659.058
  22419207.993   -12840544.76849  -9828378.88246  22419207.836    22419216.071
  23243241.087    12401386.37749   9668431.42246  23243241.059    23243250.449
  22207683.028   -14605907.18049 -11368701.49546  22207682.262    22207690.911
  23541663.490     8605116.26949   6712430.72445  23541662.426    23541669.999
  20321928.503   -14468104.53649 -11266465.43348  20321928.042    20321933.882
  22596343.762   -13416615.24149 -10199453.42046  22596343.107    22596350.744
 03  4  9 20 48 30.0000000  0 10G17G16G15G29G26G30G23G10G 6G18
  21131990.889   -20438641.57349 -15913890.31147  21131990.058    21131996.893
  23830207.357    -9055041.93049  -7044015.31945  23830206.821    23830213.583
  22990720.240   -13262639.08749 -10325217.40846  22990719.336    22990727.983
  23007764.577   -12256451.98749  -9544400.42246  23007764.226    23007771.600
  22407605.036   -12901518.59549  -9875890.91646  22407604.878    22407613.068
  23262922.043    12504809.65449   9749020.79246  23262922.024    23262931.538
  22192241.672   -14687051.77449 -11431930.95046  22192240.902    22192249.505
  23561067.851     8707086.87449   6791888.29245  23561066.853    23561074.365
  20324126.026   -14456556.60749 -11257467.06648  20324125.571    20324131.402
  22578536.969   -13510190.01549 -10272368.70546  22578536.295    22578543.904
 03  4  9 20 49  0.0000000  0 10G17G16G15G29G26G30G23G10G 6G18
  21126854.485   -20465633.57349 -15934923.03547  21126853.683    21126860.481
  23818693.696    -9115546.64749  -7091161.83745  23818693.102    23818699.922
  22977264.011   -13333351.69849 -10380318.09146  22977263.082    22977271.733
  23003971.906   -12276382.81949  -9559930.88646  23003971.463    23003978.796
  22396087.330   -12962044.38849  -9923053.79246  22396087.142    22396095.359
  23282620.636    12608325.79549   9829682.48246  23282620.627    23282630.178
  22176866.215   -14767850.01449 -11494890.51246  22176865.426    22176874.007
  23580503.415     8809221.33149   6871473.51945  23580502.438    23580509.978
  20326408.277   -14444563.27149 -11248121.62948  20326407.821    20326413.658
  22560783.266   -13603485.80949 -10345066.61146  22560782.565    22560790.146
 03  4  9 20 49 30.0000000  0 10G17G16G15G29G26G30G23G10G 6G18
  21121753.665   -20492438.58049 -15955810.04847  21121752.855    21121759.648
  23807267.982    -9175589.33649  -7137948.32245  23807267.352    23807274.169
  22963833.207   -13403930.78549 -10435314.70546  22963832.300    22963840.890
  23000274.018   -12295815.14349  -9575072.89946  23000273.582    23000280.854
  22384655.362   -13022119.51449  -9969865.50146  22384655.176    22384663.318
  23302336.350    12711931.60249   9910414.06146  23302336.308    23302345.934
  22161556.887   -14848300.64249 -11557579.21146  22161556.114    22161564.652
  23599969.690     8911516.91849   6951184.31745  23599968.631    23599976.125
  20328775.376   -14432124.14249 -11238428.81848  20328774.922    20328780.771
  22543082.953   -13696501.09749 -10417545.94146  22543082.259    22543089.801
 03  4  9 20 50  0.0000000  0 10G17G16G15G29G26G30G23G10G 6G18
  21116688.388   -20519056.76749 -15976551.48447  21116687.561    21116694.338
  23795930.488    -9235168.05649  -7184373.27445  23795929.831    23795936.709
  22950427.766   -13474376.52749 -10490207.42846  22950426.870    22950435.428
  22996671.224   -12314747.64949  -9589825.43946  22996670.786    22996678.143
  22373309.735   -13081740.88849 -10016323.64546  22373309.610    22373317.716
  23322068.516    12815624.06049   9991213.14346  23322068.528    23322078.140
  22146313.993   -14928402.17449 -11619995.87846  22146313.217    22146321.740
  23619466.036     9013970.66949   7031018.34245  23619465.004    23619472.531
  20331227.433   -14419238.48049 -11228388.06248  20331226.984    20331232.820
  22525436.318   -13789234.10849 -10489805.32446  22525435.636    22525443.154
 03  4  9 20 50 30.0000000  0 10G17G16G15G29G26G30G23G10G 6G18
  21111658.635   -20545488.35649 -15997147.52147  21111657.803    21111664.578
  23784681.710    -9294280.84649  -7230435.17345  23784681.078    23784687.794
  22937047.836   -13544688.43049 -10544995.84646  22937046.893    22937055.493
  22993163.754   -12333178.89249  -9604187.37846  22993163.354    22993170.716
  22362051.049   -13140905.42149 -10062425.79346  22362050.904    22362059.040
  23341816.666    12919400.48849  10072077.66646  23341816.676    23341826.350
  22131137.837   -15008152.95749 -11682139.24346  22131137.053    22131145.559
  23638991.992     9116580.10949   7110973.69645  23638990.897    23638998.483
  20333764.647   -14405905.48149 -11217998.73447  20333764.188    20333770.046
  22507843.845   -13881682.78649 -10561843.15046  22507843.175    22507850.658
 03  4  9 20 51  0.0000000  0 10G17G16G15G29G26G30G23G10G 6G18
  21106664.306   -20571733.66649 -16017598.40447  21106663.491    21106670.255
  23773521.965    -9352925.64749  -7276132.38645  23773521.294    23773527.990
  22923693.415   -13614866.10149 -10599679.68046  22923692.538    22923701.073
  22989752.135   -12351107.09249  -9618157.34846  22989751.676    22989758.978
  22350879.987   -13199609.52949 -10108169.16946  22350879.828    22350887.959
  23361580.281    13023258.21749  10153005.53445  23361580.274    23361590.005
  22116028.796   -15087551.06849 -11744007.78746  22116028.013    22116036.483
  23658547.118     9219343.02549   7191048.63045  23658546.039    23658553.690
  20336387.166   -14392124.13849 -11207260.04648  20336386.692    20336392.564
  22490305.870   -13973844.84749 -10633657.64046  22490305.206    22490312.676
 03  4  9 20 51 30.0000000  0 10G17G16G15G29G26G30G23G10G 6G18
  21101705.280   -20597793.33449 -16037904.63047  21101704.454    21101711.243
  23762451.527    -9411101.00149  -7321463.82045  23762450.898    23762457.629
  22910364.422   -13684910.02649 -10654259.29246  22910363.506    22910372.018
  22986436.346   -12368531.48649  -9631734.73546  22986435.922    22986443.193
  22339796.977   -13257850.85049 -10153551.89746  22339796.801    22339804.904
  23381358.786    13127193.88649  10233994.14245  23381358.782    23381368.581
  22100987.084   -15166595.33849 -11805600.62146  22100986.306    22100994.769
  23678130.960     9322256.44649   7271240.83145  23678129.822    23678137.571
  20339095.031   -14377894.20649 -11196171.81047  20339094.578    20339100.446
  22472822.702   -14065719.09949 -10705247.86546  22472822.039    22472829.489
 03  4  9 20 52  0.0000000  0 10G17G16G15G29G26G30G23G10G 6G18
  21096781.698   -20623666.95749 -16058065.88747  21096780.892    21096787.674
  23751470.795    -9468804.95549  -7366427.92145  23751470.129    23751476.905
  22897060.968   -13754820.00749 -10708734.52546  22897060.046    22897068.573
  22983216.675   -12385450.70249  -9644918.49046  22983216.241    22983223.459
  22328802.623   -13315626.19249 -10198571.56546  22328802.442    22328810.501
  23401151.597    13231204.84549  10315041.40345  23401151.539    23401161.411
  22086013.021   -15245284.15149 -11866916.47546  22086012.262    22086020.673
  23697742.962     9425317.97649   7351548.44045  23697741.804    23697749.613
  20341888.430   -14363214.94949 -11184733.44747  20341887.974    20341893.861
  22455394.692   -14157303.51649 -10776612.23446  22455394.064    22455401.442
 03  4  9 20 52 30.0000000  0 10G17G16G15G29G26G30G23G10G 6G18
  21091893.443   -20649354.88149 -16078082.44547  21091892.637    21091899.415
  23740580.138    -9526035.76749  -7411023.33645  23740579.479    23740586.293
  22883783.046   -13824595.85749 -10763105.27046  22883782.097    22883790.589
  22980093.414   -12401863.14849  -9657707.35846  22980093.012    22980100.202
  22317897.573   -13372932.48749 -10243225.69146  22317897.341    22317905.424
  23420958.171    13335288.22749  10396145.09345  23420958.147    23420968.003
  22071106.881   -15323615.85449 -11927954.05746  22071106.121    22071114.545
  23717382.687     9528525.13249   7431969.53745  23717381.578    23717389.395
  20344767.469   -14348085.48149 -11172944.27647  20344767.011    20344772.900
  22438022.193   -14248596.11049 -10847749.21846  22438021.561    22438028.906
 03  4  9 20 53  0.0000000  0 10G17G16G15G29G26G30G23G10G 6G18
  21087040.446   -20674857.53449 -16097954.63347  21087039.626    21087046.400
  23729779.773    -9582792.01749  -7455248.97545  23729779.146    23729785.851
  22870530.547   -13894237.92149 -10817371.74646  22870529.592    22870538.036
  22977066.736   -12417767.85649  -9670100.57746  22977066.398    22977073.552
  22307082.258   -13429767.06249 -10287512.26946  22307082.029    22307090.078
  23440777.959    13439440.89849  10477302.76145  23440777.937    23440787.826
  22056268.974   -15401589.28849 -11988712.47446  22056268.213    22056276.599
  23737049.549     9631874.97149   7512501.81345  23737048.453    23737056.313
  20347732.255   -14332505.52049 -11160804.07347  20347731.798    20347737.689
  22420705.532   -14339595.45049 -10918657.69146  22420704.889    22420712.193
 03  4  9 20 53 30.0000000  0 10G17G16G15G29G26G30G23G10G 6G18
  21082222.678   -20700175.07649 -16117682.57847  21082221.862    21082228.632
  23719070.103    -9639071.69449  -7499103.24545  23719069.450    23719076.229
  22857303.538   -13963746.06849 -10871533.87146  22857302.589    22857311.047
  22974137.056   -12433163.61149  -9682097.22346  22974136.666    22974143.726
  22296357.252   -13486126.74049 -10331428.80446  22296357.043    22296365.044
  23460610.384    13543660.12649  10558512.30445  23460610.387    23460620.278
  22041499.537   -15479202.72049 -12049190.37146  22041498.738    22041507.124
  23756743.119     9735365.11249   7593143.43445  23756742.000    23756749.945
  20350782.933   -14316474.25449 -11148312.20047  20350782.486    20350788.358
  22403445.035   -14430299.45249 -10989336.01746  22403444.378    22403451.655
 03  4  9 20 54  0.0000000  0 10G17G16G15G29G26G30G23G10G 6G18
  21077440.115   -20725307.52249 -16137266.29447  21077439.293    21077446.065
  23708451.466    -9694872.85849  -7542584.65845  23708450.881    23708457.588
  22844102.078   -14033119.89049 -10925591.34546  22844101.098    22844109.541
  22971304.431   -12448048.93949  -9693696.12946  22971304.037    22971311.109
  22285723.266   -13542008.47449 -10374972.91846  22285723.035    22285731.025
  23480454.976    13647943.27549  10639771.63645  23480455.008    23480464.978
  22026798.939   -15556454.50249 -12109386.45746  22026798.155    22026806.491
  23776462.905     9838993.10749   7673892.44645  23776461.769    23776469.817
  20353919.654   -14299990.81649 -11135467.99047  20353919.195    20353925.086
  22386241.152   -14520706.14249 -11059782.68746  22386240.489    22386247.785
 03  4  9 20 54 30.0000000  0 10G17G16G15G29G26G30G23G10G 6G18
  21072692.682   -20750255.53049 -16156706.29147  21072691.859    21072698.623
  23697924.227    -9750193.93349  -7585691.97345  23697923.609    23697930.328
  22830926.204   -14102359.30749 -10979544.07946  22830925.250    22830933.653
  22968569.228   -12462422.74049  -9704896.45346  22968568.771    22968575.824
  22275180.687   -13597409.53549 -10418142.49146  22275180.484    22275188.443
  23500311.158    13752287.20849  10721078.34145  23500311.213    23500321.208
  22012167.400   -15633343.26649 -12169299.68846  22012166.624    22012174.913
  23796208.424     9942756.36449   7754746.88145  23796207.269    23796215.201
  20357142.498   -14283054.72849 -11122271.06747  20357142.044    20357147.937
  22369094.119   -14610813.91149 -11129996.41746  22369093.449    22369100.741
 03  4  9 20 55  0.0000000  0 10G17G16G15G29G26G30G23G10G 6G18
  21067980.319   -20775019.13649 -16176002.60147  21067979.481    21067986.240
  23687488.709    -9805033.17449  -7628423.83345  23687488.013    23687494.849
  22817775.866   -14171464.43549 -11033392.16246  22817774.924    22817783.302
  22965931.470   -12476283.73149  -9715697.17746  22965931.057    22965938.131
  22264730.229   -13652326.78649 -10460935.04946  22264729.998    22264737.907
  23520178.420    13856689.28049  10802430.35145  23520178.389    23520188.456
  21997605.268   -15709867.46849 -12228928.83346  21997604.485    21997612.770
  23815979.220    10046652.33349   7835704.68845  23815978.111    23815986.047
  20360451.600   -14265665.40149 -11108720.97147  20360451.143    20360457.043
  22352004.354   -14700620.80149 -11199975.69346  22352003.670    22352010.953
 03  4  9 20 55 30.0000000  0 10G17G16G15G29G26G30G23G10G 6G18
  21063302.990   -20799598.59449 -16195155.41847  21063302.159    21063308.919
  23677145.074    -9859389.45549  -7670779.36845  23677144.384    23677151.167
  22804651.036   -14240435.70649 -11087135.95246  22804650.090    22804658.417
  22963391.570   -12489631.25449  -9726097.81846  22963391.095    22963398.153
  22254372.270   -13706757.84949 -10503348.77646  22254372.029    22254379.917
  23540056.074    13961146.08949  10883824.99845  23540056.078    23540066.190
  21983112.669   -15786026.04949 -12288273.08546  21983111.878    21983120.149
  23835774.760    10150678.28649   7916763.80045  23835773.557    23835781.511
  20363847.000   -14247822.60049 -11094817.51547  20363846.542    20363852.458
  22334972.074   -14790125.64449 -11269719.62046  22334971.391    22334978.664
 03  4  9 20 56  0.0000000  0 10G17G16G15G29G26G30G23G10G 6G18
  21058660.698   -20823993.93249 -16214164.76947  21058659.863    21058666.628
  23666893.719    -9913260.41649  -7712756.73645  23666893.001    23666899.815
  22791551.828   -14309272.31749 -11140774.81446  22791550.878    22791559.180
  22960949.576   -12502463.62049  -9736097.03246  22960949.096    22960956.191
  22244107.469   -13760699.40549 -10545381.05646  22244107.216    22244115.113
  23559943.713    14065655.28449  10965260.46545  23559943.720    23559953.897
  21968690.030   -15861817.18149 -12347331.02146  21968689.253    21968697.476
  23855594.661    10254832.13949   7997922.56045  23855593.425    23855601.497
  20367328.877   -14229525.32749 -11080559.92947  20367328.412    20367334.338
  22317997.679   -14879326.15949 -11339226.39946  22317996.973    22318004.256
 03  4  9 20 56 30.0000000  0 10G17G16G15G29G26G30G23G10G 6G18
  21054053.406   -20848205.51549 -16233030.92947  21054052.563    21054059.327
  23656734.986    -9966644.67949  -7754354.85145  23656734.313    23656741.184
  22778478.222   -14377974.31549 -11194308.78246  22778477.278    22778485.593
  22958605.868   -12514780.03349  -9745694.21546  22958605.328    22958612.414
  22233936.344   -13814148.70849 -10587029.76646  22233936.087    22233943.940
  23579840.764    14170213.78149  11046734.34445  23579840.776    23579850.960
  21954337.543   -15937239.50349 -12406101.57046  21954336.769    21954344.977
  23875438.380    10359111.29649   8079178.98445  23875437.199    23875445.143
  20370897.282   -14210773.30149 -11065947.99347  20370896.812    20370902.757
  22301081.501   -14968220.78249 -11408494.82546  22301080.783    22301088.048
 03  4  9 20 57  0.0000000  0 10G17G16G15G29G26G30G23G10G 6G18
  21049480.986   -20872233.66949 -16251754.16447  21049480.138    21049486.894
  23646669.166   -10019541.05149  -7795572.80345  23646668.462    23646675.364
  22765430.168   -14446542.18049 -11247738.24146  22765429.241    22765437.502
  22956360.363   -12526579.67449  -9754888.71946  22956359.883    22956367.006
  22223859.267   -13867103.38349 -10628293.07946  22223859.013    22223866.893
  23599746.580    14274818.37049  11128244.13345  23599746.566    23599756.792
  21940055.437   -16012292.20249 -12464584.10746  21940054.676    21940062.816
  23895305.307    10463512.48249   8160530.49145  23895304.116    23895312.129
  20374552.249   -14191566.37649 -11050981.59147  20374551.811    20374557.743
  22284223.835   -15056808.05449 -11477523.76146  22284223.114    22284230.345
 03  4  9 20 57 30.0000000  0 10G17G16G15G29G26G30G23G10G 6G18
  21044943.526   -20896078.14649 -16270334.27247  21044942.689    21044949.450
  23636696.561   -10071947.24849  -7836408.80145  23636695.866    23636702.768
  22752407.761   -14514975.07149 -11301062.51446  22752406.837    22752415.101
  22954213.592   -12537860.88849  -9763679.26346  22954213.159    22954220.243
  22213877.053   -13919559.89049 -10669168.21546  22213876.813    22213884.625
  23619660.730    14379466.97649  11209788.21345  23619660.729    23619670.967
  21925844.049   -16086973.17549 -12522776.98447  21925843.275    21925851.414
  23915195.170    10568034.00849   8241975.76945  23915193.956    23915202.107
  20378294.056   -14171903.23049 -11035659.69447  20378293.611    20378299.545
  22267425.086   -15145085.55749 -11546311.31446  22267424.393    22267431.607
 03  4  9 20 58  0.0000000  0 10G17G16G15G29G26G30G23G10G 6G18
  21040441.008   -20919739.04749 -16288771.33547  21040440.166    21040446.936
  23626817.503   -10123861.90949  -7876861.78245  23626816.815    23626823.657
  22739411.049   -14583273.15949 -11354281.74546  22739410.093    22739418.365
  22952165.646   -12548622.76849  -9772065.13046  22952165.207    22952172.292
  22203990.182   -13971515.55149 -10709653.07146  22203989.938    22203997.727
  23639582.691    14484156.61749  11291364.24445  23639582.696    23639593.050
  21911703.623   -16161281.21149 -12580679.26347  21911702.854    21911710.956
  23935107.457    10672673.40549   8323512.88745  23935106.261    23935114.316
  20382122.732   -14151783.46049 -11019981.98447  20382122.290    20382128.232
  22250685.583   -15233051.82149 -11614856.35146  22250684.892    22250692.089
 03  4  9 20 58 30.0000000  0 10G17G16G15G29G26G30G23G10G 6G18
  21035973.279   -20943216.99149 -16307065.83547  21035972.459    21035979.211
  23617032.322   -10175283.46249  -7916930.51145  23617031.650    23617038.526
  22726439.914   -14651436.67049 -11407396.12946  22726438.924    22726447.153
  22950216.639   -12558864.42449  -9780045.62746  22950216.236    22950223.327
  22194199.121   -14022967.73449 -10749745.61146  22194198.836    22194206.651
  23659511.976    14588884.25349  11372969.92045  23659511.961    23659522.344
  21897634.428   -16235214.97949 -12638289.91747  21897633.664    21897641.753
  23955041.615    10777427.96649   8405139.71645  23955040.420    23955048.661
  20386038.359   -14131206.87349 -11003948.31047  20386037.910    20386043.864
  22234005.607   -15320705.26149 -11683157.63146  22234004.929    22234012.080
 03  4  9 20 59  0.0000000  0 10G17G16G15G29G26G30G23G10G 6G18
  21031540.245   -20966512.86249 -16325218.46047  21031539.408    21031546.173
  23607341.076   -10226211.35649  -7956614.57845  23607340.409    23607347.245
  22713494.274   -14719466.36849 -11460406.23046  22713493.276    22713501.500
  22948366.899   -12568585.75549  -9787620.68946  22948366.377    22948373.393
  22184504.215   -14073914.58249 -10789444.39346  22184503.928    22184511.724
  23679447.679    14693646.14749  11454602.27545  23679447.709    23679458.118
  21883636.555   -16308774.01449 -12695608.56347  21883635.764    21883643.858
  23974997.081    10882294.35949   8486853.72345  23974995.855    23975004.045
  20390040.797   -14110173.97549 -10987559.06747  20390040.349    20390046.298
  22217385.375   -15408044.90049 -11751214.39146  22217384.695    22217391.796
 03  4  9 20 59 30.0000000  0 10G17G16G15G29G26G30G23G10G 6G18
  21027141.974   -20989625.84849 -16343228.58147  21027141.143    21027147.900
  23597744.255   -10276642.86449  -7995911.84045  23597743.602    23597750.489
  22700574.305   -14787360.83849 -11513310.94646  22700573.350    22700581.530
  22946616.217   -12577784.52449  -9794788.54546  22946615.849    22946622.877
  22174906.220   -14124352.11949 -10828746.30246  22174905.912    22174913.698
  23699389.670    14798440.71049  11536260.05545  23699389.683    23699400.127
  21869710.465   -16381955.76649 -12752633.22647  21869709.675    21869717.753
  23994973.631    10987271.30649   8568653.87545  23994972.396    23994980.515
  20394130.429   -14088682.92749 -10970812.82747  20394129.968    20394135.958
  22200825.366   -15495067.84549 -11819024.37846  22200824.709    22200831.761
 03  4  9 21  0  0.0000000  0 10G17G16G15G29G26G30G23G10G 6G18
  21022778.462   -21012556.27749 -16361096.44947  21022777.634    21022784.397
  23588242.235   -10326576.36549  -8034821.04345  23588241.530    23588248.415
  22687680.113   -14855120.15449 -11566110.36446  22687679.137    22687687.275
  22944965.442   -12586459.93249  -9801548.60846  22944964.991    22944972.008
  22165405.597   -14174277.78749 -10867649.35746  22165405.319    22165413.076
  23719337.251    14903264.95949  11617941.00045  23719337.235    23719347.818
  21855856.430   -16454758.97149 -12809362.92147  21855855.646    21855863.694
  24014970.742    11092356.40749   8650538.28445  24014969.572    24014977.680
  20398307.313   -14066733.43749 -10953709.35747  20398306.856    20398312.837
  22184325.928   -15581772.56649 -11886586.39946  22184325.261    22184332.299
 03  4  9 21  0 30.0000000  0 10G17G16G15G29G26G30G23G10G 6G18
  21018449.603   -21035304.55749 -16378822.38347  21018448.781    21018455.529
  23578835.170   -10376010.81649  -8073341.39345  23578834.453    23578841.355
  22674811.561   -14922744.53049 -11618804.63746  22674810.585    22674818.770
  22943414.215   -12594611.45949  -9807900.44546  22943413.786    22943420.849
  22156002.859   -14223689.09949 -10906151.61546  22156002.629    22156010.345
  23739289.935    15008115.78749  11699642.63645  23739289.861    23739300.594
  21842074.610   -16527182.66249 -12865796.89247  21842073.817    21842081.845
  24034987.807    11197546.57349   8732504.57545  24034986.614    24034994.698
  20402571.447   -14044325.46349 -10936248.62747  20402570.974    20402576.970
  22167887.324   -15668157.72149 -11953899.40946  22167886.662    22167893.687
 03  4  9 21  1  0.0000000  0 10G17G16G15G29G26G30G23G10G 6G18
  21014155.409   -21057870.71749 -16396406.40547  21014154.593    21014161.337
  23569523.349   -10424944.63349  -8111471.63245  23569522.679    23569529.577
  22661968.722   -14990233.84549 -11671393.64946  22661967.746    22661975.959
  22941962.910   -12602238.02249  -9813843.22246  22941962.520    22941969.597
  22146698.550   -14272583.40149 -10944251.01846  22146698.320    22146705.987
  23759247.170    15112990.67149  11781363.01045  23759247.136    23759257.923
  21828365.238   -16599225.56349 -12921934.14147  21828364.458    21828372.463
  24055024.517    11302839.67449   8814551.08445  24055023.354    24055031.388
  20406922.895   -14021458.48349 -10918430.23047  20406922.422    20406928.426
  22151509.813   -15754221.58449 -12020962.06446  22151509.159    22151516.173
 03  4  9 21  1 30.0000000  0 10G17G16G15G29G26G30G23G10G 6G18
  21009896.017   -21080254.06049 -16413847.97547  21009895.202    21009901.939
  23560307.212   -10473375.85149  -8149210.22645  23560306.570    23560313.359
  22649151.667   -15057587.67749 -11723877.10446  22649150.719    22649158.859
  22940611.905   -12609338.25449  -9819375.86546  22940611.395    22940618.435
  22137493.213   -14320957.43149 -10981945.02646  22137493.003    22137500.618
  23779208.542    15217887.11349  11863100.19445  23779208.516    23779219.415
  21814728.665   -16670885.91249 -12977773.30647  21814727.878    21814735.858
  24075080.398    11408233.85049   8896676.34545  24075079.259    24075087.233
  20411361.937   -13998131.38849 -10900253.31047  20411361.478    20411367.481
  22135193.940   -15839961.83049 -12087772.55646  22135193.265    22135200.255
 03  4  9 21  2  0.0000000  0 10G17G16G15G29G26G30G23G10G 6G18
  21005671.004   -21102456.61049 -16431148.66647  21005670.187    21005676.926
  23551186.664   -10521304.63249  -8186557.33245  23551186.023    23551192.784
  22636360.118   -15124807.56049 -11776256.19246  22636359.175    22636367.327
  22939360.710   -12615912.89149  -9824498.95546  22939360.281    22939367.323
  22128387.190   -14368809.92549 -11019232.63646  22128386.967    22128394.527
  23799173.161    15322800.77049  11944850.78145  23799173.144    23799184.093
  21801164.884   -16742163.82649 -13033314.46847  21801164.078    21801172.017
  24095154.772    11513725.12749   8978877.25645  24095153.652    24095161.552
  20415888.258   -13974345.51949 -10881718.89547  20415887.795    20415893.805
  22118939.597   -15925378.60149 -12154330.99646  22118938.917    22118945.901
 03  4  9 21  2 30.0000000  0 10G17G16G15G29G26G30G23G10G 6G18
  21001480.604   -21124477.41549 -16448307.73247  21001479.768    21001486.522
  23542162.239   -10568728.07549  -8223510.64745  23542161.611    23542168.400
  22623594.358   -15191891.72149 -11828529.50146  22623593.423    22623601.556
  22938210.004   -12621959.45049  -9829210.54546  22938209.648    22938216.672
  22119381.082   -14416137.14949 -11056110.94146  22119380.822    22119388.401
  23819140.821    15427730.31049  12026613.74145  23819140.781    23819151.835
  21787674.380   -16813056.63649 -13088555.54547  21787673.587    21787681.516
  24115247.437    11619312.61349   9061153.14745  24115246.242    24115254.331
  20420502.192   -13950099.18549 -10862825.68047  20420501.751    20420507.754
  22102747.350   -16010468.94949 -12220635.07546  22102746.687    22102753.635
 03  4  9 21  3  0.0000000  0 10G17G16G15G29G26G30G23G10G 6G18
  20997324.761   -21146316.58249 -16465325.26947  20997323.935    20997330.663
  23533234.200   -10615645.17349  -8260069.40845  23533233.591    23533240.354
  22610854.443   -15258840.32149 -11880697.19346  22610853.502    22610861.597
  22937160.040   -12627477.55749  -9833510.37446  22937159.575    22937166.628
  22110475.439   -14462936.42749 -11092577.85746  22110475.157    22110482.748
  23839110.961    15532672.81649  12108386.80745  23839110.956    23839122.085
  21774257.370   -16883563.28349 -13143495.72047  21774256.576    21774264.477
  24135357.924    11724993.59649   9143501.88045  24135356.831    24135365.013
  20425203.850   -13925392.04249 -10843573.39047  20425203.406    20425209.416
  22086617.597   -16095231.04149 -12286683.37946  22086616.923    22086623.859
 03  4  9 21  3 30.0000000  0 10G17G16G15G29G26G30G23G10G 6G18
  20993203.308   -21167974.88749 -16482201.87347  20993202.478    20993209.211
  23524402.805   -10662054.59149  -8296232.58745  23524402.145    23524408.921
  22598140.227   -15325653.77549 -11932759.58046  22598139.284    22598147.351
  22936210.633   -12632466.68349  -9837397.99446  22936210.202    22936217.255
  22101670.658   -14509205.58449 -11128631.70946  22101670.402    22101677.938
  23859082.952    15637625.15849  12190167.51845  23859082.970    23859094.150
  21760913.956   -16953683.02949 -13198134.42147  21760913.173    21760921.040
  24155485.646    11830765.33349   9225921.33945  24155484.595    24155492.669
  20429993.127   -13900224.18449 -10823962.10047  20429992.690    20429998.703
  22070550.529   -16179663.69549 -12352474.97747  22070549.866    22070556.758
 03  4  9 21  4  0.0000000  0 10G17G16G15G29G26G30G23G10G 6G18
  20989116.408   -21189451.73849 -16498937.08447  20989115.578    20989122.299
  23515668.255   -10707954.82349  -8331998.99445  23515667.642    23515674.364
  22585451.762   -15392331.90149 -11984716.50646  22585450.838    22585458.872
  22935362.046   -12636925.93249  -9840872.71546  22935361.620    22935368.642
  22092967.244   -14554941.98349 -11164270.40246  22092967.027    22092974.498
  23879056.297    15742584.54149  12271953.72845  23879056.323    23879067.551
  21747644.425   -17023414.64849 -13252470.67847  21747643.630    21747651.485
  24175630.220    11936625.50549   9308409.73345  24175629.070    24175637.178
  20434870.226   -13874595.17449 -10803991.47147  20434869.764    20434875.797
  22054546.445   -16263765.40849 -12418008.70247  22054545.766    22054552.622
 03  4  9 21  4 30.0000000  0 10G17G16G15G29G26G30G23G10G 6G18
  20985063.949   -21210747.59749 -16515531.26347  20985063.103    20985069.844
  23507030.841   -10753344.78949  -8367367.78045  23507030.211    23507036.881
  22572789.045   -15458874.71449 -12036568.00346  22572788.134    22572796.157
  22934614.600   -12640854.72549  -9843934.09946  22934613.998    22934620.983
  22084365.668   -14600143.20049 -11199492.08146  22084365.482    22084373.018
  23899030.474    15847548.17049  12353743.24745  23899030.435    23899041.788
  21734449.000   -17092756.80349 -13306503.46147  21734448.194    21734456.031
  24195791.181    12042571.56449   9390965.02545  24195790.064    24195798.291
  20439835.055   -13848504.82749 -10783661.35847  20439834.617    20439840.646
  22038605.646   -16347534.52149 -12483283.25647  22038604.971    22038611.816
 03  4  9 21  5  0.0000000  0 10G17G16G15G29G26G30G23G10G 6G18
  20981045.874   -21231862.74949 -16531984.62547  20981045.035    20981051.764
  23498490.815   -10798223.13349  -8402337.91545  23498490.124    23498496.839
  22560152.149   -15525281.87149 -12088313.78246  22560151.203    22560159.239
  22933967.863   -12644252.06549  -9846581.35746  22933967.514    22933974.500
  22075866.458   -14644806.49449 -11234294.57946  22075866.276    22075873.810
  23919004.913    15952513.43249  12435534.03145  23919004.867    23919016.309
  21721327.929   -17161708.20149 -13360231.76147  21721327.118    21721334.944
  24215967.984    12148601.40549   9473585.58045  24215966.814    24215975.222
  20444887.772   -13821952.72849 -10762971.43747  20444887.339    20444893.376
  22022728.491   -16430969.18349 -12548297.19847  22022727.803    22022734.626
 03  4  9 21  5 30.0000000  0 10G17G16G15G29G26G30G23G10G 6G18
  20977062.222   -21252796.98649 -16548297.01647  20977061.383    20977068.098
  23490048.356   -10842588.20649  -8436908.07745  23490047.739    23490054.410
  22547541.097   -15591553.24149 -12139953.75446  22547540.163    22547548.226
  22933422.563   -12647117.25949  -9848813.95446  22933422.252    22933429.260
  22067470.115   -14688929.25349 -11268675.88146  22067469.948    22067477.446
  23938979.177    16057477.69349  12517324.02745  23938979.119    23938990.610
  21708281.475   -17230267.62049 -13413654.61347  21708280.670    21708288.475
  24236160.421    12254712.90249   9556269.81645  24236159.187    24236167.604
  20450028.460   -13794938.38949 -10741921.32847  20450028.030    20450034.068
  22006915.292   -16514067.74349 -12613049.24847  22006914.630    22006921.422
 03  4  9 21  6  0.0000000  0 10G17G16G15G29G26G30G23G10G 6G18
  20973112.912   -21273550.70549 -16564468.74647  20973112.087    20973118.794
  23481703.862   -10886438.89649  -8471077.43245  23481703.195    23481709.887
  22534955.839   -15657689.03949 -12191488.08546  22534954.925    22534962.962
  22932978.857   -12649449.78049  -9850631.48646  22932978.420    22932985.360
  22059177.083   -14732509.15549 -11302634.18446  22059176.950    22059184.422
  23958952.756    16162438.19649  12599111.06545  23958952.691    23958964.258
  21695309.790   -17298433.93449 -13466771.16347  21695308.980    21695316.779
  24256367.912    12360903.51949   9639015.69845  24256366.676    24256375.052
  20455257.114   -13767461.75149 -10720510.98847  20455256.660    20455262.720
  21991166.344   -16596828.70349 -12677538.23547  21991165.673    21991172.451
 03  4  9 21  6 30.0000000  0 10G17G16G15G29G26G30G23G10G 6G18
  20969197.932   -21294124.05549 -16580499.92647  20969197.107    20969203.820
  23473457.410   -10929774.11549  -8504845.13445  23473456.734    23473463.450
  22522396.387   -15723689.17149 -12242916.71246  22522395.500    22522403.486
  22932636.402   -12651249.05949  -9852033.51046  22932635.987    22932642.929
  22050987.791   -14775543.81149 -11336167.63346  22050987.679    22050995.153
  23978924.968    16267391.70549  12680892.67845  23978924.945    23978936.652
  21682413.074   -17366206.23949 -13519580.68747  21682412.288    21682420.066
  24276589.911    12467170.70549   9721821.21345  24276588.678    24276597.138
  20460573.727   -13739522.75749 -10698740.36947  20460573.270    20460579.350
  21975481.826   -16679250.98549 -12741763.31347  21975481.151    21975487.929
 03  4  9 21  7  0.0000000  0 10G17G16G15G29G26G30G23G10G 6G18
  20965317.281   -21314517.04949 -16596390.57247  20965316.443    20965323.168
  23465309.322   -10972592.37249  -8538209.98545  23465308.674    23465315.472
  22509862.853   -15789553.26549 -12294239.33346  22509861.937    22509869.931
  22932395.458   -12652514.36249  -9853019.41746  22932395.163    22932402.155
  22042902.789   -14818030.69849 -11369274.23946  22042902.646    22042910.131
  23998895.479    16372336.03349  12762667.13545  23998895.480    23998907.320
  21669591.601   -17433583.20249 -13572082.15347  21669590.805    21669598.597
  24296826.076    12573512.24649   9804684.67545  24296824.858    24296833.322
  20465978.425   -13711121.00649 -10676609.16447  20465977.988    20465984.062
  21959862.169   -16761332.57749 -12805722.91747  21959861.494    21959868.260
 03  4  9 21  7 30.0000000  0 10G17G16G15G29G26G30G23G10G 6G18
  20961470.920   -21334729.86949 -16612140.81847  20961470.096    20961476.800
  23457259.866   -11014892.55249  -8571171.14745  23457259.208    23457265.991
  22497355.141   -15855281.47649 -12345456.05746  22497354.206    22497362.215
  22932256.383   -12653245.16949  -9853588.85346  22932256.079    22932263.089
  22034922.458   -14859967.50349 -11401952.21146  22034922.311    22034929.772
  24018863.676    16477268.15649  12844432.07245  24018863.587    24018875.565
  21656845.563   -17500563.82849 -13624274.78647  21656844.778    21656852.545
  24317075.944    12679925.94049   9887604.35145  24317074.879    24317083.063
  20471471.197   -13682256.39649 -10654117.28747  20471470.756    20471476.833
  21944307.580   -16843072.27049 -12869416.11047  21944306.893    21944313.637
 03  4  9 21  8  0.0000000  0 10G17G16G15G29G26G30G23G10G 6G18
  20957658.843   -21354762.41449 -16627750.59147  20957658.005    20957664.733
  23449309.249   -11056673.32949  -8603727.59045  23449308.551    23449315.363
  22484873.325   -15920873.76049 -12396566.88046  22484872.397    22484880.410
  22932219.087   -12653440.75649  -9853741.23246  22932218.795    22932225.879
  22027047.277   -14901351.63449 -11434199.51646  22027047.123    22027054.600
  24038829.015    16582185.53349  12926185.50445  24038828.964    24038840.813
  21644175.141   -17567147.04049 -13676157.74747  21644174.320    21644182.104
  24337339.136    12786409.27349   9970578.33445  24337338.091    24337346.250
  20477052.123   -13652928.61049 -10631264.49547  20477051.672    20477057.758
  21928818.374   -16924468.32549 -12932841.53547  21928817.705    21928824.413
 03  4  9 21  8 30.0000000  0 10G17G16G15G29G26G30G23G10G 6G18
  20953881.034   -21374614.96249 -16643220.10747  20953880.201    20953886.896
  23441457.646   -11097933.75249  -8635878.55745  23441456.967    23441463.748
  22472417.387   -15986329.83449 -12447571.55846  22472416.460    22472424.505
  22932283.749   -12653100.72749  -9853476.25146  22932283.471    22932290.540
  22019277.680   -14942180.87449 -11466014.44846  22019277.581    22019284.998
  24058791.023    16687085.14349  13007925.10645  24058791.025    24058802.965
  21631580.542   -17633331.94049 -13727730.33747  21631579.739    21631587.496
  24357615.074    12892960.01449  10053604.82845  24357614.075    24357622.343
  20482721.187   -13623137.61949 -10608050.76647  20482720.737    20482726.830
  21913394.859   -17005519.13649 -12995997.93847  21913394.203    21913400.879
 03  4  9 21  9  0.0000000  0 10G17G16G15G29G26G30G23G10G 6G18
  20950137.460   -21394287.50549 -16658549.35747  20950136.632    20950143.346
  23433705.298   -11138672.66549  -8667623.15445  23433704.584    23433711.393
  22459987.344   -16051649.75949 -12498470.14646  22459986.435    22459994.460
  22932450.518   -12652224.60749  -9852793.53946  22932450.215    22932457.228
  22011614.145   -14982452.96749 -11497395.23346  22011614.007    22011621.424
  24078749.102    16791964.51649  13089648.92445  24078749.179    24078761.254
  21619061.913   -17699117.48349 -13778991.73947  21619061.106    21619068.854
  24377903.499    12999575.92849  10136682.06745  24377902.399    24377910.717
  20488478.382   -13592883.40549 -10584476.08147  20488477.922    20488484.030
  21898037.264   -17086223.58749 -13058884.45347  21898036.605    21898043.244
 03  4  9 21  9 30.0000000  0 10G17G16G15G29G26G30G23G10G 6G18
  20946428.055   -21413780.62749 -16673738.80247  20946427.210    20946433.943
  23426052.397   -11178888.91349  -8698960.47345  23426051.711    23426058.494
  22447583.261   -16116833.48649 -12549262.59246  22447582.362    22447590.361
  22932719.375   -12650811.79549  -9851692.62446  22932719.039    22932726.040
  22004057.074   -15022165.54949 -11528340.04646  22004056.889    22004064.278
  24098702.880    16896820.81749  13171354.74645  24098702.925    24098715.154
  21606619.549   -17764502.36349 -13829940.94247  21606618.729    21606626.463
  24398203.909    13106254.80849  10219808.40245  24398202.805    24398211.102
  20494323.783   -13562165.67049 -10560540.21147  20494323.335    20494329.439
  21882745.938   -17166579.86749 -13121499.67147  21882745.261    21882751.867
 03  4  9 21 10  0.0000000  0 10G17G16G15G29G26G30G23G10G 6G18
  20942752.783   -21433094.31549 -16688788.42547  20942751.935    20942758.665
  23418499.143   -11218581.42849  -8729889.69645  23418498.421    23418505.195
  22435205.104   -16181880.96449 -12599948.88646  22435204.192    22435212.173
  22933090.461   -12648861.98149  -9850173.27146  22933090.112    22933097.039
  21996606.887   -15061316.37849 -11558847.11346  21996606.676    21996614.095
  24118651.717    17001651.20449  13253040.39345  24118651.793    24118663.942
  21594253.564   -17829485.73849 -13880577.28547  21594252.780    21594260.475
  24418515.766    13212994.20249  10302981.88745  24418514.684    24418523.121
  20500257.411   -13530984.46949 -10536243.20347  20500256.967    20500263.064
  21867521.080   -17246586.77349 -13183842.64847  21867520.411    21867526.999
 03  4  9 21 10 30.0000000  0 10G17G16G15G29G26G30G23G10G 6G18
  20939111.685   -21452228.38249 -16703698.08447  20939110.845    20939117.578
  23411045.786   -11257748.92149  -8760409.81245  23411045.161    23411051.960
  22422852.897   -16246792.09349 -12650528.93246  22422851.963    22422859.940
  22933563.951   -12646374.57649  -9848235.00846  22933563.474    22933570.372
  21989264.071   -15099902.98449 -11588914.52146  21989263.839    21989271.276
  24138595.175    17106453.20349  13334703.93045  24138595.336    24138607.571
  21581964.210   -17894066.48749 -13930899.88847  21581963.408    21581971.110
  24438838.758    13319791.80349  10386200.73045  24438837.584    24438846.063
  20506279.233   -13499339.55649 -10511584.86147  20506278.788    20506284.903
  21852363.004   -17326242.77049 -13245912.18947  21852362.334    21852368.917
 03  4  9 21 11  0.0000000  0 10G17G16G15G29G26G30G23G10G 6G18
  20935504.670   -21471183.41449 -16718468.23547  20935503.822    20935510.562
  23403692.497   -11296390.63549  -8790520.22745  23403691.822    23403698.681
  22410526.587   -16311566.81649 -12701002.67946  22410525.676    22410533.629
  22934139.490   -12643349.27149  -9845877.60546  22934139.176    22934146.077
  21982029.008   -15137923.39349 -11618540.74546  21982028.739    21982036.130
  24158532.667    17211223.92949  13416343.07145  24158532.884    24158545.047
  21569751.630   -17958243.78449 -13980908.12047  21569750.822    21569758.527
  24459172.369    13426645.30049  10469463.13645  24459171.288    24459179.631
  20512389.320   -13467230.99749 -10486565.23747  20512388.879    20512395.007
  21837272.001   -17405546.35149 -13307707.12547  21837271.322    21837277.879
 03  4  9 21 11 30.0000000  0 10G17G16G15G29G26G30G23G10G 6G18
  20931931.824   -21489958.82149 -16733098.41947  20931930.986    20931937.710
  23396439.582   -11334504.94249  -8820219.68245  23396438.892    23396445.704
  22398226.373   -16376204.64549 -12751369.75046  22398225.461    22398233.407
  22934817.473   -12639785.32549  -9843100.48746  22934817.307    22934824.271
  21974902.133   -15175374.96049 -11647723.72146  21974901.902    21974909.244
  24178463.767    17315960.99549  13497955.97845  24178463.977    24178476.219
  21557616.087   -18022016.25449 -14030600.90647  21557615.284    21557622.951
  24479516.241    13533552.76449  10552767.58645  24479515.124    24479523.483
  20518587.678   -13434658.46049 -10461184.07147  20518587.228    20518593.361
  21822248.316   -17484496.03749 -13369226.29547  21822247.632    21822254.189
 03  4  9 21 12  0.0000000  0 10G17G16G15G29G26G30G23G10G 6G18
  20928393.141   -21508554.67449 -16747588.68947  20928392.296    20928399.025
  23389287.192   -11372090.99349  -8849507.50445  23389286.544    23389293.261
  22385952.190   -16440705.67149 -12801630.24546  22385951.279    22385959.226
  22935598.180   -12635682.28049  -9839903.27746  22935598.046    22935605.005
  21967883.931   -15212255.48949 -11676461.72446  21967883.721    21967891.059
  24198387.902    17420661.65549  13579540.52845  24198388.034    24198400.402
  21545557.763   -18085383.00649 -14079977.54747  21545556.951    21545564.608
  24499869.951    13640512.14449  10636112.49345  24499868.775    24499877.292
  20524874.395   -13401621.81549 -10435441.26447  20524873.935    20524880.084
  21807292.309   -17563090.16849 -13430468.41247  21807291.596    21807298.141
 03  4  9 21 12 30.0000000  0 10G17G16G15G29G26G30G23G10G 6G18
  20924888.504   -21526971.55749 -16761939.50247  20924887.662    20924894.384
  23382235.431   -11409148.09149  -8878383.15145  23382234.795    23382241.484
  22373704.077   -16505069.93549 -12851784.16146  22373703.118    22373711.083
  22936481.714   -12631040.27849  -9836286.12346  22936481.374    22936488.330
  21960974.708   -15248563.27749 -11704753.43846  21960974.544    21960981.847
  24218304.562    17525322.96849  13661094.41945  24218304.687    24218317.268
  21533576.717   -18148343.55849 -14129037.66947  21533575.926    21533583.563
  24520233.000    13747520.49949  10719495.55845  24520231.826    24520240.325
  20531249.297   -13368121.51249 -10409337.16447  20531248.852    20531254.988
  21792404.133   -17641327.85149 -13491432.78147  21792403.423    21792409.948
 03  4  9 21 13  0.0000000  0 10G17G16G15G29G26G30G23G10G 6G18
  20921417.933   -21545209.41149 -16776150.81347  20921417.124    20921423.846
  23375284.520   -11445675.45749  -8906846.02745  23375283.768    23375290.538
  22361481.942   -16569297.30049 -12901831.39846  22361480.999    22361488.930
  22937468.004   -12625858.85349  -9832248.62846  22937467.372    22937474.281
  21954174.938   -15284295.95849 -11732597.01246  21954174.781    21954182.082
  24238213.237    17629942.34949  13742615.62145  24238213.283    24238225.984
  21521673.252   -18210896.62449 -14177780.26947  21521672.456    21521680.095
  24540605.064    13854576.06349  10802915.43045  24540603.873    24540612.337
  20537712.493   -13334157.27449 -10382871.55447  20537712.058    20537718.196
  21777584.044   -17719207.67349 -13552118.29747  21777583.353    21777589.857
 03  4  9 21 13 30.0000000  0 10G17G16G15G29G26G30G23G10G 6G18
  20917981.383   -21563268.61549 -16790222.91347  20917980.563    20917987.288
  23368434.646   -11481671.72849  -8934895.04445  23368433.950    23368440.608
  22349285.859   -16633387.83849 -12951772.01946  22349284.922    22349292.834
  22938556.834   -12620137.72949  -9827790.58646  22938556.068    22938562.981
  21947484.999   -15319451.46049 -11759990.83446  21947484.823    21947492.152
  24258113.463    17734517.08549  13824102.04345  24258113.597    24258126.293
  21509847.447   -18273041.40649 -14226204.72547  21509846.653    21509854.264
  24560985.587    13961676.43549  10886370.17345  24560984.434    24560992.982
  20544263.987   -13299729.15249 -10356044.48347  20544263.542    20544269.705
  21762832.362   -17796728.10449 -13612523.77047  21762831.665    21762838.155
 03  4  9 21 14  0.0000000  0 10G17G16G15G29G26G30G23G10G 6G18
  20914578.942   -21581148.59049 -16804155.35847  20914578.119    20914584.833
  23361686.014   -11517135.97149  -8962529.51745  23361685.302    23361691.977
  22337115.844   -16697341.49549 -13001605.98246  22337114.937    22337122.808
  22939748.376   -12613876.41649  -9822911.62146  22939747.543    22939754.473
  21940905.351   -15354027.72449 -11786933.30146  21940905.128    21940912.422
  24278004.668    17839044.59049  13905551.66845  24278004.756    24278017.615
  21498099.509   -18334777.05149 -14274310.37347  21498098.706    21498106.300
  24581374.307    14068819.37349  10969858.13845  24581373.119    24581381.677
  20550903.707   -13264837.23249 -10328856.01547  20550903.256    20550909.425
  21748149.349   -17873887.63949 -13672648.02647  21748148.630    21748155.121
 03  4  9 21 14 30.0000000  0 10G17G16G15G29G26G30G23G10G 6G18
  20911210.539   -21598849.61649 -16817948.35747  20911209.701    20911216.431
  23355038.828   -11552066.93149  -8989748.44345  23355038.154    23355044.890
  22324972.031   -16761157.49649 -13051332.68246  22324971.094    22324978.964
  22941042.585   -12607074.52949  -9817611.42646  22941041.857    22941048.823
  21934436.349   -15388022.23449 -11813422.46946  21934436.136    21934443.403
  24297886.455    17943522.56649  13986962.69645  24297886.563    24297899.466
  21486429.666   -18396102.25849 -14322096.20447  21486428.865    21486436.426
  24601770.725    14176003.09649  11053377.87245  24601769.539    24601778.149
  20557631.798   -13229481.08349 -10301305.80947  20557631.348    20557637.520
  21733535.322   -17950684.48649 -13732489.66947  21733534.627    21733541.093
 03  4  9 21 15  0.0000000  0 10G17G16G15G29G26G30G23G10G 6G18
  20907876.199   -21616371.66049 -16831601.89147  20907875.349    20907882.106
  23348493.330   -11586463.84649  -9016551.22445  23348492.684    23348499.363
  22312854.415   -16824835.85949 -13100952.11846  22312853.473    22312861.299
  22942439.595   -12599731.88749  -9811889.87246  22942439.080    22942446.008
  21928078.483   -15421432.93449 -11839456.71946  21928078.257    21928085.486
  24317758.346    18047948.29149  14068333.00445  24317758.405    24317771.419
  21474838.075   -18457016.34349 -14369561.67547  21474837.270    21474844.817
  24622174.509    14283225.58849  11136927.79645  24622173.283    24622182.008
  20564448.154   -13193660.96949 -10273394.07247  20564447.719    20564453.883
  21718990.564   -18027117.56749 -13792047.85847  21718989.876    21718996.335
 03  4  9 21 15 30.0000000  0 10G17G16G15G29G26G30G23G10G 6G18
  20904575.891   -21633714.91749 -16845116.11247  20904575.044    20904581.794
  23342049.538   -11620326.03849  -9042937.34445  23342048.876    23342055.610
  22300762.963   -16888376.64549 -13150464.36446  22300762.014    22300769.789
  22943939.555   -12591848.45449  -9805746.91846  22943939.232    22943946.175
  21921831.977   -15454258.12849 -11865034.73446  21921831.771    21921838.954
  24337619.681    18152318.91849  14149660.36845  24337619.825    24337632.875
  21463324.857   -18517518.52849 -14416706.18947  21463324.050    21463331.573
  24642585.260    14390484.34249  11220506.01845  24642584.044    24642592.607
  20571352.800   -13157377.03149 -10245120.91047  20571352.369    20571358.544
  21704515.278   -18103185.40949 -13851321.44347  21704514.597    21704521.040
 03  4  9 21 16  0.0000000  0 10G17G16G15G29G26G30G23G10G 6G18
  20901309.602   -21650879.40049 -16858491.02647  20901308.745    20901315.506
  23335707.756   -11653652.41649  -9068905.94445  23335707.096    23335713.735
  22288697.660   -16951780.01449 -13199869.53646  22288696.746    22288704.468
  22945542.546   -12583423.94549  -9799182.34146  22945542.312    22945549.271
  21915697.282   -15486495.85449 -11890154.99046  21915697.099    21915704.248
  24357470.086    18256631.87349  14230942.78545  24357470.183    24357483.392
  21451890.197   -18577607.99849 -14463529.10147  21451889.376    21451896.886
  24663002.425    14497777.14449  11304110.73845  24663001.200    24663009.776
  20578345.643   -13120629.42549 -10216486.45147  20578345.188    20578351.386
  21690109.685   -18178886.96249 -13910309.61247  21690109.000    21690115.447
 03  4  9 21 16 30.0000000  0 10G17G16G15G29G26G30G23G10G 6G18
  20898077.217   -21667865.59849 -16871727.01647  20898076.373    20898083.121
  23329467.960   -11686442.61449  -9094456.73545  23329467.306    23329473.990
  22276658.506   -17015046.06349 -13249167.70046  22276657.571    22276665.281
  22947248.716   -12574458.57849  -9792196.33746  22947248.381    22947255.294
  21909674.752   -15518144.39349 -11914816.13646  21909674.548    21909681.674
  24377308.970    18360884.15949  14312177.95145  24377309.140    24377322.295
  21440534.160   -18637284.22849 -14510030.01247  21440533.328    21440540.834
  24683425.563    14605101.29549  11387739.88745  24683424.361    24683433.046
  20585426.681   -13083418.47449 -10187490.94247  20585426.246    20585432.441
  21675774.057   -18254221.05649 -13969011.44447  21675773.364    21675779.811
 03  4  9 21 17  0.0000000  0 10G17G16G15G29G26G30G23G10G 6G18
  20894878.851   -21684673.11549 -16884823.77347  20894877.997    20894884.740
  23323330.451   -11718695.67249  -9119588.99145  23323329.745    23323336.456
  22264645.516   -17078174.48449 -13298358.61846  22264644.577    22264652.290
  22949057.868   -12564952.04249  -9784788.64246  22949057.399    22949064.312
  21903764.753   -15549201.51949 -11939016.45246  21903764.550    21903771.618
  24397135.810    18465073.41149  14393363.98945  24397136.023    24397149.146
  21429256.909   -18696546.34249 -14556208.23047  21429256.075    21429263.576
  24703854.436    14712455.32249  11471392.32545  24703853.287    24703861.840
  20592595.897   -13045744.21249 -10158134.41747  20592595.473    20592601.678
  21661508.582   -18329186.43049 -14027425.96147  21661507.890    21661514.316
 03  4  9 21 17 30.0000000  0  9G17G16G15G29G26G30G23G 6G18
  20891714.552   -21701301.67549 -16897781.08347  20891713.708    20891720.441
  23317295.311   -11750410.34449  -9144301.71345  23317294.652    23317301.394
  22252658.869   -17141164.57149 -13347441.74546  22252657.935    22252665.632
  22950970.124   -12554903.56249  -9776958.64846  22950969.574    22950976.399
  21897967.725   -15579664.78849 -11962754.01946  21897967.523    21897974.582
  24416950.241    18569197.55649  14474499.26645  24416950.457    24416963.799
  21418058.720   -18755393.09349 -14602062.79047  21418057.897    21418065.376
  20599853.344   -13007606.16849 -10128416.50247  20599852.919    20599859.133
  21647313.589   -18403781.35949 -14085551.82447  21647312.887    21647319.309
 03  4  9 21 18  0.0000000  0  9G17G16G15G29G26G30G23G 6G18
  20888584.420   -21717750.51049 -16910598.34947  20888583.584    20888590.304
  23311362.968   -11781585.26249  -9168593.85745  23311362.299    23311368.920
  22240698.668   -17204015.66649 -13396416.58146  22240697.725    22240705.410
  22952985.580   -12544312.43349  -9768705.81546  22952984.999    22952991.822
  21892284.230   -15609531.65349 -11986026.85146  21892284.018    21892291.078
  24436751.889    18673254.32949  14555582.06345  24436752.028    24436765.564
  21406939.824   -18813823.05849 -14647592.58947  21406939.005    21406946.451
  20607199.166   -12969003.82349 -10098336.79647  20607198.713    20607204.952
  21633189.452   -18478003.87849 -14143387.49847  21633188.755    21633195.156
 03  4  9 21 18 30.0000000  0  9G17G16G15G29G26G30G23G 6G18
  20885488.127   -21734021.58749 -16923277.09847  20885487.308    20885494.036
  23305533.066   -11812221.45149  -9192466.20545  23305532.385    23305539.104
  22228764.599   -17266729.43149 -13445284.39246  22228763.637    22228771.332
  22955103.849   -12533180.50649  -9760031.58646  22955103.272    22955110.140
  21886714.231   -15638802.10749 -12008834.94246  21886713.993    21886721.052
  24456540.022    18777239.84549  14636609.35745  24456540.169    24456553.861
  21395900.093   -18871837.15849 -14692798.33147  21395899.257    21395906.706
  20614632.948   -12929939.20149 -10067896.87347  20614632.507    20614638.738
  21619136.174   -18551854.21549 -14200933.16347  21619135.484    21619141.891
 03  4  9 21 19  0.0000000  0  9G17G16G15G29G26G30G23G 6G18
  20882425.806   -21750114.03949 -16935816.66047  20882424.978    20882431.723
  23299806.113   -11842317.04449  -9215917.31145  23299805.401    23299812.097
  22216856.858   -17329304.76049 -13494044.34546  22216855.891    22216863.571
  22957325.179   -12521506.72249  -9750935.13746  22957324.705    22957331.619
  21881258.225   -15667473.42449 -12031176.18646  21881258.010    21881265.011
  24476314.165    18881152.19249  14717579.60545  24476314.191    24476327.960
  21384939.802   -18929433.71949 -14737678.71547  21384938.985    21384946.398
  20622154.847   -12890411.55649 -10037096.15247  20622154.410    20622160.645
  21605154.090   -18625330.27149 -14258187.17747  21605153.404    21605159.793
 03  4  9 21 19 30.0000000  0  9G17G16G15G29G26G30G23G 6G18
  20879397.493   -21766027.96049 -16948217.10847  20879396.655    20879403.402
  23294182.060   -11871871.67349  -9238946.90645  23294181.413    23294188.060
  22204975.483   -17391741.56449 -13542696.34746  22204974.516    22204982.192
  22959649.824   -12509291.07549  -9741416.46046  22959649.325    22959656.206
  21875916.549   -15695543.79549 -12053049.16246  21875916.348    21875923.336
  24496073.866    18984988.55649  14798490.66945  24496073.890    24496087.833
  21374059.059   -18986612.15249 -14782233.29047  21374058.218    21374065.631
  20629764.781   -12850421.22149 -10005934.89147  20629764.341    20629770.578
  21591243.380   -18698431.24949 -14315148.91947  21591242.694    21591249.051
 03  4  9 21 20  0.0000000  0  9G17G16G15G29G26G30G23G 6G18
  20876403.126   -21781763.46149 -16960478.52647  20876402.297    20876409.033
  23288661.114   -11900884.55049  -9261554.33945  23288660.445    23288667.080
  22193120.501   -17454039.76849 -13591240.35546  22193119.543    22193127.191
  22962077.486   -12496533.86149  -9731475.77446  22962076.935    22962083.774
  21870689.528   -15723011.63949 -12074452.62646  21870689.347    21870696.349
  24515818.591    19088746.36749  14879340.50045  24515818.721    24515832.644
  21363258.024   -19043371.80649 -14826461.54047  21363257.185    21363264.600
  20637462.695   -12809968.60649  -9974413.41347  20637462.252    20637468.492
  21577404.357   -18771155.57649 -14371817.16647  21577403.664    21577409.979
 03  4  9 21 20 30.0000000  0  9G17G16G15G29G26G30G23G 6G18
  20873442.690   -21797320.61149 -16972600.97047  20873441.847    20873448.595
  23283243.270   -11929355.34149  -9283739.37945  23283242.676    23283249.291
  22181291.865   -17516199.31049 -13639676.30846  22181290.932    22181298.551
  22964607.998   -12483235.09349  -9721113.09046  22964607.573    22964614.420
  21865577.514   -15749875.16849 -12095385.19946  21865577.316    21865584.357
  24535547.952    19192423.05249  14960127.12945  24535548.123    24535561.997
  21352536.783   -19099712.16749 -14870363.07047  21352535.957    21352543.354
  20645248.529   -12769054.05949  -9942531.99147  20645248.082    20645254.354
  21563637.141   -18843502.49949 -14428191.33447  21563636.455    21563642.740
 03  4  9 21 21  0.0000000  0  9G17G16G15G29G26G30G23G 6G18
  20870516.195   -21812699.40849 -16984584.43547  20870515.363    20870522.110
  23277928.779   -11957283.08049  -9305501.25545  23277928.205    23277934.813
  22169489.694   -17578219.97749 -13688004.05246  22169488.743    22169496.358
  22967241.673   -12469394.63649  -9710328.31546  22967241.330    22967248.215
  21860580.894   -15776132.40349 -12115845.33246  21860580.695    21860587.759
  24555261.356    19296016.27649  15040848.70645  24555261.326    24555275.572
  21341895.485   -19155632.31449 -14913937.15947  21341894.654    21341902.050
  20653122.244   -12727677.41749  -9910290.49347  20653121.811    20653128.086
  21549942.095   -18915470.36049 -14484270.12747  21549941.416    21549947.673
 03  4  9 21 21 30.0000000  0  9G17G16G15G29G26G30G23G 6G18
  20867623.615   -21827900.07749 -16996429.10047  20867622.785    20867629.519
  23272717.732   -11984667.49749  -9326839.76245  23272717.123    23272723.708
  22157713.926   -17640101.82349 -13736223.62446  22157712.965    22157720.610
  22969978.497   -12455012.57949  -9699121.52746  22969978.155    22969985.112
  21855699.935   -15801782.06949 -12135832.03846  21855699.694    21855706.699
  24574958.400    19399523.13549  15121503.01945  24574958.489    24574972.668
  21331334.221   -19211131.85449 -14957183.49947  21331333.415    21331340.783
  20661083.811   -12685839.33449  -9877689.42947  20661083.379    20661089.662
  21536319.285   -18987058.36849 -14540052.93147  21536318.597    21536324.864
 03  4  9 21 22  0.0000000  0  9G17G16G15G29G26G30G23G 6G18
  20864765.041   -21842921.89549 -17008134.40247  20864764.214    20864770.951
  23267610.256   -12011507.73249  -9347754.24045  23267609.599    23267616.157
  22145964.648   -17701844.60849 -13784334.82846  22145963.678    22145971.346
  22972818.192   -12440089.21849  -9687492.93546  22972817.999    22972824.893
  21850934.873   -15826822.21349 -12155343.79346  21850934.663    21850941.689
  24594638.530    19502941.27349  15202088.18545  24594638.605    24594652.841
  21320853.219   -19266209.88449 -15000101.39247  21320852.391    21320859.758
  20669133.148   -12643539.91449  -9844728.88147  20669132.717    20669139.022
  21522769.040   -19058265.05649 -14595538.60047  21522768.378    21522774.609
 03  4  9 21 22 30.0000000  0  9G17G16G15G29G26G30G23G 6G18
  20861940.518   -21857764.88349 -17019700.35947  20861939.690    20861946.421
  23262606.408   -12037803.03749  -9368244.09945  23262605.713    23262612.326
  22134241.856   -17763448.03449 -13832337.44646  22134240.874    22134248.549
  22975761.196   -12424624.36249  -9675442.38546  22975760.921    22975767.731
  21846286.221   -15851250.89049 -12174379.06246  21846285.991    21846293.017
  24614301.304    19606268.44949  15282602.46045  24614301.253    24614315.930
  21310452.536   -19320865.58649 -15042690.19747  21310451.711    21310459.087
  20677270.270   -12600779.23449  -9811408.91147  20677269.834    20677276.150
  21509291.647   -19129089.11449 -14650726.12047  21509290.978    21509297.195
 03  4  9 21 23  0.0000000  0  9G17G16G15G29G26G30G23G 6G18
  20859149.911   -21872429.55749 -17031127.37147  20859149.072    20859155.806
  23257706.313   -12063553.43249  -9388309.33445  23257705.625    23257712.219
  22122545.520   -17824912.51649 -13880231.80146  22122544.551    22122552.209
  22978806.996   -12408618.48449  -9662970.26746  22978806.704    22978813.567
  21841754.204   -15875066.94449 -12192936.98946  21841753.949    21841760.944
  24633946.205    19709501.56849  15363043.46045  24633946.234    24633960.869
  21300132.239   -19375098.92349 -15084949.88847  21300131.406    21300138.783
  20685495.002   -12557558.06749  -9777730.11947  20685494.570    20685500.890
  21495887.228   -19199529.76249 -14705614.87947  21495886.538    21495892.744
 03  4  9 21 23 30.0000000  0  9G17G16G15G29G26G30G23G 6G18
  20856393.426   -21886915.10149 -17042414.79947  20856392.580    20856399.312
  23252910.107   -12088757.55649  -9407948.93145  23252909.455    23252916.077
  22110875.801   -17886237.08649 -13928017.13246  22110874.820    22110882.491
  22981955.915   -12392071.16849  -9650076.24646  22981955.593    22981962.420
  21837339.107   -15898268.22749 -12211015.87246  21837338.865    21837345.829
  24653572.925    19812639.03249  15443409.91545  24653572.776    24653587.874
  21289892.563   -19428908.58249 -15126879.44047  21289891.735    21289899.088
  20693807.447   -12513876.10249  -9743692.26547  20693807.015    20693813.345
  21482556.073   -19269585.10649 -14760203.40147  21482555.397    21482561.601
 03  4  9 21 24  0.0000000  0  9G17G16G15G29G26G30G23G 6G18
  20853670.797   -21901222.47449 -17053563.39547  20853669.945    20853676.674
  23248217.879   -12113415.25949  -9427162.73145  23248217.274    23248223.891
  22099232.656   -17947422.09649 -13975693.71446  22099231.670    22099239.290
  22985207.720   -12374982.87449  -9636760.68446  22985207.372    22985214.168
  21833041.224   -15920853.48349 -12228614.74046  21833041.010    21833047.952
  24673180.805    19915677.58549  15523699.28445  24673180.761    24673195.810
  21279733.532   -19482294.31049 -15168478.66047  21279732.708    21279740.064
  20702207.425   -12469734.07249  -9709295.91547  20702207.000    20702213.336
  21469298.373   -19339254.58049 -14814491.24547  21469297.675    21469303.897
 03  4  9 21 24 30.0000000  0  8G17G16G15G29G26G23G 6G18
  20850984.014   -21915341.72849 -17064565.40747  20850983.155    20850989.861
  23243631.481   -12137517.04449  -9445943.33845  23243630.889    23243637.426
  22087617.868   -18008458.01149 -14023254.12146  22087616.901    22087624.500
  22988564.028   -12357344.68449  -9623016.62546  22988563.818    22988570.618
  21828862.659   -15942811.87049 -12245725.12546  21828862.433    21828869.371
  21269657.057   -19535246.25649 -15209739.86747  21269656.253    21269663.586
  20710696.633   -12425123.03349  -9674534.10547  20710696.213    20710702.564
  21456116.100   -19408527.76049 -14868470.28847  21456115.410    21456121.617
 03  4  9 21 25  0.0000000  0  8G17G16G15G29G26G23G 6G18
  20848331.964   -21929278.32549 -17075425.08747  20848331.091    20848337.802
  23239149.948   -12161067.93749  -9464294.69445  23239149.312    23239155.839
  22076030.484   -18069349.96349 -14070702.34246  22076029.543    22076037.081
  22992024.075   -12339162.33349  -9608848.54646  22992023.833    22992030.619
  21824802.636   -15964147.48349 -12262350.25346  21824802.404    21824809.267
  21259662.202   -19587769.53249 -15250667.05147  21259661.383    21259668.713
  20719273.980   -12380049.01349  -9639411.52947  20719273.545    20719279.918
  21443008.366   -19477409.03149 -14922143.94947  21443007.685    21443013.886
 03  4  9 21 25 30.0000000  0  8G17G16G15G29G26G23G 6G18
  20845712.883   -21943041.55249 -17086149.67247  20845712.034    20845718.727
  23234771.535   -12184076.30149  -9482223.28446  23234770.903    23234777.560
  22064468.751   -18130107.04549 -14118045.48246  22064467.787    22064475.331
  22995585.714   -12320445.15349  -9594263.72146  22995585.567    22995592.357
  21820859.643   -15984867.88649 -12278495.99146  21820859.423    21820866.268
  21249747.307   -19639872.43749 -15291266.67247  21249746.487    21249753.797
  20727937.639   -12334521.45249  -9603935.54447  20727937.178    20727943.570
  21429973.694   -19545906.51949 -14975518.56147  21429972.998    21429979.208
 03  4  9 21 26  0.0000000  0  8G17G16G15G29G26G23G 6G18
  20843127.128   -21956629.86749 -17096737.96347  20843126.274    20843132.988
  23230496.844   -12206539.81749  -9499727.34245  23230496.292    23230502.885
  22052933.214   -18190726.60549 -14165281.45246  22052932.233    22052939.811
  22999249.752   -12301191.05249  -9579260.50646  22999249.491    22999256.276
  21817034.406   -16004969.38349 -12294159.46646  21817034.201    21817041.032
  21239912.932   -19691552.25349 -15331536.61347  21239912.105    21239919.394
  20736687.925   -12288538.49449  -9568104.70447  20736687.470    20736693.850
  21417012.715   -19614016.68949 -15028591.36647  21417012.031    21417018.238
 03  4  9 21 26 30.0000000  0  8G17G16G15G29G26G23G 6G18
  20840575.018   -21970041.23149 -17107188.36847  20840574.171    20840580.859
  23226326.220   -12228457.01649  -9516805.68945  23226325.579    23226332.183
  22041423.996   -18251207.71249 -14212409.53946  22041423.010    22041430.569
  23003016.012   -12281399.50049  -9563838.48846  23003015.664    23003022.504
  21813327.403   -16024449.36349 -12309338.64646  21813327.238    21813334.098
  21230159.333   -19742807.65049 -15371475.84247  21230158.497    21230165.777
  20745524.966   -12242099.59749  -9531918.58547  20745524.532    20745530.906
  21404125.799   -19681737.74249 -15081360.96547  21404125.113    21404131.312
 03  4  9 21 27  0.0000000  0  8G17G16G15G29G26G23G 6G18
  20838056.847   -21983274.28749 -17117499.83247  20838056.004    20838062.687
  23222259.760   -12249826.61049  -9533457.33445  23222259.095    23222265.664
  22029941.346   -18311549.30649 -14259428.92146  22029940.360    22029947.928
  23006884.727   -12261069.82049  -9547997.17246  23006884.246    23006891.072
  21809739.233   -16043305.80949 -12324031.96246  21809738.972    21809745.815
  21220486.732   -19793637.32649 -15411083.33747  21220485.913    21220493.176
  20754448.892   -12195204.27449  -9495376.80347  20754448.454    20754454.864
  21391313.245   -19749067.89049 -15133825.95947  21391312.592    21391318.759
 03  4  9 21 27 30.0000000  0  8G17G16G15G29G26G23G 6G18
  20835572.744   -21996328.37049 -17127671.83847  20835571.894    20835578.584
  23218297.693   -12270647.02349  -9549681.05145  23218297.077    23218303.648
  22018485.536   -18371749.83449 -14306338.37546  22018484.560    22018492.098
  23010855.860   -12240200.94749  -9531735.70446  23010855.446    23010862.297
  21806270.110   -16061535.79849 -12338237.12546  21806269.894    21806276.732
  21210895.527   -19844039.39649 -15450357.63947  21210894.713    21210901.935
  20763459.838   -12147851.66349  -9458478.69647  20763459.396    20763465.811
  21378575.641   -19816004.23549 -15185984.10147  21378574.981    21378581.140
 03  4  9 21 28  0.0000000  0  8G17G16G15G29G26G23G 6G18
  20833122.623   -22009203.78049 -17137704.61547  20833121.780    20833128.441
  23214440.239   -12290918.27149  -9565476.84346  23214439.597    23214446.169
  22007056.493   -18431809.68449 -14353138.21246  22007055.532    22007063.032
  23014929.460   -12218793.67949  -9515054.70546  23014929.086    23014936.002
  21802920.467   -16079138.36649 -12351953.39546  21802920.192    21802927.023
  21201385.709   -19894013.68349 -15489298.60147  21201384.887    21201392.112
  20772557.607   -12100042.62349  -9421224.93247  20772557.178    20772563.596
  21365913.037   -19882546.42749 -15237835.10847  21365912.377    21365918.511
 03  4  9 21 28 30.0000000  0  8G17G16G15G29G26G23G 6G18
  20830706.623   -22021900.00549 -17147597.76947  20830705.782    20830712.429
  23210687.332   -12310639.88849  -9580844.34546  23210686.716    23210693.367
  21995654.312   -18491728.49549 -14399828.15346  21995653.346    21995660.832
  23019105.601   -12196848.28849  -9497954.38246  23019105.145    23019112.030
  21799690.469   -16096112.15649 -12365179.71346  21799690.218    21799697.026
  21191957.360   -19943559.69649 -15527905.84747  21191956.544    21191963.759
  20781742.179   -12051777.50249  -9383615.77947  20781741.740    20781748.167
  21353325.646   -19948693.38149 -15289378.13747  21353324.981    21353331.105
 03  4  9 21 29  0.0000000  0  8G17G16G15G29G26G23G 6G18
  20828324.755   -22034416.71049 -17157351.03747  20828323.901    20828330.553
  23207039.214   -12329811.13149  -9595782.97346  23207038.592    23207045.200
  21984279.055   -18551505.64749 -14446407.71346  21984278.101    21984285.553
  23023383.952   -12174364.86749  -9480434.82346  23023383.594    23023390.521
  21796580.334   -16112455.40149 -12377914.68146  21796580.142    21796587.006
  21182610.686   -19992676.67949 -15566178.78347  21182609.854    21182617.068
  20791013.502   -12003056.51449  -9345651.40147  20791013.061    20791019.514
  21340813.773   -20014443.49749 -15340611.94747  21340813.103    21340819.214
 03  4  9 21 29 30.0000000  0  8G17G16G15G29G26G23G 6G18
  20825977.029   -22046754.09849 -17166964.58047  20825976.197    20825982.834
  23203495.705   -12348432.26349  -9610292.96246  23203495.105    23203501.778
  21972930.745   -18611141.18149 -14492876.90746  21972929.817    21972937.238
  23027764.571   -12151344.22749  -9462496.65146  23027764.241    23027771.157
  21793590.488   -16128167.34649 -12390157.73446  21793590.231    21793597.082
  21173345.657   -20041364.53649 -15604117.33647  21173344.828    21173352.036
  20800371.382   -11953880.66849  -9307332.59247  20800370.933    20800377.381
  21328377.551   -20079796.15749 -15391536.04947  21328376.852    21328382.973
 03  4  9 21 30  0.0000000  0  8G17G16G15G29G26G23G 6G18
  20823663.447   -22058912.00549 -17176438.26847  20823662.598    20823669.249
  23200056.908   -12366502.96449  -9624374.03246  23200056.375    23200062.995
  21961609.476   -18670634.65349 -14539235.41346  21961608.525    21961615.966
  23032247.413   -12127786.68149  -9444140.13346  23032247.108    23032253.986
  21790721.030   -16143246.52149 -12401907.72846  21790720.798    21790727.625
  21164162.384   -20089622.78349 -15641721.12447  21164161.576    21164168.765
  20809815.744   -11904250.33149  -9268659.64147  20809815.285    20809821.761
  21316017.175   -20144750.15949 -15442149.50747  21316016.479    21316022.580
 03  4  9 21 30 30.0000000  0  8G17G16G15G29G26G23G 6G18
  20821384.007   -22070890.62549 -17185772.25047  20821383.166    20821389.803
  23196722.918   -12384023.26849  -9638026.23946  23196722.323    23196729.045
  21950315.159   -18729986.44449 -14585483.51646  21950314.214    21950321.645
  23036832.464   -12103693.04949  -9425365.86246  23036831.973    23036838.899
  21787972.076   -16157692.24149 -12413164.11546  21787971.851    21787978.665
  21155060.852   -20137451.44049 -15678990.16547  21155060.037    21155067.220
  20819346.438   -11854166.39349  -9229633.22847  20819345.997    20819352.458
  21303732.747   -20209305.08549 -15492451.99547  21303732.043    21303738.134
 03  4  9 21 31  0.0000000  0  8G17G16G15G29G26G23G 6G18
  20819138.711   -22082689.68549 -17194966.31747  20819137.861    20819144.505
  23193493.813   -12400992.50949  -9651249.03046  23193493.209    23193499.918
  21939047.978   -18789195.82449 -14631620.65846  21939047.024    21939054.437
  23041519.228   -12079063.17449  -9406173.75846  23041518.859    23041525.782
  21785344.003   -16171502.62949 -12423925.43046  21785343.790    21785350.603
  21146041.277   -20184849.52949 -15715923.70147  21146040.461    21146047.648
  20828963.436   -11803628.87549  -9190253.37847  20828962.979    20828969.483
  21291524.548   -20273459.42449 -15542442.33847  21291523.845    21291529.911
 03  4  9 21 31 30.0000000  0  8G17G16G15G29G26G23G 6G18
  20816927.601   -22094309.24249 -17204020.50747  20816926.761    20816933.386
  23190369.545   -12417411.15349  -9664042.78746  23190368.901    23190375.562
  21927807.842   -18848262.90249 -14677646.90246  21927806.915    21927814.297
  23046307.990   -12053898.19649  -9386564.67946  23046307.613    23046314.554
  21782837.056   -16184676.96549 -12434191.12946  21782836.806    21782843.603
  21137103.572   -20231817.26249 -15752521.88647  21137102.758    21137109.943
  20838666.506   -11752638.93949  -9150520.99547  20838666.062    20838672.561
  21279392.649   -20337212.68149 -15592120.14947  21279391.954    21279397.999
 03  4  9 21 32  0.0000000  0  8G17G16G15G29G26G23G 6G18
  20814750.633   -22105749.17349 -17212934.73547  20814749.779    20814756.417
  23187349.974   -12433279.15949  -9676407.48246  23187349.352    23187356.059
  21916594.832   -18907187.42649 -14723562.07246  21916593.908    21916601.275
  23051198.595   -12028198.68549  -9366539.08746  23051198.087    23051204.930
  21780451.135   -16197214.35749 -12443960.49646  21780451.008    21780457.817
  21128247.828   -20278354.34549 -15788784.50147  21128247.019    21128254.202
  20848455.608   -11701197.03849  -9110436.43347  20848455.165    20848461.666
  21267337.309   -20400563.72549 -15641484.54947  21267336.629    21267342.655
 03  4  9 21 32 30.0000000  0  8G17G16G15G29G26G23G 6G18
  20812607.961   -22117008.92549 -17221708.55947  20812607.112    20812613.743
  23184435.193   -12448595.77949  -9688342.53746  23184434.659    23184441.378
  21905409.068   -18965968.84749 -14769365.73246  21905408.142    21905415.510
  23056190.714   -12001964.69049  -9346097.01346  23056190.212    23056197.088
  21778186.924   -16209113.14549 -12453232.25846  21778186.715    21778193.538
  21119474.212   -20324459.86949 -15824710.83247  21119473.403    21119480.581
  20858330.666   -11649303.37349  -9069999.84447  20858330.228    20858336.743
  21255358.726   -20463511.45949 -15690534.68447  21255358.042    21255364.049
 03  4  9 21 33  0.0000000  0  8G17G16G15G29G26G23G 6G18
  20810499.659   -22128088.08049 -17230341.66047  20810498.802    20810505.448
  23181625.416   -12463360.95849  -9699847.88146  23181624.965    23181631.687
  21894250.596   -19024606.94349 -14815057.71746  21894249.647    21894257.035
  23061284.479   -11975196.79249  -9325238.90646  23061283.965    23061290.818
  21776044.274   -16220372.22549 -12462005.54346  21776044.148    21776050.943
  21110782.742   -20370133.61149 -15860300.71147  21110781.930    21110789.092
  20868291.535   -11596958.71549  -9029211.83447  20868291.103    20868297.629
  21243456.993   -20526055.21849 -15739270.03247  21243456.331    21243462.299
 03  4  9 21 33 30.0000000  0  8G17G16G15G29G26G23G 6G18
  20808425.552   -22138987.51449 -17238834.71947  20808424.697    20808431.349
  23178920.641   -12477574.95749  -9710923.73746  23178920.088    23178926.833
  21883119.354   -19083101.77249 -14860638.05846  21883118.412    21883125.785
  23066479.638   -11947896.01449  -9303965.56846  23066479.179    23066485.986
  21774023.645   -16230990.96249 -12470279.85646  21774023.417    21774030.235
  21102173.434   -20415375.64549 -15895554.19847  21102172.620    21102179.776
  20878338.052   -11544164.03449  -8988073.15747  20878337.618    20878344.137
  21231632.310   -20588194.26249 -15787690.01847  21231631.627    21231637.580
 03  4  9 21 34  0.0000000  0  8G17G16G15G29G26G23G 6G18
  20806385.610   -22149707.52049 -17247187.96147  20806384.760    20806391.403
  23176320.668   -12491238.37549  -9721570.57046  23176320.087    23176326.777
  21872015.331   -19141453.69349 -14906107.04446  21872014.399    21872021.772
  23071775.990   -11920063.60549  -9282277.98746  23071775.572    23071782.305
  21772124.952   -16240969.08749 -12478054.99646  21772124.642    21772131.448
  21093646.245   -20460186.34549 -15930471.57447  21093645.423    21093652.559
  20888469.983   -11490920.58749  -8946584.79447  20888469.543    20888476.075
  21219884.666   -20649928.41549 -15835794.50147  21219883.970    21219889.922
